GFSSE_con_lsi_000.txt.gz
Lid_Strength_Index
2 1 -1 -1 -1 -1 -1 -1 -1 -1 -1 -1 -1 -1 -1 -1 -1 -1 -1 -1 -1 -1 -1 -1 -1 -1 -1 -1 -1 -1 -1 -1 -1 -1 -1 -1 -1 -1 -1 -1 -1 -0 -1
2 0 -1 -1 -1 -1 -1 -1 -1 -1 -1 -1 -1 -1 -1 -1 -1 -1 -1 -1 -1 -1 -1 -1 -1 -1 -1 -1 -1 -1 -1 -1 -1 -1 -1 -1 -0 -1 -1 -1 -1 -1 -1
1 1 0 -1 -1 -1 -1 -1 -1 -1 -1 -1 -1 -1 -1 -1 -1 -1 -1 -1 -1 -1 -1 -2 -1 -1 -1 -1 -1 -1 -2 -1 -1 -0 -1 1 1 -1 -1 -2 -2 -1 -1
1 1 1 -1 -1 -1 -1 -1 -1 -1 -1 -1 -1 -1 -1 -1 -1 -1 -1 -1 -1 -1 -1 -1 -2 -1 -1 -0 -1 -0 -0 0 2 3 4 3 3 -1 -1 -1 -1 -1 -1
2 2 1 -1 -1 -1 -1 -1 -1 -2 -1 -1 -1 -1 -1 -1 -1 -1 -1 -1 -1 -1 -1 -1 -1 -1 -1 -1 -0 0 0 1 3 5 7 6 5 1 -1 -1 -1 -1 -2
3 2 0 -1 -1 -1 -1 -1 -1 -1 -1 -2 -1 -2 -1 -1 -2 -2 -1 -2 -2 -2 -1 -1 -0 -0 -0 0 0 1 2 3 5 7 6 3 3 -1 -1 -1 -1 -2 -2
4 3 1 -1 -1 -1 -1 -1 -1 -1 -1 -1 -2 -2 -2 -2 -2 -1 -1 -1 -1 -1 -0 0 0 0 0 1 1 1 3 4 8 8 7 5 1 -2 -2 -2 -2 -1 -1
3 3 1 -0 -1 -1 -1 -1 -2 -1 -1 -2 -2 -2 -2 -1 -1 -0 -0 -0 -0 0 0 0 1 1 1 2 2 3 3 5 8 9 8 6 0 -2 -2 -1 -1 -1 -1
3 2 2 1 1 -0 -1 -1 -1 -2 -2 -2 -2 -2 -1 -0 0 0 0 0 0 1 1 2 2 2 2 3 3 4 5 6 11 9 7 6 0 -1 -2 -2 -1 -1 -1
4 3 3 3 3 2 2 -0 -0 -1 -2 -2 -2 -1 -0 0 0 1 1 1 1 1 2 3 3 3 4 4 5 6 7 8 11 10 9 6 2 0 -1 -1 -1 -1 -1
4 4 4 4 4 3 4 2 0 -1 -1 -0 0 1 4 7 6 6 4 1 2 2 3 4 4 5 6 6 6 7 9 12 12 11 10 5 3 1 1 0 0 -0 -0
5 4 4 5 5 5 3 4 3 3 3 5 6 7 9 10 9 8 5 2 3 3 4 5 6 7 10 13 13 11 13 13 13 12 11 6 4 3 2 1 1 0 0
4 4 4 5 6 6 6 6 6 6 7 7 8 10 11 11 10 10 10 11 11 9 12 12 13 14 14 14 14 14 14 14 14 13 11 7 5 4 3 2 1 1 0
5 4 4 5 6 7 7 6 7 7 9 9 10 11 13 13 12 12 14 14 15 15 15 15 15 14 14 14 14 15 15 15 15 14 13 8 6 4 3 2 2 1 1
6 5 5 5 5 6 8 8 8 8 8 10 11 12 13 12 13 14 14 15 15 15 15 16 15 15 15 15 15 15 15 15 15 14 14 9 7 5 4 3 2 2 1
8 6 5 6 5 6 7 8 7 8 10 11 12 12 13 13 13 14 15 15 16 16 16 16 16 16 16 16 16 16 15 15 15 15 14 14 8 7 5 4 4 3 2
9 9 7 6 6 7 7 8 8 9 11 11 12 13 13 13 14 14 14 16 16 16 16 16 16 17 17 16 17 16 16 15 15 15 14 14 13 9 6 5 4 3 3
9 10 9 7 7 7 7 8 9 10 10 11 12 13 13 13 14 14 15 16 16 16 16 17 17 17 17 17 17 17 16 16 15 15 15 15 14 13 10 8 7 5 4
9 10 11 10 8 8 8 9 10 11 11 11 13 13 13 13 14 14 15 16 16 17 17 17 18 18 18 18 17 17 17 16 16 15 16 15 15 15 15 11 10 9 7
10 10 11 11 10 9 9 11 13 13 12 13 13 13 14 14 15 15 15 16 16 17 17 18 18 18 18 18 17 17 17 17 17 17 16 15 16 15 15 15 15 13 9
12 11 12 12 11 11 11 12 13 12 13 14 13 13 14 14 15 15 16 16 17 17 18 18 18 18 18 18 18 18 18 17 17 17 17 17 16 16 16 16 15 15 14
11 12 12 12 12 11 11 11 12 12 14 13 14 15 15 15 15 15 16 16 17 18 18 18 18 18 18 19 19 19 19 19 18 17 17 17 17 17 16 16 16 15 15
13 13 12 12 13 12 12 12 16 16 17 17 17 16 16 15 16 16 16 16 17 17 18 18 18 18 19 19 19 18 20 20 20 18 18 17 18 17 17 17 16 15 15
12 13 13 13 13 13 12 13 13 14 14 14 14 14 15 16 16 16 16 17 17 18 18 18 18 19 18 19 18 18 19 19 20 21 19 18 18 18 18 17 17 16 15
13 14 14 14 14 13 13 13 13 13 13 16 16 15 16 17 16 16 17 17 18 17 18 18 19 19 19 19 19 19 20 20 20 20 21 20 19 19 18 18 17 17 16
15 15 15 15 15 14 14 14 13 14 16 16 17 16 17 17 17 17 17 17 17 18 18 18 18 19 19 19 19 19 19 20 20 20 21 21 21 19 19 18 18 17 16

GFSSE_con_lsi_003.txt.gz
Lid_Strength_Index
1 -1 -1 -1 -1 -1 -1 -1 -1 -1 -1 -1 -1 -1 -1 -1 -1 -1 -1 -1 -1 -1 -1 -1 -1 -2 -2 -1 -1 -2 -1 -2 -1 -1 -1 -1 -1 -1 -1 -1 -1 -1 -1
-0 -1 -1 -1 -1 -2 -2 -2 -1 -1 -1 -1 -1 -1 -1 -1 -1 -1 -1 -1 -1 -1 -1 -1 -2 -2 -1 -1 -1 -1 -1 -1 -1 -1 -1 -0 -1 -1 -1 -1 -2 -1 -1
-0 -1 -1 -1 -1 -1 -1 -1 -1 -1 -1 -1 -1 -1 -1 -1 -1 -1 -1 -1 -1 -1 -2 -2 -1 -1 -1 -1 -1 -2 -1 -0 1 1 1 2 0 -1 -1 -1 -2 -2 -2
-0 -1 -1 -1 -1 -1 -1 -1 -1 -1 -1 -1 -1 -1 -1 -1 -2 -1 -1 -1 -1 -2 -2 -1 -1 -2 -2 -1 -1 -1 -1 1 2 3 3 2 3 -0 -1 -1 -1 -1 -1
-0 -1 -1 -1 -1 -1 -1 -1 -1 -1 -2 -1 -1 -1 -1 -1 -1 -1 -1 -1 -1 -1 -1 -1 -2 -1 -1 -1 -1 -1 1 1 2 3 1 -0 -0 -1 -1 -1 -1 -1 -2
-0 1 -0 -1 -1 -1 -1 -1 -1 -1 -2 -1 -1 -1 -1 -1 -1 -1 -1 -1 -1 -2 -2 -2 -1 -1 -1 -1 -0 1 2 2 4 3 1 -1 -1 -1 -1 -1 -1 -1 -2
1 1 -1 -1 -1 -1 -1 -1 -1 -1 -1 -2 -1 -2 -1 -1 -1 -1 -1 -1 -2 -2 -1 -1 -1 -1 0 1 1 2 3 4 5 4 2 0 -1 -1 -2 -2 -2 -1 -1
1 2 0 -0 -0 -1 -1 -1 -1 -1 -2 -2 -2 -2 -2 -2 -2 -2 -2 -2 -1 -1 -1 -1 0 1 1 1 2 3 4 6 6 5 3 1 -2 -2 -2 -2 -2 -1 -1
2 2 1 -1 -0 0 -0 -1 -1 -1 -2 -2 -2 -2 -2 -2 -1 -1 -1 -1 -1 -1 -0 0 1 1 2 2 3 4 5 6 8 6 4 2 -0 -2 -2 -2 -2 -1 -1
2 2 1 -0 -1 -1 -1 0 0 -1 -1 -1 -1 -2 -2 -1 -1 -1 -1 -1 -0 -0 1 1 1 2 3 4 5 6 7 8 8 7 5 3 1 0 -1 -1 -1 -2 -1
3 2 1 1 1 1 1 1 1 0 0 -0 -0 -0 1 1 1 2 2 -0 -0 1 2 2 3 4 5 5 6 7 9 10 9 9 6 4 2 1 0 0 -0 -1 -1
3 2 2 1 2 2 2 1 1 1 0 1 1 2 4 4 4 4 3 1 0 1 3 4 5 7 9 10 10 10 10 10 10 10 7 5 3 2 1 1 0 0 -0
2 1 2 2 2 2 2 3 2 2 2 2 3 5 6 6 5 5 5 5 5 6 6 7 10 10 10 10 11 11 11 11 11 10 8 6 4 3 2 1 0 -0 0
2 1 1 2 3 3 3 3 3 3 3 4 5 6 7 7 7 7 7 8 8 9 10 11 11 11 11 11 11 12 12 11 11 10 9 7 5 3 2 1 1 1 0
3 2 2 2 2 3 3 3 3 3 4 4 6 7 8 9 8 8 9 10 11 11 11 12 12 12 12 12 12 12 12 12 11 11 10 7 5 4 2 2 2 1 1
4 3 2 3 2 3 3 4 3 4 4 6 6 7 9 9 9 9 11 12 12 12 12 12 12 12 12 12 13 13 13 12 12 11 11 8 6 5 4 3 3 2 2
6 4 3 3 3 3 3 4 4 4 6 6 7 8 9 10 10 10 11 12 12 12 12 13 13 13 13 13 13 13 13 12 12 12 11 11 8 5 5 4 4 3 2
8 7 5 4 4 4 4 4 4 5 6 6 7 8 9 10 10 11 11 12 12 13 12 13 13 14 14 13 14 14 13 12 12 12 12 12 11 12 10 8 6 4 5
8 8 8 5 5 5 4 4 4 6 6 6 8 9 10 10 11 11 12 12 13 13 13 14 14 14 14 14 14 13 13 12 13 13 13 13 13 13 12 10 9 8 7
9 9 9 8 6 5 5 5 6 8 6 7 8 9 10 10 11 11 12 13 13 14 14 14 14 14 14 14 15 14 13 14 13 13 13 14 13 13 13 13 12 11 9
10 10 10 10 8 7 7 8 9 9 8 9 9 10 10 11 11 11 12 13 14 14 14 14 14 14 15 15 14 14 14 14 14 13 13 14 14 14 14 13 13 12 11
11 11 11 11 10 8 8 8 9 8 9 9 10 11 11 12 12 12 13 14 14 14 15 15 14 15 15 15 14 14 15 14 14 14 14 14 15 14 14 14 13 13 12
11 12 12 12 11 10 9 10 13 13 14 13 13 12 12 12 13 13 13 14 15 15 15 15 14 14 15 16 15 13 16 14 15 15 15 14 15 15 14 14 14 14 13
11 12 12 12 12 11 11 11 11 11 12 12 11 11 12 12 13 13 13 14 14 15 15 15 15 14 14 15 15 16 16 15 15 16 16 15 15 15 15 15 14 14 13
13 13 12 12 13 12 12 11 12 12 11 12 12 12 13 13 13 14 14 14 15 15 14 15 16 16 15 14 15 16 16 16 16 16 16 16 16 15 15 15 14 13 12
13 14 13 13 13 13 12 12 12 12 13 14 13 13 14 14 14 14 14 14 14 15 15 15 15 15 15 15 15 15 16 16 17 16 17 17 17 16 16 15 14 13 14

GFSSE_con_lsi_006.txt.gz
Lid_Strength_Index
0 -1 -1 -1 -1 -1 -1 -1 -1 -1 -1 -1 -1 -1 -1 -1 -1 -1 -1 -1 -1 -1 -1 -1 -1 -1 -1 -1 -1 -1 -1 -1 -1 -1 -1 -1 -1 -1 -1 -1 -1 -1 -1
-1 -1 -1 -1 -1 -1 -1 -1 -1 -1 -1 -1 -1 -1 -1 -1 -1 -1 -1 -1 -1 -1 -1 -1 -1 -1 -1 -1 -1 -1 -1 -1 -1 0 0 -1 -1 -1 -1 -1 -2 -1 -1
-0 -1 -1 -1 -1 -1 -1 -1 -1 -1 -1 -1 -1 -1 -1 -1 -1 -1 -1 -1 -1 -1 -1 -1 -1 -1 -1 -1 -1 -1 -1 0 1 1 2 -1 -1 -1 -1 -1 -2 -1 -1
-1 -1 -1 -0 -1 -1 -1 -1 -1 -1 -1 -1 -1 -1 -1 -1 -1 -1 -1 -1 -1 -1 -1 -1 -1 -1 -1 -1 -1 -1 0 1 2 2 -1 -1 -1 -1 -1 -1 -1 -1 -1
-1 -1 -1 -1 -1 -1 -1 -1 -1 -1 -1 -1 -1 -1 -1 -1 -2 -1 -1 -1 -1 -1 -1 -1 -1 -1 -1 -1 -0 0 1 2 2 -0 -1 -1 -2 -1 -1 -1 -1 -1 -2
-1 -1 -1 -1 -1 -1 -1 -1 -1 -1 -1 -1 -1 -1 -1 -1 -1 -1 -1 -1 -1 -1 -1 -1 -1 -1 -1 -0 1 2 2 3 2 2 -0 -1 -1 -1 -1 -1 -1 -1 -2
-0 -1 -1 -1 -1 -1 -1 -1 -1 -1 -1 -2 -2 -1 -2 -1 -1 -1 -1 -1 -1 -2 -2 -1 -1 -0 0 1 1 2 3 4 3 2 1 -1 -1 -1 -1 -1 -1 -1 -1
-0 -1 -1 0 -0 -1 -1 -1 -1 -1 -1 -2 -2 -1 -1 -1 -1 -1 -1 -1 -2 -1 -1 -1 -0 0 1 1 2 3 5 6 4 3 1 -1 -1 -1 -1 -1 -1 -1 -1
-1 -1 -1 -1 -1 1 0 -0 -1 -1 -1 -2 -2 -2 -2 -2 -2 -2 -2 -2 -1 -1 -1 -0 0 1 2 2 3 4 6 6 5 4 3 1 -0 -1 -1 -1 -1 -1 -1
-0 -0 -1 -1 -1 -1 -1 1 1 -0 -1 -1 -1 -1 -1 -1 -2 -2 -1 -2 -1 -1 0 1 1 2 2 4 5 6 7 7 6 5 4 2 1 0 -0 -1 -1 -1 -1
0 -0 -1 -1 -1 -1 -1 -0 1 0 0 0 0 0 1 -2 -1 -1 -0 -1 -1 -0 1 1 2 3 4 5 6 8 7 7 7 6 5 4 2 1 1 0 0 -0 -1
1 1 -0 -0 -1 -1 -1 -1 -1 -1 -1 -1 -1 -1 -1 -1 -0 0 1 -0 -1 0 2 2 3 6 8 7 8 9 8 8 8 7 6 5 4 3 2 1 1 0 -0
1 1 0 -0 -1 -1 -1 -1 -1 -1 -1 -1 -1 -1 -1 0 1 1 1 1 1 2 3 4 6 7 7 7 8 8 8 8 8 8 7 5 4 3 2 1 1 0 0
1 1 0 -0 -0 -0 -1 -1 -1 -1 -1 -1 -1 -1 0 1 1 2 1 1 2 3 4 6 7 7 8 9 9 9 9 8 8 8 7 6 5 3 2 1 1 0 0
2 1 0 -0 -0 -0 -0 -1 -1 -0 -1 -1 -1 -0 1 1 2 3 2 2 3 4 6 8 8 8 9 9 9 9 9 9 9 8 7 6 5 3 2 2 2 1 0
3 2 0 0 -0 -0 -0 -0 -0 -1 -1 -1 -0 1 1 2 3 4 3 4 5 6 8 8 8 9 9 9 10 10 10 9 9 8 7 6 5 4 3 3 2 2 1
4 3 2 1 -0 0 0 -0 -0 -0 -1 -0 0 1 2 3 4 5 5 5 6 8 8 8 9 9 10 10 10 10 10 9 9 9 8 7 5 6 4 4 3 2 2
5 5 3 2 1 0 0 -0 -0 -0 0 0 1 1 3 4 5 5 6 7 8 9 9 9 10 10 10 10 10 10 10 10 10 10 9 9 8 8 8 6 4 4 4
5 5 5 4 2 2 1 0 0 1 1 1 1 2 3 4 5 6 6 7 9 9 9 10 10 10 10 10 11 10 10 10 10 11 10 10 11 10 9 8 8 7 7
5 5 5 5 3 2 2 1 1 1 2 2 2 2 3 5 6 7 7 7 9 9 10 10 10 10 10 10 12 11 11 10 10 10 11 11 11 11 11 10 9 9 7
6 7 7 6 6 4 3 3 3 3 3 3 2 3 4 5 6 7 8 8 9 9 9 10 10 11 12 11 10 11 11 11 11 11 11 11 12 12 11 11 10 10 8
8 8 8 7 7 5 4 4 3 4 3 3 3 4 5 5 6 7 7 8 10 10 10 10 11 12 11 11 10 10 12 12 12 12 12 12 12 12 12 12 11 11 10
10 9 9 8 8 7 6 5 5 7 6 6 5 6 6 6 7 7 8 8 10 10 11 11 11 11 12 12 11 9 12 11 12 12 12 12 13 12 12 12 12 12 10
11 10 9 9 9 9 7 7 7 8 9 8 8 7 7 7 7 8 8 9 9 10 11 11 11 10 10 12 12 12 11 10 12 14 13 13 13 13 13 12 12 12 10
10 10 11 10 10 9 9 8 8 8 8 8 9 9 8 8 8 8 8 9 9 10 10 11 12 11 10 9 10 12 12 12 12 11 13 14 14 13 13 13 12 12 11
10 11 11 11 11 11 10 9 9 9 9 9 10 10 10 10 10 9 9 9 9 10 11 11 11 11 10 10 10 11 11 12 13 12 13 13 14 14 14 13 13 12 12

GFSSE_con_lsi_012.txt.gz
Lid_Strength_Index
2 -0 -1 -1 -1 -1 -1 -1 -1 -1 -2 -1 -1 -1 -1 -1 -1 -1 -1 -1 -1 -1 -1 -1 -1 -1 -1 -1 -1 -1 -1 -1 -0 -0 -1 -1 -1 -1 -1 -1 -1 -1 -1
0 -0 -1 -1 -1 -1 -1 -1 -1 -1 -1 -1 -1 -1 -1 -1 -1 -1 -1 -1 -1 -1 -1 -1 -1 -1 -1 -1 -1 -0 0 0 0 1 1 -2 -2 -1 -2 -2 -2 -1 -1
1 -0 -1 -1 -1 -1 -1 -1 -1 -1 -1 -1 -1 -1 -1 -1 -1 -1 -1 -1 -1 -1 -1 -1 -1 -1 -1 -1 -0 0 1 0 1 0 -0 1 -1 -1 -1 -2 -2 -2 -1
1 -0 -0 -0 -1 -1 -1 -1 -1 -1 -1 -1 -1 -1 -1 -1 -1 -1 -1 -1 -1 -1 -1 -1 -1 -1 -1 -1 0 1 1 1 1 -0 1 -0 -0 -1 -1 -1 -1 -1 -2
1 -0 -0 -0 -1 -1 -1 -1 -1 -1 -1 -2 -1 -1 -1 -1 -1 -1 -1 -1 -1 -1 -1 -1 -1 -1 0 1 2 3 3 3 2 1 0 1 1 -1 -1 -1 -1 -1 -2
1 0 -0 -1 -1 -1 -1 -1 -1 -1 -1 -1 -1 -1 -1 -1 -2 -1 -1 -1 -1 -1 -1 -1 -1 -1 -0 1 2 3 3 3 0 5 2 -0 -0 -1 -1 -1 -1 -1 -2
1 1 -0 -0 -1 -1 -1 -1 -1 -1 -1 -1 -1 -2 -2 -2 -2 -1 -1 -1 -1 -1 -1 -1 -1 -1 -0 1 2 3 3 2 4 4 1 1 0 -1 -1 -1 -1 -1 -1
1 0 -0 1 0 -0 -1 -1 -1 -1 -1 -1 -1 -1 -2 -2 -2 -1 -1 -1 -1 -1 -1 -2 -1 -0 1 1 3 4 4 2 4 4 1 1 -1 -1 -1 -1 -1 -1 -1
1 0 1 0 0 1 0 0 -0 -1 -1 -1 -1 -1 -1 -2 -2 -2 -2 -1 -1 -1 -2 -1 -0 0 1 2 3 5 5 2 6 5 2 2 -1 -1 -1 -1 -1 -1 -1
1 1 1 0 0 0 0 1 1 0 0 -0 -0 -0 -0 -1 -1 -1 -1 -2 -2 -2 -2 -1 -0 1 1 3 5 6 6 4 8 6 4 3 -0 -1 -1 -1 -1 -1 -1
2 1 1 1 1 0 0 1 2 1 1 1 1 2 2 1 1 0 -0 -1 -2 -2 -1 -0 0 1 2 4 6 7 5 9 9 8 6 3 2 1 1 0 -0 -0 -1
3 2 1 1 1 1 0 1 0 0 -0 0 1 2 2 2 2 1 1 -1 -2 -2 -1 -0 1 2 4 8 9 6 9 9 10 9 7 3 2 2 1 1 1 0 -0
3 2 1 2 1 1 1 1 0 0 1 -0 -0 0 1 1 3 3 2 1 2 1 3 3 4 6 8 9 10 10 10 10 10 9 7 4 3 2 2 1 0 0 0
5 3 2 1 2 2 1 2 2 1 1 0 -0 0 1 1 3 4 2 2 3 4 4 5 8 9 9 9 9 10 10 11 11 10 7 4 3 3 2 1 1 0 0
7 6 4 2 2 2 2 2 2 2 1 1 1 0 0 1 4 4 3 2 2 4 5 6 9 9 9 10 10 10 10 10 10 10 9 5 3 2 2 2 1 1 0
6 6 5 3 1 2 2 2 2 2 2 1 1 0 1 3 4 4 3 3 3 3 5 8 9 9 10 10 10 10 11 11 10 10 8 7 3 2 3 3 2 1 1
7 6 6 5 2 2 2 2 2 2 2 2 1 2 3 4 4 4 4 4 4 5 7 9 9 9 10 10 11 11 11 10 11 10 10 8 7 4 3 2 2 2 1
8 8 7 5 5 2 2 2 2 2 2 2 2 2 3 3 4 5 4 4 5 6 9 10 10 11 11 11 12 12 11 11 11 10 10 9 9 8 6 4 3 3 2
9 9 8 7 6 4 2 2 2 2 2 2 2 3 3 3 4 4 5 5 6 8 10 10 11 11 12 12 11 12 12 12 12 11 11 11 12 10 9 7 6 6 6
10 10 9 8 7 5 4 3 3 2 2 2 2 3 3 3 3 5 6 6 7 9 10 10 11 11 11 12 11 11 12 12 12 13 12 12 12 12 11 11 11 9 5
11 11 10 9 9 7 6 5 5 5 4 3 3 3 2 3 4 6 7 7 9 9 10 10 11 12 12 12 12 13 13 13 13 13 13 13 13 12 12 12 12 10 9
11 11 11 10 10 9 7 6 6 7 6 5 3 3 3 4 5 6 7 8 10 11 11 11 11 12 12 12 13 14 16 15 13 13 13 13 14 14 13 12 12 11 10
12 12 11 11 11 10 9 7 7 7 8 8 8 6 4 4 5 7 8 9 10 11 11 11 12 12 14 13 11 12 15 16 16 15 14 14 14 14 14 14 12 12 11
12 12 11 11 11 11 11 10 11 10 10 9 9 9 8 6 6 7 8 9 11 11 12 11 11 11 13 13 13 11 12 13 15 18 15 15 15 14 15 14 14 13 11
12 12 12 11 11 11 11 12 12 12 11 11 11 11 11 9 8 8 8 9 10 11 12 12 13 12 12 13 13 14 14 14 14 16 18 17 16 15 15 14 14 13 11
11 12 12 12 12 12 12 12 13 13 13 13 12 12 12 11 10 9 9 10 10 11 12 12 13 13 13 13 13 14 14 15 16 15 16 18 18 17 16 15 14 14 12

GFSSE_con_lsi_015.txt.gz
Lid_Strength_Index
1 -0 -1 -1 -1 -1 -1 -1 -1 -1 -2 -1 -1 -1 -1 -1 -1 -1 -1 -1 -1 -1 -1 -1 -1 -1 -1 -1 -1 -1 -1 -0 0 0 -1 -1 -1 -1 -1 -2 -1 -1 -1
1 -0 -1 -1 -1 -1 -1 -1 -1 -1 -2 -1 -1 -1 -1 -1 -1 -1 -1 -1 -1 -1 -1 -1 -1 -1 -1 -1 -1 -0 -0 -0 1 1 0 -2 -2 -2 -2 -2 -2 -1 -1
0 -0 -1 -1 -1 -1 -1 -1 -1 -1 -1 -1 -1 -1 -1 -1 -1 -1 -1 -1 -1 -1 -1 -1 -1 -1 -1 -1 -0 0 1 1 1 -0 1 1 -0 -2 -2 -2 -2 -1 -1
0 -0 -0 -0 -1 -1 -1 -1 -1 -1 -1 -1 -1 -1 -1 -1 -1 -1 -1 -1 -1 -1 -1 -1 -1 -1 -1 0 0 1 1 1 1 -0 1 1 -0 -1 -1 -1 -1 -1 -1
0 -0 -0 -0 -1 -1 -1 -1 -1 -2 -1 -2 -1 -1 -1 -1 -1 -1 -1 -1 -1 -1 -1 -1 -1 -1 1 2 2 3 3 3 1 2 1 1 0 -1 -1 -1 -1 -1 -2
1 -0 -0 -0 -1 -1 -1 -1 -1 -2 -2 -2 -2 -1 -1 -1 -1 -1 -1 -1 -1 -1 -1 -1 -1 -1 0 2 3 3 2 1 2 3 1 0 0 -1 -2 -1 -1 -1 -2
2 1 -0 -0 -1 -1 -1 -1 -1 -1 -1 -2 -1 -2 -2 -2 -2 -1 -1 -1 -1 -1 -1 -1 -1 -1 -0 1 2 2 2 1 4 2 2 3 1 -1 -1 -1 -1 -1 -1
2 0 -0 1 0 -0 -1 -1 -1 -1 -1 -1 -1 -1 -2 -2 -2 -2 -1 -1 -1 -1 -1 -2 -1 -1 0 2 3 3 2 1 5 2 2 3 -2 -1 -1 -1 -1 -1 -1
2 0 0 0 0 1 1 0 -0 -1 -1 -1 -1 -1 -1 -1 -2 -2 -2 -2 -1 -1 -2 -2 -1 -0 1 2 3 4 3 1 6 3 2 3 -2 -1 -1 -1 -1 -1 -1
2 1 0 1 1 1 0 2 1 0 -0 -0 -0 0 1 -0 -1 -1 -1 -2 -2 -1 -2 -2 -0 0 1 3 5 5 4 4 8 5 4 3 -1 -1 -1 -1 -1 -1 -1
3 2 2 0 1 0 1 1 2 2 1 1 1 2 2 2 1 1 1 -1 -2 -2 -2 -1 -0 1 2 4 6 6 5 10 9 7 6 2 2 1 0 -0 -0 -1 -1
3 3 2 2 1 1 -0 1 1 0 1 1 1 2 2 3 3 2 3 -0 -1 -2 -2 -1 0 1 4 9 10 7 10 10 10 8 6 3 2 2 1 1 0 -0 -1
4 2 2 2 2 1 1 1 0 -0 0 1 0 2 1 1 3 4 4 2 1 1 2 1 3 6 7 9 10 11 11 11 11 9 6 3 2 2 2 1 -0 -0 -0
7 4 2 1 2 2 2 2 1 0 1 2 -0 1 1 1 2 4 5 4 3 4 4 5 6 8 9 10 10 11 11 11 11 9 7 3 2 2 2 1 1 0 -0
8 7 3 1 1 1 2 3 3 1 2 2 2 0 0 1 4 4 5 5 4 4 5 6 7 9 10 10 10 11 11 11 11 9 9 4 2 2 1 1 1 0 0
8 8 7 3 1 2 2 3 3 3 3 3 3 2 1 1 4 5 5 5 4 4 5 7 9 10 10 11 11 11 11 11 11 10 9 6 2 2 2 2 1 0 0
9 9 8 7 2 3 3 3 3 3 3 3 3 2 2 2 3 5 6 5 4 4 6 8 9 10 11 11 11 11 11 11 11 11 9 8 6 3 2 2 2 1 0
10 10 9 8 7 3 3 3 3 3 3 3 3 2 3 2 3 5 6 6 5 5 7 9 10 11 11 12 12 12 12 11 11 11 11 9 9 8 5 3 2 1 1
11 11 10 9 8 5 3 3 3 3 3 3 3 3 3 4 5 5 6 7 7 7 9 9 11 11 12 13 12 13 12 12 12 11 11 12 12 10 9 6 6 5 4
12 11 11 10 9 7 5 4 4 3 3 2 2 2 2 3 4 6 6 7 7 9 10 11 11 12 12 13 12 12 13 12 12 13 12 12 12 11 10 11 11 9 5
12 12 12 11 10 9 7 7 6 6 5 4 3 3 2 3 3 5 6 7 9 9 10 11 12 12 13 13 13 14 14 13 13 13 13 13 13 12 12 12 12 11 9
12 12 12 12 11 11 9 8 8 9 8 6 6 4 4 4 4 5 7 7 9 10 11 12 12 13 13 13 14 15 16 15 14 13 13 13 14 13 13 12 13 11 10
13 13 12 12 11 11 11 10 10 10 10 10 8 7 7 5 5 6 7 8 9 10 11 11 12 12 13 13 13 14 17 17 16 14 14 14 14 15 14 14 13 12 10
13 13 12 11 11 11 11 12 13 13 13 12 11 11 11 9 7 7 7 8 9 10 11 12 12 12 13 14 14 12 14 15 17 17 15 15 14 14 15 15 14 13 11
13 13 13 12 11 11 11 12 12 13 13 13 13 13 12 12 11 9 9 8 9 10 11 11 12 13 14 14 14 15 15 15 15 17 18 17 16 15 14 15 15 15 13
12 13 14 13 12 11 12 12 12 13 13 14 14 14 13 13 13 12 12 11 11 10 11 12 12 12 12 14 14 15 15 15 16 16 17 18 17 16 16 15 15 14 14

GFSSE_con_lsi_018.txt.gz
Lid_Strength_Index
2 -0 -1 -1 -1 -1 -1 -1 -1 -1 -1 -1 -1 -1 -1 -1 -1 -1 -1 -1 -1 -1 -1 -1 -1 -1 -1 -2 -1 -1 -0 0 0 -1 -1 -1 -1 -1 -1 -1 -1 -1 -1
1 -0 -0 -1 -2 -1 -1 -1 -1 -1 -2 -1 -1 -1 -1 -1 -1 -1 -1 -1 -1 -1 -1 -1 -1 -1 -1 -1 -1 -1 -0 1 1 1 -0 -2 -2 -2 -1 -1 -2 -1 -1
0 -0 -0 -1 -1 -1 -1 -1 -1 -1 -1 -1 -1 -1 -1 -1 -1 -1 -1 -1 -1 -1 -1 -1 -1 -1 -1 -0 -0 0 1 1 1 1 1 0 -0 -2 -1 -2 -2 -1 -1
0 -0 -0 -0 -1 -1 -1 -1 -1 -1 -1 -1 -1 -1 -1 -1 -1 -1 -1 -1 -1 -1 -1 -1 -1 -1 -1 -0 0 1 1 2 1 0 2 1 -0 -1 -1 -1 -1 -1 -1
0 -0 -0 -0 -1 -1 -1 -1 -1 -1 -1 -1 -1 -1 -1 -1 -1 -1 -1 -1 -1 -1 -1 -1 -1 -1 0 1 2 3 3 2 1 1 1 0 0 -1 -1 -1 -1 -1 -2
0 -0 -0 -1 -1 -1 -1 -1 -1 -1 -1 -1 -1 -1 -1 -1 -1 -1 -1 -1 -1 -1 -1 -1 -1 0 1 2 2 2 1 0 1 1 2 1 0 -1 -1 -1 -1 -1 -2
1 0 -0 -0 -1 -1 -1 -1 -1 -1 -1 -2 -1 -2 -1 -2 -1 -2 -1 -1 -1 -1 -1 -1 -1 -1 0 2 2 1 1 1 2 2 4 3 1 -1 -1 -1 -1 -1 -1
2 1 0 1 0 -0 -1 -1 -1 -1 -1 -2 -1 -1 -2 -2 -2 -1 -1 -1 -1 -1 -1 -1 -1 -1 1 2 3 2 1 2 1 3 4 3 -1 -1 -1 -1 -1 -1 -1
1 1 1 0 1 1 1 0 -0 -1 -1 -1 -1 -1 -1 -1 -2 -1 -1 -1 -1 -1 -1 -1 -1 -0 1 2 3 3 1 2 4 3 2 2 -2 -1 -1 -1 -1 -1 -1
3 0 0 1 0 0 0 2 1 0 -0 -1 -0 0 1 0 -1 -1 -0 -2 -2 -1 -1 -1 -1 0 1 3 4 4 3 4 6 5 4 2 -2 -1 -1 -1 -1 -1 -1
3 2 1 0 1 1 1 1 2 2 1 1 1 2 3 2 1 1 1 -0 -2 -2 -2 -1 -1 0 2 5 5 4 6 10 7 7 5 2 1 0 0 -0 -0 -1 -1
4 3 2 1 1 1 0 1 1 -0 0 0 0 1 2 3 3 2 3 1 -1 -1 -2 -2 -1 1 5 10 10 7 11 11 9 9 6 2 2 2 1 0 0 -0 -1
6 4 2 2 1 1 0 0 2 0 1 2 2 2 3 2 3 3 4 3 3 1 1 1 2 6 9 10 11 11 11 11 10 10 6 3 2 2 1 1 -0 -1 -1
9 9 5 2 2 1 1 1 1 1 1 1 2 3 2 2 3 4 4 4 5 5 3 4 6 7 9 10 11 11 12 12 11 10 7 3 2 1 1 -0 -0 -0 -0
10 10 9 5 2 2 2 3 2 0 0 1 2 3 2 1 3 4 4 4 5 6 5 6 6 8 10 11 11 11 12 12 11 10 9 4 2 1 1 0 -0 -1 -1
11 10 9 9 4 2 2 3 3 2 2 2 3 2 2 0 2 4 4 5 6 6 6 6 7 10 11 11 11 11 12 12 11 9 9 7 2 1 1 0 0 -1 -1
12 11 10 8 7 2 3 3 4 4 3 3 3 3 3 2 2 3 4 5 4 6 7 7 8 10 11 11 12 12 12 11 11 10 9 8 6 3 2 2 1 -0 -0
12 12 10 8 6 4 3 3 3 4 4 4 3 2 3 3 3 4 4 4 4 5 8 9 9 11 12 12 13 13 12 12 12 11 10 8 8 7 5 3 2 1 0
13 12 11 10 9 6 4 4 4 4 4 4 2 2 2 3 4 4 5 4 5 6 8 9 11 11 12 13 13 13 13 12 12 11 11 10 11 9 9 6 5 5 3
13 12 12 11 10 8 6 5 5 6 4 3 2 2 2 3 4 4 5 6 6 7 9 11 11 12 12 12 12 13 13 13 13 13 12 12 12 11 10 9 10 9 5
13 12 12 12 12 10 9 8 8 8 8 6 4 4 3 2 3 4 4 5 6 7 8 9 12 12 13 13 14 14 14 14 13 14 13 13 13 12 12 11 11 10 9
14 13 13 12 12 12 11 10 9 10 9 8 8 8 8 5 5 4 6 7 7 8 9 10 11 13 13 13 14 15 16 15 14 14 14 13 14 13 13 12 12 11 10
14 14 13 12 12 12 12 11 12 11 12 12 12 12 11 9 7 6 6 7 8 9 9 10 11 11 12 14 14 14 17 17 16 15 14 14 14 14 14 13 12 12 11
15 14 13 13 13 12 12 12 13 13 14 14 13 13 13 12 12 12 10 8 9 9 10 10 11 12 12 13 15 13 14 15 16 17 15 15 15 14 15 14 14 13 12
14 15 15 13 13 13 13 12 13 13 13 13 13 13 13 13 13 13 13 13 12 10 10 11 11 12 12 13 13 15 16 15 16 17 17 17 16 15 14 14 14 14 13
14 14 14 14 14 14 14 14 14 14 14 14 14 15 15 14 14 14 14 14 14 13 13 12 11 12 12 12 13 13 14 15 16 16 18 17 18 17 16 16 15 14 14

GFSSE_con_lsi_021.txt.gz
Lid_Strength_Index
2 0 -1 -1 -1 -1 -1 -1 -1 -1 -1 -1 -1 -1 -1 -1 -1 -1 -1 -1 -1 -1 -1 -2 -1 -1 -1 -1 -1 -1 -0 -0 -0 -1 -1 -1 -1 -1 -1 -1 -1 -1 -1
1 -0 -0 -1 -1 -1 -1 -1 -1 -1 -1 -1 -1 -1 -1 -1 -1 -1 -1 -1 -1 -1 -1 -1 -1 -1 -1 -1 -1 -1 0 1 1 0 -1 -1 -2 -1 -1 -1 -1 -1 -1
0 -0 -0 -1 -1 -1 -1 -1 -1 -1 -1 -1 -1 -1 -1 -1 -1 -1 -1 -1 -1 -1 -1 -1 -1 -1 -1 -0 0 0 0 1 1 0 0 0 -0 -2 -1 -1 -2 -1 -1
0 -0 -0 -0 -1 -1 -1 -1 -1 -1 -1 -1 -1 -1 -1 -1 -1 -1 -1 -1 -1 -1 -1 -1 -1 -1 0 1 1 1 1 0 0 0 2 1 -0 -1 -1 -1 -1 -1 -1
0 -0 -0 -0 -1 -1 -1 -1 -1 -1 -1 -1 -1 -1 -1 -1 -1 -1 -1 -1 -1 -1 -1 -1 -1 -0 1 1 2 2 1 1 -0 -0 1 1 0 -1 -1 -1 -1 -1 -1
1 0 -0 -1 -1 -1 -1 -1 -1 -1 -1 -1 -1 -1 -1 -1 -1 -1 -1 -1 -1 -1 -1 -1 -1 0 2 2 2 1 1 -0 -1 1 3 1 0 -1 -1 -1 -1 -1 -2
1 0 0 -0 -1 -1 -1 -1 -1 -1 -1 -1 -1 -1 -1 -1 -1 -1 -1 -1 -1 -1 -1 -1 -0 -0 1 2 3 2 0 -1 1 3 4 3 1 -1 -1 -1 -1 -1 -1
1 1 0 1 1 -0 -1 -1 -1 -1 -1 -1 -1 -1 -2 -1 -1 -1 -1 -2 -1 -1 -1 -1 -0 -0 1 2 2 1 1 -0 1 4 4 3 -1 -1 -1 -1 -1 -2 -2
2 1 1 0 1 2 1 0 -0 -1 -1 -1 -1 -1 -1 -1 -1 -1 -2 -1 -2 -1 -1 -1 -0 -0 1 3 3 2 1 1 4 3 3 3 -2 -1 -1 -1 -1 -1 -1
3 1 1 1 -0 0 1 2 1 0 -0 -0 -0 0 1 1 0 -0 -0 -1 -2 -2 -1 -1 -0 0 1 4 4 3 3 3 6 5 4 2 -2 -1 -1 -1 -1 -1 -1
3 2 2 2 1 0 -0 1 2 2 1 1 1 1 2 1 1 2 2 -0 -2 -2 -2 -1 -1 0 2 4 5 4 6 8 8 7 5 1 0 -0 -0 -0 -1 -1 -1
6 4 3 2 2 2 0 1 1 0 0 -0 -0 -0 1 2 1 2 3 1 -0 -1 -2 -1 -1 0 5 10 11 8 11 10 9 9 7 2 1 1 0 0 -0 -0 -1
10 9 8 2 2 2 1 1 1 1 1 0 0 0 1 2 3 2 3 2 3 3 3 1 2 5 9 11 11 11 12 12 10 10 7 3 1 1 1 1 0 -0 -1
11 10 10 9 1 2 2 1 1 1 1 1 1 2 2 2 3 3 3 3 3 4 5 6 5 6 8 10 11 11 12 12 11 10 9 4 2 1 1 0 -1 -1 -1
12 11 11 10 6 1 2 3 2 1 0 2 2 2 3 4 2 2 3 3 3 4 5 7 7 7 9 11 11 12 12 12 12 10 10 5 3 1 1 -0 -0 -1 -1
12 12 11 10 8 4 2 3 3 1 1 1 1 2 3 4 3 2 3 4 4 4 5 7 7 7 10 11 11 12 12 12 12 10 10 8 3 1 0 0 -0 -1 -1
13 12 11 9 7 5 2 3 3 3 3 3 3 3 3 2 2 2 3 4 4 5 6 7 8 10 10 11 12 12 12 12 12 11 9 9 7 4 1 1 0 -0 -1
13 13 11 10 8 4 3 3 3 4 4 4 2 2 2 2 2 3 4 4 4 5 6 7 8 10 11 12 13 13 13 12 12 12 11 9 8 7 5 2 2 1 -1
14 13 12 11 10 7 5 5 5 5 3 3 2 2 2 2 3 3 4 4 5 6 6 7 9 9 11 12 12 13 13 13 12 11 12 11 9 8 8 6 4 5 3
14 13 13 12 11 9 7 7 7 7 5 5 5 4 3 3 3 3 4 4 5 6 7 8 9 11 11 12 12 13 14 13 13 13 13 12 11 11 10 9 9 8 5
14 13 13 13 13 12 10 9 9 10 8 9 9 9 7 5 4 4 5 5 6 6 7 8 10 10 11 12 14 14 14 13 13 13 13 13 13 12 12 11 10 10 9
15 14 13 13 13 12 12 11 11 11 11 12 12 12 12 11 10 7 7 7 7 8 8 9 10 11 11 12 13 14 15 14 14 14 14 13 13 13 13 13 12 11 11
16 15 14 14 13 13 12 12 12 12 12 13 13 13 13 13 12 12 11 10 9 9 9 9 10 11 11 12 13 12 14 16 16 15 15 14 14 14 14 14 13 12 12
16 15 14 14 14 13 13 13 13 14 14 14 14 13 14 13 14 13 13 13 12 11 10 10 10 11 12 12 12 12 13 14 15 15 15 15 15 14 14 14 14 13 13
16 16 16 15 15 14 14 14 15 15 15 15 15 15 14 14 14 14 14 14 14 13 13 13 12 11 11 12 12 13 14 14 15 15 16 16 16 15 14 14 14 14 13
16 16 15 15 15 15 15 15 15 16 16 16 16 16 16 15 15 14 14 15 15 15 14 14 14 13 13 12 12 13 13 14 14 15 16 16 16 16 16 15 15 14 14

GFSSE_con_lsi_024.txt.gz
Lid_Strength_Index
2 1 -1 -1 -1 -1 -1 -1 -1 -1 -1 -1 -1 -1 -1 -1 -1 -1 -1 -1 -1 -1 -2 -2 -1 -2 -2 -2 -1 -1 -1 -1 -1 -1 -1 -1 -1 -1 -1 -1 -1 -1 -1
1 1 -1 -1 -1 -1 -1 -1 -1 -2 -1 -1 -1 -1 -1 -1 -1 -1 -1 -1 -1 -2 -2 -1 -2 -2 -1 -1 -1 -1 0 0 -0 -1 -2 -1 -2 -2 -1 -1 -2 -1 -1
1 -0 -0 -1 -1 -1 -1 -1 -1 -2 -1 -1 -1 -1 -1 -1 -1 -1 -1 -2 -1 -1 -1 -1 -1 -1 -1 -0 -0 0 0 0 -1 -0 -1 -0 -0 -2 -1 -1 -2 -2 -1
0 -0 -0 -0 -1 -1 -1 -1 -1 -1 -1 -1 -1 -1 -1 -1 -1 -1 -1 -1 -1 -1 -2 -1 -1 -1 0 1 1 1 0 -0 -1 -1 1 0 -0 -1 -1 -1 -1 -2 -1
1 0 -0 -0 -1 -1 -1 -1 -1 -1 -2 -1 -1 -1 -1 -1 -1 -1 -1 -1 -1 -1 -2 -1 -1 -0 1 2 2 1 0 -0 -1 -0 1 1 0 -1 -1 -1 -1 -1 -2
1 0 0 -1 -1 -1 -1 -1 -1 -1 -1 -1 -1 -1 -1 -1 -1 -1 -1 -1 -1 -1 -2 -1 -1 -0 1 2 2 1 1 -1 0 2 2 1 0 -1 -1 -1 -1 -1 -2
1 1 1 -0 -1 -1 -1 -1 -1 -1 -1 -1 -1 -1 -1 -1 -1 -1 -1 -1 -1 -2 -2 -1 -1 0 0 2 2 2 1 -1 2 4 4 3 1 -1 -1 -1 -1 -1 -1
1 1 0 1 0 -0 -1 -1 -1 -1 -1 -1 -1 -1 -1 -1 -1 -1 -1 -1 -2 -3 -2 -1 -1 -0 0 2 1 1 -0 0 2 3 4 3 -1 -1 -1 -1 -1 -2 -2
2 2 1 1 1 2 1 0 -0 -1 -1 -1 -1 -1 -1 -1 -1 -1 -2 -2 -1 -2 -1 -1 -1 -0 1 2 2 1 0 1 4 3 3 3 -1 -1 -1 -1 -1 -1 -1
3 2 2 2 -0 -0 1 2 2 1 0 -0 -0 0 1 1 -0 0 -0 -1 -1 -1 -1 -1 -1 -0 1 3 3 2 2 4 6 5 4 2 -2 -1 -1 -1 -1 -1 -1
5 3 2 2 0 1 1 1 3 2 1 1 1 1 1 1 0 1 2 0 -1 -2 -2 -1 -0 -0 1 4 3 4 6 8 8 7 6 1 0 -0 -0 -0 -1 -1 -1
11 9 8 4 2 1 1 1 1 0 1 1 1 -0 0 0 1 1 2 1 -0 -0 -1 -1 -1 1 6 11 11 9 11 11 10 10 8 2 1 1 0 0 0 -0 -1
12 11 10 9 7 1 1 0 1 1 0 1 0 0 0 1 2 2 2 2 1 2 2 3 5 5 8 11 11 12 12 12 11 11 9 3 2 0 0 0 0 -0 -1
12 11 11 10 9 3 0 1 1 0 1 1 0 1 1 2 2 3 2 2 2 2 3 4 5 7 8 10 11 12 12 12 12 11 10 5 3 1 0 0 -0 -1 -1
13 12 11 10 9 8 1 1 1 1 1 1 0 1 1 2 2 2 2 3 3 3 3 4 5 7 8 10 11 11 12 12 12 11 10 7 3 1 -0 -0 -1 -1 -1
12 12 11 10 8 6 3 2 2 1 1 1 1 1 1 2 4 3 3 4 3 3 4 5 5 7 8 11 11 11 12 12 12 12 10 9 4 2 0 -1 -1 -1 -1
13 13 12 10 7 5 2 2 3 2 2 2 2 2 2 2 3 3 3 3 3 4 5 6 7 8 9 11 11 12 12 12 12 12 11 10 8 4 2 0 -0 -1 -1
14 13 12 11 9 5 3 3 3 3 3 3 2 2 2 1 2 2 3 4 4 4 5 6 7 8 8 10 11 12 13 13 12 12 12 11 9 8 6 3 1 1 -0
14 14 13 12 11 8 6 6 5 6 7 8 7 6 4 3 3 3 3 4 4 5 5 6 8 8 9 9 10 11 13 13 13 12 12 12 11 9 9 6 4 4 2
14 14 13 12 12 10 7 7 9 10 10 10 10 10 9 7 5 4 4 5 5 5 6 7 8 9 10 11 11 12 13 13 13 13 13 12 12 11 11 10 9 8 5
15 14 14 13 13 12 11 10 10 13 11 12 12 12 11 11 10 8 7 7 7 7 7 8 9 10 10 12 12 11 12 13 14 13 13 13 13 12 12 12 11 11 10
16 15 14 14 14 13 13 13 12 13 13 12 13 13 13 13 12 12 11 10 10 9 10 10 11 11 11 12 12 13 14 13 14 14 14 14 14 14 13 13 13 12 12
17 16 15 14 14 13 13 12 13 13 14 14 15 15 15 14 14 13 13 13 13 12 12 11 11 11 11 12 12 12 14 15 16 14 15 15 14 14 14 14 13 13 13
17 16 16 15 15 14 14 14 15 16 17 16 16 16 15 15 15 15 15 14 14 13 14 13 12 12 13 13 12 12 13 14 15 16 15 14 15 14 14 14 14 14 14
17 17 17 16 16 16 15 15 15 16 16 16 16 16 16 16 16 15 15 15 15 15 15 14 13 13 13 13 13 13 13 14 14 15 15 15 14 14 14 14 14 14 14
17 17 17 17 16 16 16 16 16 16 17 17 17 16 16 16 16 16 16 16 16 16 16 15 15 14 14 13 13 14 14 14 14 14 15 14 14 14 15 15 15 15 14

GFSSE_con_lsi_027.txt.gz
Lid_Strength_Index
0 0 -1 -2 -1 -1 -1 -1 -1 -2 -2 -1 -1 -1 -1 -1 -1 -2 -2 -1 -2 -2 -2 -2 -2 -2 -2 -2 -1 -1 -1 -1 -1 -1 -1 -2 -2 -2 -1 -1 -1 -1 -1
-0 -0 -1 -1 -1 -1 -1 -1 -2 -2 -2 -1 -1 -1 -1 -1 -1 -1 -1 -2 -2 -2 -2 -2 -2 -2 -1 -1 -1 -0 -0 -1 -1 -2 -2 -2 -2 -2 -2 -2 -2 -1 -2
-0 -1 -1 -1 -1 -1 -1 -1 -2 -2 -2 -1 -1 -1 -1 -1 -1 -1 -1 -2 -2 -2 -2 -2 -2 -2 -1 -0 0 -0 -0 -1 -1 -1 -1 -1 -1 -2 -2 -2 -2 -2 -2
-0 -1 -1 -0 -1 -1 -1 -1 -2 -2 -2 -1 -1 -1 -1 -1 -1 -1 -1 -2 -1 -2 -2 -2 -2 -1 -0 1 1 1 1 -1 -2 -1 -1 -1 -1 -1 -2 -2 -2 -2 -2
-0 -1 -1 -0 -1 -1 -2 -1 -2 -2 -2 -1 -1 -1 -1 -1 -1 -1 -1 -1 -1 -1 -2 -2 -2 -0 1 2 2 1 1 -1 -1 -1 -1 -1 -1 -1 -2 -2 -1 -1 -2
-0 -1 -1 -1 -1 -1 -1 -2 -1 -1 -1 -1 -1 -1 -1 -1 -1 -1 -1 -1 -2 -2 -2 -2 -1 -0 1 2 2 2 -0 -1 -1 -1 -1 -1 -1 -1 -1 -1 -1 -2 -2
-0 -1 -1 -1 -1 -1 -1 -2 -2 -1 -1 -1 -1 -1 -1 -1 -1 -1 -1 -1 -1 -3 -2 -2 -2 -0 1 2 2 2 -0 0 -0 0 0 -1 -1 -2 -2 -2 -1 -2 -2
-0 -0 -1 1 0 -0 -1 -1 -2 -2 -2 -2 -2 -2 -1 -1 -1 -1 -1 -1 -2 -3 -2 -2 -1 -1 0 2 1 0 -0 1 1 1 1 0 -1 -1 -1 -2 -2 -2 -2
1 0 -0 -1 0 2 1 -0 -1 -1 -1 -1 -1 -1 -1 -1 -2 -2 -2 -2 -1 -2 -2 -2 -1 -1 0 2 1 0 0 1 1 1 1 -0 -2 -2 -2 -2 -2 -2 -2
5 3 1 0 -1 -1 -1 2 1 0 -0 -0 -0 -0 1 0 -0 -0 0 -1 -1 -1 -1 -2 -1 -1 0 2 2 3 3 4 3 2 1 -0 -1 -2 -1 -1 -2 -1 -1
8 8 7 6 1 -0 -0 0 3 2 1 1 1 1 1 -1 -1 -0 1 -0 -1 -1 -1 -1 -0 -0 2 5 4 5 6 5 5 5 4 1 -1 -1 -0 -1 -1 -1 -1
10 9 8 8 8 4 1 -1 1 -0 -1 -1 -1 -1 -1 -1 -0 -0 1 1 -0 -1 -1 -1 1 3 5 8 7 7 7 7 6 6 5 2 1 -0 0 -0 -0 -0 -1
11 10 9 8 7 7 2 -0 -0 -1 -1 -1 -1 -1 -1 -0 0 1 1 1 0 1 0 1 3 3 5 7 7 8 8 8 7 7 7 4 2 1 -0 -0 -0 -1 -1
11 10 9 8 7 6 3 0 0 -0 -0 -0 -0 -0 -0 0 1 1 2 1 1 1 2 2 3 3 5 7 7 8 8 8 8 7 7 6 3 1 -0 -0 -0 -1 -1
12 11 10 9 7 5 4 -0 -0 -0 -0 -1 -1 -0 1 1 2 2 1 1 1 2 2 3 4 4 4 6 8 8 8 8 8 8 7 7 4 2 0 -1 -1 -1 -1
12 11 10 9 6 4 3 0 1 0 0 0 1 0 1 1 1 2 2 2 2 1 1 3 4 4 5 6 7 8 8 8 8 8 8 7 5 3 1 -1 -1 -1 -1
12 12 11 9 6 2 1 1 1 1 2 2 2 2 2 1 1 2 2 2 2 2 3 4 5 5 6 7 7 8 8 8 8 8 8 7 6 5 4 1 -0 -1 -2
13 12 11 10 6 4 3 4 6 7 7 7 7 5 5 4 3 3 3 3 3 3 4 5 6 6 6 7 7 7 8 8 8 8 8 8 7 7 5 4 2 1 0
13 12 11 10 9 6 7 8 10 10 10 9 9 8 7 6 4 5 5 5 4 5 5 6 7 7 7 8 9 8 9 8 8 9 8 9 8 7 7 6 5 5 3
13 13 12 11 10 7 8 10 10 10 10 11 11 10 10 9 7 7 7 6 6 6 6 6 7 8 9 10 10 10 9 9 9 9 9 9 9 9 8 8 7 6 6
14 13 13 12 11 9 9 9 11 12 12 12 12 12 11 11 10 9 9 9 8 8 9 8 8 8 9 9 9 8 8 9 10 10 10 10 10 10 9 9 8 8 8
15 14 13 13 12 11 11 11 11 12 13 13 13 14 13 12 12 11 11 11 11 10 10 10 10 9 9 10 10 10 10 9 10 10 10 11 11 11 10 10 10 10 9
16 16 15 14 13 12 11 11 12 12 13 14 14 15 14 14 13 13 13 13 12 12 12 11 11 11 11 10 10 11 11 12 12 10 10 10 10 10 10 11 10 10 10
16 16 16 15 15 14 14 14 14 15 16 15 15 15 15 14 14 14 13 14 14 13 14 13 12 12 10 12 10 10 10 12 13 13 10 9 10 10 10 9 10 10 10
16 16 16 16 16 15 15 14 15 16 15 15 15 15 15 15 14 14 14 14 14 14 14 14 14 14 13 13 12 11 11 11 12 13 13 12 10 9 9 10 10 10 10
16 16 16 16 16 16 15 15 15 15 15 15 15 15 15 15 15 15 15 14 15 15 15 14 14 15 15 15 14 14 14 13 14 13 14 13 13 11 10 10 10 10 10

GFSSE_con_lsi_030.txt.gz
Lid_Strength_Index
0 -1 -1 -2 -1 -1 -1 -1 -1 -2 -1 -1 -1 -1 -1 -1 -1 -1 -1 -2 -2 -2 -2 -2 -2 -2 -2 -2 -2 -1 -1 -1 -1 -1 -1 -2 -2 -1 -1 -2 -1 -1 -1
-1 -1 -1 -1 -2 -1 -1 -1 -2 -2 -2 -1 -1 -1 -1 -1 -1 -1 -1 -2 -2 -2 -2 -2 -2 -2 -1 -1 -1 -1 -1 -1 -1 -2 -2 -2 -2 -2 -2 -2 -2 -1 -1
-1 -1 -1 -1 -2 -2 -2 -2 -2 -2 -1 -1 -1 -1 -1 -1 -1 -1 -1 -2 -2 -2 -2 -2 -2 -1 -1 -0 -0 -1 -1 -1 -1 -1 -2 -1 -1 -1 -1 -1 -2 -2 -2
-1 -1 -1 -1 -1 -2 -2 -2 -2 -2 -1 -1 -1 -1 -1 -1 -1 -1 -1 -1 -1 -2 -2 -2 -2 -1 0 1 0 0 -1 -1 -1 -1 -1 -1 -1 -1 -1 -1 -1 -2 -2
-1 -1 -1 -1 -1 -2 -1 -2 -2 -1 -2 -1 -1 -1 -1 -1 -1 -1 -1 -1 -1 -2 -2 -2 -2 -1 0 1 1 1 -1 -1 -1 -1 -1 -1 -1 -1 -1 -1 -1 -1 -2
-1 -1 -1 -1 -1 -1 -2 -1 -1 -1 -1 -1 -1 -1 -1 -1 -1 -1 -1 -1 -2 -2 -2 -2 -2 -0 1 1 1 0 -1 -1 -1 -1 -1 -1 -1 -1 -1 -1 -1 -1 -2
-0 -1 -1 -1 -1 -1 -1 -2 -2 -1 -1 -1 -1 -1 -1 -1 -1 -1 -1 -1 -1 -2 -2 -2 -2 -1 1 1 1 0 0 0 -0 -1 -1 -1 -1 -1 -2 -2 -1 -1 -1
-0 -1 -1 0 0 -1 -1 -1 -2 -2 -2 -2 -1 -1 -1 -1 -1 -1 -1 -1 -2 -2 -2 -2 -2 -1 1 1 0 -0 0 1 1 -0 -1 -1 -1 -1 -1 -1 -1 -1 -1
-0 -1 -1 -1 -1 2 0 -0 -1 -1 -1 -2 -2 -2 -1 -1 -2 -1 -2 -2 -2 -2 -2 -2 -2 -1 1 1 1 1 1 1 -0 -1 -1 -2 -2 -1 -1 -1 -1 -1 -1
4 4 4 -0 -1 -0 -1 2 2 0 -1 -1 -1 -1 0 0 -1 -0 -0 -1 -1 -2 -1 -1 -0 -1 1 2 2 3 3 2 1 1 -0 -1 -1 -1 -1 -1 -1 -1 -1
5 5 4 5 3 1 -0 0 2 2 1 1 0 1 1 -2 -1 -1 0 -1 -2 -2 -1 -1 0 2 3 5 4 5 4 4 3 3 3 2 -0 -0 -0 -1 -0 -1 -1
6 6 5 4 4 3 0 -1 -1 -1 -2 -1 -1 -1 -2 -1 -1 -1 1 1 0 -1 -2 -1 0 2 3 4 5 5 5 5 4 4 4 2 1 -0 -1 -0 -0 -1 -1
7 6 5 5 4 4 0 -1 -1 -1 -1 -1 -1 -1 -1 -1 -1 -0 -0 -0 -1 1 -1 -0 1 -1 1 3 4 5 5 5 5 5 5 4 2 0 -1 -1 -1 -1 -1
7 6 5 4 3 3 3 -1 -1 -1 -1 -1 -2 -1 -2 -1 -1 -0 0 -0 0 -0 0 1 1 1 1 3 4 4 5 5 5 5 4 5 4 1 -0 -1 -1 -1 -1
7 6 5 4 3 2 2 -1 -1 -1 -1 -1 -1 -1 -1 -1 -1 -1 -0 0 -0 0 -0 1 2 3 2 2 4 5 5 5 5 5 5 5 5 3 1 -1 -2 -2 -1
7 6 5 4 3 2 1 -0 -0 -0 0 1 1 0 1 0 0 0 1 -0 0 1 1 2 3 4 4 5 3 4 4 5 5 5 5 4 6 4 3 1 -1 -2 -2
7 6 7 6 2 -0 -0 2 4 4 4 4 3 3 3 1 1 1 2 3 2 2 3 3 4 4 4 4 5 5 4 4 4 5 5 5 5 4 4 3 2 -0 -1
8 7 8 6 5 5 6 7 8 7 7 7 6 5 4 3 3 3 3 4 4 4 5 5 5 5 5 4 3 4 6 5 5 5 5 5 5 5 4 4 3 2 1
8 8 8 7 6 7 9 9 9 9 9 8 7 7 7 5 5 5 4 4 4 5 4 5 5 6 6 6 7 7 7 7 5 5 5 6 6 6 6 5 6 5 4
9 8 9 8 7 8 9 10 9 9 8 8 8 8 8 7 6 5 6 5 5 4 5 4 5 5 6 6 7 7 4 5 5 5 6 7 7 7 7 7 6 6 6
9 8 8 8 8 7 8 8 8 9 9 9 9 8 8 7 7 6 6 6 6 6 6 6 5 6 7 7 5 5 5 6 7 6 6 7 7 7 7 7 7 7 7
10 9 8 9 9 7 7 8 8 10 11 11 11 11 10 10 9 9 8 8 8 8 8 7 7 6 7 7 8 7 7 6 7 6 7 8 7 7 7 7 7 7 7
11 11 10 9 9 8 9 9 10 10 11 11 12 12 12 11 11 11 11 11 10 10 10 9 8 8 8 7 8 8 9 9 9 7 8 7 8 7 7 7 7 7 7
12 11 11 10 10 10 9 9 9 10 12 13 13 12 12 12 12 11 11 12 11 11 11 11 11 10 10 11 9 9 8 9 10 11 8 8 9 10 10 8 9 8 7
12 12 12 12 12 11 11 11 11 12 12 12 12 12 12 12 12 12 11 12 12 12 11 12 11 12 12 12 12 12 11 11 10 13 14 13 12 11 9 10 9 9 8
13 13 12 12 13 12 11 11 12 12 12 12 12 13 13 12 12 12 12 12 12 12 12 12 12 12 12 12 12 11 12 13 13 13 14 14 14 12 11 11 10 9 8

GFSSE_con_lsi_036.txt.gz
Lid_Strength_Index
1 -0 -1 -1 -1 -1 -1 -1 -2 -2 -2 -1 -1 -1 -1 -1 -1 -2 -2 -2 -2 -2 -2 -2 -2 -2 -2 -2 -2 -2 -1 -1 -1 -1 -2 -2 -2 -2 -2 -2 -1 -1 -1
0 -0 -1 -1 -2 -2 -2 -2 -1 -1 -2 -1 -1 -1 -1 -1 -1 -2 -2 -2 -2 -2 -2 -2 -2 -1 -1 -2 -2 -2 -1 -1 -2 -2 -2 -2 -2 -2 -2 -2 -2 -1 -2
0 -1 -1 -1 -1 -1 -1 -2 -2 -1 -2 -1 -1 -1 -1 -1 -1 -2 -2 -2 -2 -2 -2 -2 -2 -1 -0 -1 -1 -2 -2 -1 -2 -2 -2 -1 -1 -2 -2 -2 -2 -2 -2
0 -0 -1 -1 -1 -1 -2 -2 -2 -2 -2 -1 -1 -2 -1 -1 -1 -1 -1 -2 -2 -2 -2 -2 -2 -1 -1 -1 -1 -2 -2 -2 -2 -2 -0 -1 -1 -2 -2 -2 -2 -2 -2
0 -0 -1 -1 -2 -2 -2 -2 -2 -2 -2 -2 -1 -1 -1 -1 -1 -1 -2 -2 -2 -2 -2 -2 -2 -1 -1 -1 -1 -2 -2 -2 -2 -1 -0 -0 -1 -1 -2 -2 -2 -2 -2
1 -0 -0 -1 -2 -2 -2 -2 -1 -2 -2 -1 -1 -1 -1 -1 -1 -1 -2 -2 -2 -2 -2 -2 -2 -1 -1 -1 -1 -1 -1 -1 -1 0 -0 -1 -1 -2 -2 -2 -2 -2 -2
1 -0 -1 -1 -1 -2 -2 -2 -2 -1 -1 -1 -2 -1 -1 -1 -1 -2 -2 -2 -2 -2 -2 -2 -2 -1 -1 -1 -2 -2 -1 -1 1 1 0 1 -0 -2 -2 -2 -2 -2 -2
1 0 -1 0 0 -0 -1 -2 -2 -2 -2 -2 -2 -1 -1 -1 -2 -2 -2 -2 -2 -2 -2 -1 -2 -0 -0 0 0 0 0 -1 0 1 0 1 -2 -2 -2 -2 -2 -2 -2
4 1 0 -0 0 2 1 0 -1 -1 -1 -2 -2 -2 -2 -2 -2 -2 -2 -2 -2 -2 -2 -1 -0 1 1 2 2 2 1 0 4 2 2 1 -2 -2 -2 -2 -2 -2 -2
4 4 5 2 -1 -0 -0 2 2 1 -0 -1 -1 -1 -0 -1 -1 -1 -1 -2 -2 -2 -2 -2 -1 1 3 2 3 2 2 2 6 5 4 2 -1 -2 -2 -2 -2 -2 -2
5 5 4 4 3 0 -0 1 2 3 2 1 0 1 2 -0 -0 0 0 -1 -2 -2 -2 -1 -0 1 3 3 2 2 3 7 7 6 6 1 -0 -1 -2 -2 -2 -2 -2
7 6 5 5 4 4 0 0 -1 -0 -0 -0 0 0 -0 -0 -1 0 1 0 -1 -1 -2 -1 -0 0 1 5 7 5 7 7 7 7 6 2 1 -1 -2 -2 -2 -2 -2
8 6 5 5 4 4 3 0 -0 0 0 -0 -0 -0 0 0 0 1 1 1 0 1 0 0 1 1 2 4 5 7 8 8 8 7 4 3 2 1 -1 -2 -2 -2 -2
7 6 5 4 4 3 4 2 -0 0 0 1 1 0 0 0 0 0 1 0 0 1 1 1 3 3 2 3 5 6 7 8 9 8 7 4 3 2 1 -1 -2 -2 -2
7 5 5 4 3 3 3 1 0 2 3 3 2 1 0 0 1 0 0 0 0 1 1 1 2 4 5 3 4 5 6 7 7 8 8 5 4 4 2 0 -1 -2 -2
6 6 5 4 2 2 2 3 4 3 4 4 3 2 1 1 2 2 3 2 3 2 2 3 4 4 5 4 4 4 5 5 6 7 7 7 5 4 4 2 2 0 -0
6 6 6 4 4 4 5 6 5 5 5 4 4 3 3 2 2 3 4 4 4 4 4 4 4 4 5 4 4 4 4 5 5 6 6 7 7 5 4 4 4 3 3
7 7 5 5 6 6 6 6 7 6 6 6 6 5 5 4 4 4 5 5 4 4 4 5 5 5 4 5 5 5 5 5 5 5 6 7 8 8 7 5 5 4 4
8 7 6 6 7 7 7 7 7 7 7 7 6 6 5 5 5 5 5 5 4 4 4 4 5 6 7 8 7 7 6 7 6 7 8 8 8 8 9 6 5 5 4
8 7 7 7 8 8 7 7 8 8 8 7 8 8 7 6 6 6 6 6 6 7 7 7 7 7 8 9 7 6 6 7 7 8 8 7 8 9 9 8 8 8 5
8 7 7 8 8 7 8 8 8 10 11 11 10 10 10 9 8 9 9 9 9 10 10 9 7 8 9 10 8 8 8 8 8 8 8 9 11 11 10 10 11 11 9
9 8 8 7 7 7 7 8 9 10 12 12 12 12 12 11 11 11 11 12 12 12 12 12 12 10 10 11 11 9 10 9 9 8 10 10 12 12 11 11 12 11 10
9 9 9 8 7 8 9 10 11 12 12 13 14 14 13 13 12 12 13 13 13 13 13 14 14 13 14 12 12 11 12 13 12 9 12 12 13 13 13 11 12 11 11
11 9 8 8 9 9 10 11 12 13 14 14 14 14 14 14 13 13 13 13 13 13 14 14 13 14 13 14 13 12 13 13 15 16 13 13 12 11 12 12 13 11 11
12 11 10 11 11 10 10 11 13 14 14 15 15 15 15 15 14 14 14 14 14 14 14 14 14 14 14 14 14 14 14 14 15 16 17 16 14 13 12 12 12 11 11
13 13 12 12 12 12 12 13 14 15 15 15 15 16 16 16 15 15 14 15 15 15 14 14 14 14 14 14 14 14 14 15 15 15 16 16 16 14 11 11 11 10 10

GFSSE_con_lsi_039.txt.gz
Lid_Strength_Index
1 -0 -1 -2 -1 -1 -1 -1 -2 -2 -2 -2 -2 -1 -1 -2 -2 -2 -2 -2 -2 -2 -2 -2 -2 -2 -2 -2 -2 -2 -2 -2 -1 -2 -2 -2 -2 -2 -2 -2 -1 -1 -1
-0 -1 -0 -1 -2 -2 -2 -2 -2 -2 -2 -2 -1 -1 -1 -2 -2 -2 -2 -2 -2 -2 -2 -2 -2 -1 -1 -2 -2 -2 -2 -2 -2 -2 -2 -2 -2 -2 -2 -2 -2 -1 -2
-0 -1 -1 -1 -2 -2 -2 -2 -2 -2 -2 -1 -1 -2 -1 -1 -2 -2 -2 -2 -2 -2 -2 -2 -2 -1 -1 -2 -2 -2 -2 -2 -2 -1 -2 -0 -0 -2 -2 -2 -2 -2 -2
-0 -1 -1 -1 -2 -2 -2 -2 -2 -2 -2 -2 -2 -2 -1 -2 -2 -2 -2 -2 -2 -2 -2 -2 -2 -2 -2 -2 -2 -2 -2 -2 -2 -1 -1 -1 -1 -2 -2 -2 -2 -2 -2
-0 -0 -1 -1 -2 -2 -2 -2 -2 -2 -2 -2 -2 -2 -2 -2 -2 -2 -2 -2 -2 -2 -2 -2 -2 -2 -2 -2 -2 -2 -2 -1 -1 -1 -0 -0 -0 -1 -2 -2 -2 -2 -2
0 -0 -0 -1 -2 -2 -2 -2 -2 -2 -2 -1 -1 -2 -2 -2 -2 -2 -2 -2 -2 -2 -2 -2 -2 -2 -2 -2 -2 -2 -1 -1 -0 0 1 0 -0 -2 -2 -2 -2 -2 -2
1 -0 -0 -1 -1 -2 -2 -2 -2 -2 -2 -2 -1 -1 -2 -1 -2 -2 -2 -2 -2 -2 -2 -2 -1 -1 -0 -1 -1 -1 -1 -1 2 1 2 0 -0 -2 -2 -2 -2 -2 -2
1 -0 -1 1 0 -1 -2 -2 -2 -2 -2 -2 -2 -2 -2 -2 -2 -2 -2 -2 -2 -2 -2 -1 -0 0 1 1 1 0 -0 -0 1 2 2 1 -3 -2 -2 -2 -2 -2 -2
6 4 0 -0 1 2 1 0 -1 -1 -2 -2 -2 -2 -2 -2 -2 -2 -2 -2 -2 -2 -2 -2 -0 1 1 2 2 1 0 1 5 5 2 2 -2 -2 -2 -2 -2 -2 -2
9 8 7 5 -0 -0 0 3 2 0 -0 -1 -1 -0 -0 -0 -1 -1 -1 -2 -2 -2 -2 -1 0 2 2 3 2 1 2 3 6 6 4 2 -1 -2 -2 -2 -2 -2 -2
6 7 8 8 7 4 -0 1 2 2 1 1 1 1 2 -0 -0 -0 -0 -1 -2 -2 -2 -1 -0 1 3 3 2 2 5 9 8 8 6 0 -1 -2 -2 -2 -2 -2 -2
8 7 6 6 6 6 2 -0 -0 -0 0 0 -0 0 -0 -0 -0 -0 1 0 -1 -1 -2 -1 -1 0 2 6 7 5 8 9 9 8 6 2 1 -0 -2 -2 -2 -2 -2
8 6 5 5 5 5 5 1 -0 -0 1 1 0 0 -0 1 1 1 2 1 1 1 0 1 1 2 4 5 6 7 8 8 9 8 5 3 2 1 0 -1 -2 -2 -2
7 6 5 4 4 4 5 3 -0 1 2 2 2 1 0 0 1 1 1 -0 0 1 2 2 3 3 4 3 5 6 7 8 8 8 7 3 3 2 1 0 -0 -1 -2
7 7 6 4 4 3 4 1 2 4 4 3 3 1 1 1 0 0 0 1 1 2 1 3 3 4 5 4 4 5 5 6 7 7 8 4 2 2 1 1 2 1 1
7 7 6 5 4 3 2 3 4 5 4 3 4 3 2 2 2 3 3 3 3 3 3 4 4 5 5 4 4 4 4 4 5 6 7 6 3 3 2 2 2 2 2
7 7 6 5 4 5 5 5 6 5 5 6 5 4 3 3 4 4 4 4 3 4 4 4 4 4 4 4 5 5 5 4 4 6 7 7 7 4 3 2 2 2 2
8 7 6 6 6 6 6 6 6 6 5 5 5 5 4 4 4 5 5 5 4 4 5 6 5 6 7 8 7 7 6 6 7 7 7 7 8 8 6 7 5 4 3
8 8 7 7 7 7 7 7 7 6 6 6 6 6 6 6 5 5 6 6 6 7 6 6 8 9 10 9 8 8 7 8 9 8 9 10 10 10 9 8 8 6 4
8 8 8 7 8 7 7 8 8 9 9 9 9 9 9 8 7 8 8 9 9 9 9 8 9 10 11 11 7 8 9 9 9 9 10 11 11 11 11 11 12 10 6
9 9 8 8 8 7 8 9 10 11 11 11 11 12 11 10 10 10 10 11 12 12 12 10 9 13 13 13 10 9 9 9 10 10 12 12 12 11 12 11 12 11 10
10 9 8 8 8 7 7 8 10 11 13 13 13 13 13 12 12 12 13 13 14 14 14 14 13 13 14 14 12 11 12 10 11 11 12 13 13 12 12 11 12 11 11
11 10 8 7 7 9 10 11 12 12 13 14 15 15 14 14 13 13 14 14 14 14 15 15 15 15 15 14 14 12 15 15 14 11 14 14 14 13 13 12 12 11 10
11 10 8 8 9 10 10 12 13 14 15 16 16 16 15 15 14 14 14 14 15 15 15 15 15 15 15 16 15 14 15 14 17 18 15 15 14 13 14 13 13 11 10
11 11 9 10 10 11 11 12 13 15 15 15 16 16 16 16 15 15 15 15 15 15 16 16 16 16 16 16 16 16 16 16 17 18 19 17 15 13 13 13 12 12 10
13 13 12 11 11 11 12 14 14 15 16 16 16 17 17 16 16 16 16 16 16 16 16 16 16 16 16 16 16 16 16 17 17 18 18 17 16 15 13 12 12 12 11

GFSSE_con_lsi_042.txt.gz
Lid_Strength_Index
1 0 -1 -1 -1 -1 -1 -1 -1 -1 -2 -2 -1 -1 -2 -2 -2 -2 -2 -2 -2 -2 -2 -2 -2 -2 -2 -2 -2 -2 -2 -2 -1 -2 -2 -2 -2 -2 -2 -2 -1 -1 -1
-0 -0 -1 -1 -2 -1 -1 -1 -1 -1 -2 -1 -1 -1 -2 -2 -2 -2 -2 -2 -2 -2 -2 -2 -1 -1 -2 -2 -2 -2 -2 -2 -1 -2 -2 -2 -2 -2 -2 -2 -2 -1 -2
-0 -1 -1 -1 -1 -1 -1 -2 -2 -2 -2 -2 -2 -1 -2 -2 -2 -2 -2 -2 -2 -2 -2 -2 -2 -2 -2 -2 -2 -2 -2 -1 -2 -2 -2 -0 -1 -2 -2 -2 -2 -2 -2
-0 -1 -1 -1 -2 -2 -2 -2 -2 -2 -2 -2 -1 -2 -2 -2 -2 -2 -2 -2 -2 -2 -2 -2 -2 -2 -2 -2 -2 -2 -2 -2 -1 -1 -0 -1 -1 -2 -2 -2 -2 -2 -2
-0 -0 -0 -1 -2 -2 -2 -2 -2 -2 -2 -2 -1 -2 -2 -2 -2 -2 -2 -2 -2 -2 -3 -2 -2 -2 -2 -2 -2 -2 -2 -2 -1 0 1 -0 -1 -1 -2 -2 -2 -2 -2
0 -0 -0 -1 -2 -2 -2 -2 -2 -2 -2 -2 -2 -2 -2 -2 -2 -2 -2 -2 -2 -2 -2 -2 -1 -1 -1 -2 -2 -2 -2 -1 0 2 1 0 -0 -2 -2 -2 -2 -2 -1
0 -0 -0 -1 -1 -2 -2 -2 -2 -2 -2 -1 -2 -2 -2 -2 -2 -2 -2 -2 -2 -2 -2 -1 -0 0 -0 -1 -1 -1 -2 -1 2 2 1 1 -0 -2 -2 -2 -2 -2 -2
0 -0 -0 1 -0 -1 -2 -2 -2 -2 -2 -2 -2 -2 -2 -2 -2 -2 -2 -2 -2 -2 -2 -1 0 1 1 0 0 0 1 2 4 3 3 2 -2 -2 -2 -2 -2 -2 -2
6 3 0 0 1 0 -0 -0 -1 -1 -2 -2 -2 -2 -2 -2 -2 -2 -2 -2 -2 -2 -2 -1 1 2 2 2 2 2 2 4 7 5 3 2 -2 -2 -2 -2 -2 -2 -2
9 8 8 3 0 0 1 2 1 -0 -1 -1 -1 -0 -0 -1 -1 -1 -1 -2 -2 -2 -1 -1 0 1 2 2 2 2 3 4 8 6 5 1 -2 -2 -2 -2 -2 -2 -2
10 9 9 8 6 0 -0 1 2 1 0 1 1 1 1 0 -0 -0 0 -1 -2 -2 -2 -1 -0 1 2 2 2 3 5 9 8 7 5 -0 -1 -2 -2 -2 -2 -2 -2
9 9 9 9 8 6 2 -0 -0 -0 1 0 0 1 -0 1 -0 -0 1 0 -1 -1 -2 -2 -0 1 4 7 7 6 9 9 8 8 5 1 0 -1 -2 -2 -2 -2 -2
8 7 5 5 5 8 7 1 0 -0 0 1 1 1 -0 0 0 1 1 1 1 1 2 2 3 3 5 6 7 8 8 9 9 8 4 1 1 -1 -1 -1 -1 -1 -2
8 7 6 5 4 4 6 3 1 1 1 3 2 1 1 1 2 1 2 1 1 1 3 4 4 4 4 5 6 6 7 8 8 8 5 2 1 -0 -1 -0 0 0 -0
7 8 6 5 4 3 4 2 2 4 3 3 4 2 1 1 1 1 2 1 2 1 2 4 4 4 5 4 5 5 6 7 7 7 6 3 2 1 0 -0 -0 -0 -0
7 8 6 5 4 3 2 3 4 4 4 4 4 3 3 2 2 3 3 3 3 2 3 4 4 5 4 5 5 5 5 6 7 8 8 7 3 5 3 2 1 0 -0
7 7 6 5 5 4 4 4 5 5 4 5 5 4 4 4 4 4 4 4 4 4 4 4 5 5 6 5 6 5 6 8 8 8 8 9 9 7 6 5 4 2 1
8 7 7 6 6 7 5 5 6 6 6 6 5 5 5 5 4 4 4 4 4 4 4 6 7 9 9 9 8 8 9 9 9 11 11 11 12 10 10 7 6 4 3
8 8 8 7 7 7 6 6 7 6 6 6 5 5 5 6 6 6 7 7 7 7 8 9 10 10 10 9 8 9 10 10 11 12 12 12 13 13 13 10 8 7 4
9 9 9 8 7 7 7 8 8 9 9 9 8 8 8 8 8 9 10 10 9 9 10 11 13 13 12 10 9 10 10 11 12 14 14 13 14 13 13 14 13 11 7
10 10 9 9 8 8 8 9 9 10 11 11 11 10 11 10 10 11 12 12 12 11 11 11 13 14 14 13 10 11 12 12 13 14 15 15 14 14 13 14 13 13 11
10 10 10 9 9 8 7 9 10 12 13 13 13 13 13 13 13 13 14 14 14 14 15 14 14 14 15 15 12 12 13 12 14 15 15 15 16 15 14 14 14 13 12
11 10 10 9 8 8 10 11 13 13 13 14 15 15 15 14 14 14 15 15 15 15 16 16 15 15 16 16 16 13 16 16 15 13 16 16 16 16 16 15 14 13 12
10 10 9 9 9 11 11 12 13 14 15 15 16 16 15 15 15 15 15 15 15 15 16 16 16 16 16 17 16 15 17 16 18 19 17 17 16 16 16 15 15 13 12
11 11 10 10 11 11 11 12 13 16 16 16 16 16 16 16 16 15 16 16 16 16 16 17 17 17 17 17 17 17 18 18 18 18 20 19 17 16 16 15 15 13 12
12 12 12 12 11 11 12 13 14 16 16 16 17 17 17 17 17 17 16 17 17 17 17 17 17 17 17 17 17 17 17 19 19 19 19 19 19 17 16 15 14 13 13

GFSSE_con_lsi_045.txt.gz
Lid_Strength_Index
1 0 -1 -2 -1 -1 -1 -1 -1 -2 -1 -1 -1 -2 -2 -2 -2 -2 -2 -2 -2 -2 -2 -2 -2 -2 -2 -2 -2 -2 -1 -1 -2 -2 -2 -2 -2 -2 -2 -2 -2 -1 -2
0 -0 -1 -1 -2 -1 -1 -1 -2 -2 -1 -1 -1 -2 -2 -2 -2 -2 -2 -2 -2 -2 -1 -1 -1 -1 -2 -2 -2 -2 -2 -2 -1 -1 -2 -2 -2 -2 -2 -2 -2 -1 -2
0 -0 -1 -1 -1 -1 -2 -1 -1 -1 -2 -1 -1 -2 -2 -2 -2 -2 -2 -2 -2 -2 -2 -2 -2 -2 -2 -2 -2 -2 -2 -2 -1 -1 -1 -0 -1 -2 -2 -2 -2 -2 -2
-0 -0 -0 -1 -1 -2 -2 -2 -2 -2 -2 -1 -2 -2 -2 -2 -2 -2 -2 -2 -2 -2 -3 -2 -2 -3 -2 -2 -2 -2 -2 -1 -1 -0 0 -0 -1 -2 -2 -2 -2 -2 -2
0 -0 -0 -1 -1 -2 -2 -2 -2 -2 -2 -1 -1 -2 -2 -2 -2 -2 -2 -2 -2 -2 -2 -2 -2 -2 -2 -2 -2 -2 -2 -1 -1 0 1 -1 -0 -2 -2 -2 -2 -2 -2
0 -0 -0 -1 -1 -1 -2 -2 -2 -2 -1 -1 -2 -2 -2 -2 -2 -2 -2 -2 -2 -2 -1 -1 -1 -2 -2 -2 -2 -2 -2 -1 0 2 1 -0 0 -2 -3 -2 -2 -2 -2
0 0 -0 -1 -1 -2 -2 -2 -2 -2 -1 -1 -2 -2 -2 -2 -2 -2 -2 -2 -2 -2 -1 -0 -1 -1 -1 -2 -2 -1 -0 0 3 3 2 1 -0 -2 -2 -2 -2 -2 -2
0 -0 -0 1 -0 -1 -1 -1 -2 -2 -2 -2 -2 -2 -1 -2 -2 -2 -2 -2 -2 -2 -1 0 0 0 0 0 0 1 2 2 4 4 3 2 -2 -2 -2 -2 -2 -2 -2
2 0 0 0 0 1 -0 -0 -1 -1 -2 -2 -2 -1 -1 -2 -2 -2 -2 -2 -2 -2 -1 -0 1 1 1 1 1 2 3 3 6 4 3 1 -2 -2 -3 -2 -2 -2 -2
8 6 4 1 1 1 1 2 1 -0 -1 -1 -1 -0 0 -0 -1 -1 -1 -2 -2 -2 -1 -1 0 1 1 1 2 3 4 5 7 6 4 1 -2 -2 -3 -2 -2 -2 -2
10 10 9 6 4 1 0 1 3 1 1 1 1 1 1 0 -0 0 0 -1 -2 -2 -1 -0 1 2 3 3 3 4 6 9 8 6 5 -1 -1 -2 -3 -2 -2 -2 -2
11 10 9 9 8 7 3 0 -0 0 1 0 0 1 0 0 -0 -0 1 -0 -1 -1 -2 -0 1 3 5 8 8 7 9 9 8 6 4 -1 -1 -1 -1 -1 -1 -2 -2
11 10 8 8 8 8 5 1 -0 -0 -0 0 0 0 0 0 -0 0 0 1 2 2 3 3 4 5 6 7 7 8 9 9 8 6 2 -0 -1 -1 -1 -1 -1 -1 -1
8 7 7 7 7 7 7 2 0 1 1 2 1 1 0 1 1 1 1 1 1 2 4 4 5 5 5 6 6 7 8 8 8 6 4 2 1 -0 -1 -1 -1 -1 -1
7 7 7 6 5 4 6 1 1 2 2 2 2 1 1 1 1 1 2 1 2 2 3 5 5 5 5 5 5 7 8 8 8 8 6 5 3 2 1 0 -0 -1 -1
7 7 6 5 4 3 2 3 3 3 3 3 4 3 2 1 2 2 3 3 3 3 3 3 5 4 4 4 5 6 7 8 9 9 9 9 6 5 4 2 1 0 -0
8 7 7 6 4 3 2 4 3 4 4 5 4 4 4 3 4 4 4 4 4 3 3 4 5 5 6 5 7 8 9 10 11 11 12 11 12 7 6 4 3 2 1
8 8 7 5 5 4 4 5 5 5 5 6 5 5 5 5 4 5 4 5 4 5 5 6 7 8 9 8 10 10 11 12 13 13 13 13 13 13 10 7 6 5 4
8 8 8 8 6 6 6 6 6 6 7 5 5 6 6 6 5 5 6 5 5 7 8 10 11 10 9 10 10 11 12 13 14 14 14 14 14 14 14 10 9 8 6
9 9 9 8 7 7 8 8 8 9 9 8 8 7 7 7 7 7 7 8 8 11 12 12 12 12 11 10 11 12 13 14 15 16 16 15 15 15 15 15 14 12 7
9 9 9 9 9 9 9 9 9 10 10 10 10 9 9 9 10 10 10 10 11 12 13 13 13 11 14 13 12 13 14 15 16 16 16 16 16 15 15 15 14 14 13
9 10 10 9 9 9 9 10 11 11 13 12 12 11 11 12 12 12 12 13 13 14 14 14 14 15 16 16 12 13 15 14 15 16 17 16 17 16 16 15 15 14 14
10 10 9 9 9 9 10 13 13 13 13 13 13 13 13 14 14 13 14 14 15 15 16 16 15 16 17 17 16 13 15 14 17 15 17 18 17 17 17 16 15 14 15
9 10 9 9 9 11 12 13 12 13 15 14 14 14 15 15 15 15 15 15 16 16 16 16 16 16 17 18 17 17 18 17 19 20 19 18 17 17 18 17 16 15 16
10 10 9 9 10 12 12 12 12 13 16 16 15 15 16 16 16 15 16 16 16 16 17 17 17 17 17 18 18 19 19 20 20 20 21 19 18 18 18 17 17 17 16
11 10 10 10 11 12 12 12 13 14 16 17 17 16 17 17 17 17 17 17 17 17 17 18 18 18 18 18 19 19 19 20 20 20 21 20 20 18 17 17 17 16 16

GFSSE_con_lsi_048.txt.gz
Lid_Strength_Index
2 0 -2 -2 -2 -2 -1 -1 -1 -2 -1 -2 -2 -2 -2 -2 -2 -2 -2 -2 -2 -2 -2 -2 -2 -2 -2 -2 -2 -2 -2 -2 -2 -2 -2 -2 -2 -2 -2 -1 -2 -1 -2
0 -0 -1 -1 -2 -2 -2 -2 -2 -2 -2 -2 -2 -2 -2 -2 -2 -2 -2 -2 -1 -1 -1 -1 -2 -2 -2 -2 -2 -2 -2 -2 -2 -2 -2 -2 -2 -2 -2 -2 -2 -1 -2
0 -0 -1 -1 -1 -1 -1 -2 -1 -2 -1 -2 -2 -2 -2 -2 -2 -2 -2 -2 -2 -1 -1 -2 -2 -2 -2 -2 -2 -2 -2 -2 -2 -1 -2 -1 -1 -2 -2 -2 -2 -2 -2
-0 -0 -0 -1 -1 -1 -1 -1 -2 -2 -2 -2 -2 -2 -2 -2 -2 -2 -2 -2 -2 -2 -2 -3 -2 -2 -2 -2 -2 -2 -2 -2 -2 -1 -0 -0 -1 -2 -2 -2 -2 -2 -2
0 -0 -0 -1 -2 -1 -2 -2 -2 -2 -2 -2 -2 -2 -2 -2 -2 -2 -2 -3 -2 -2 -2 -3 -2 -2 -2 -2 -2 -2 -2 -2 -2 -0 1 0 0 -2 -3 -2 -2 -2 -2
0 -0 -0 -1 -1 -2 -2 -2 -2 -1 -1 -2 -2 -2 -2 -2 -2 -2 -2 -2 -2 -2 -2 -3 -2 -2 -2 -2 -2 -2 -2 -2 0 2 1 -0 0 -2 -3 -2 -2 -2 -2
1 0 -0 -1 -1 -2 -2 -2 -2 -2 -2 -2 -2 -2 -2 -2 -2 -2 -2 -2 -2 -1 -1 -2 -2 -2 -2 -2 -1 -0 -0 0 3 3 2 1 -0 -3 -3 -2 -2 -2 -2
0 0 0 1 -0 -1 -1 -1 -1 -1 -2 -2 -2 -1 -2 -2 -2 -2 -2 -2 -2 -1 -1 -1 -1 -0 -0 1 1 1 1 2 4 4 2 1 -2 -2 -3 -3 -2 -2 -2
1 1 0 0 0 1 -0 -0 -1 -1 -1 -2 -2 -2 -2 -2 -2 -2 -2 -2 -2 -2 -1 -0 0 0 0 1 2 2 2 2 6 4 2 1 -2 -3 -3 -2 -2 -2 -2
5 3 2 0 -0 -0 0 2 1 -0 -1 -1 -1 -0 -0 -1 -1 -1 -1 -2 -2 -2 -1 -0 0 1 1 2 3 3 4 4 6 5 4 -0 -2 -3 -3 -3 -2 -2 -2
9 8 7 3 2 1 0 1 3 1 1 0 1 1 2 0 -0 0 -0 -1 -1 -1 -1 0 2 2 2 3 3 4 5 8 5 4 3 -1 -1 -1 -2 -2 -2 -2 -2
10 10 10 8 7 5 2 -0 0 0 0 0 0 1 0 0 0 -0 1 -0 -1 -0 0 1 2 4 6 8 8 6 8 7 5 4 1 -2 -2 -2 -2 -2 -1 -1 -1
11 10 9 9 7 7 5 1 -0 -0 0 1 -0 -0 -0 -0 -0 0 1 1 2 3 4 5 5 6 7 7 8 8 8 7 6 6 3 -0 -1 -2 -2 -2 -2 -2 -2
11 10 9 8 8 7 7 4 0 0 0 1 0 0 0 0 0 1 1 1 2 3 5 5 6 6 6 7 8 8 8 8 7 8 6 3 1 -0 -1 -1 -1 -1 -1
10 9 9 9 8 7 7 1 1 1 1 1 0 0 1 1 1 1 1 1 2 2 4 5 5 5 6 7 8 8 9 9 9 9 9 5 3 2 1 0 -0 -0 -0
8 8 7 6 5 4 5 3 1 1 1 1 1 0 1 1 1 2 2 3 3 3 4 4 4 4 5 6 8 8 10 11 12 12 12 10 6 4 3 2 1 1 1
8 8 7 6 5 3 3 1 3 3 2 2 3 2 2 2 2 3 3 4 3 3 4 4 5 5 6 8 10 11 12 13 13 13 13 14 13 7 6 4 4 3 2
9 8 7 5 3 3 4 3 5 4 4 4 4 4 4 3 3 4 4 4 4 4 5 6 7 8 10 11 12 13 14 14 14 14 14 14 15 15 10 7 5 4 3
9 8 8 7 5 4 6 5 6 5 5 5 5 6 5 5 5 5 5 5 5 6 7 8 9 9 11 12 13 15 15 16 15 15 15 15 15 16 15 9 7 7 7
9 9 8 8 7 6 7 7 8 7 8 7 7 7 7 7 7 7 7 8 8 9 10 9 10 11 11 13 14 15 16 16 17 17 17 16 16 16 15 15 15 13 9
10 9 9 9 7 7 8 8 9 8 9 9 8 8 8 8 8 7 8 9 11 11 11 10 11 11 13 14 14 15 16 17 18 18 18 18 17 17 16 16 16 16 15
9 9 10 9 7 7 8 10 11 11 13 11 10 10 10 10 10 9 9 12 13 13 12 12 12 15 16 16 14 14 17 16 17 17 18 18 19 18 17 16 16 17 17
10 9 9 9 9 8 9 13 14 13 13 12 12 12 12 11 11 12 12 14 14 13 12 14 14 14 17 17 16 13 16 15 17 16 18 19 19 19 19 17 17 17 17
10 9 8 9 9 9 11 11 11 13 14 14 13 13 14 13 13 14 14 15 15 15 15 15 15 16 16 18 18 18 19 17 19 20 20 20 19 19 19 18 18 18 18
10 9 9 9 9 10 11 10 11 12 15 16 14 15 15 15 16 16 16 16 16 16 17 17 17 17 17 18 19 19 20 20 21 21 21 21 20 19 19 18 18 19 18
11 10 10 10 10 11 12 12 11 13 16 16 16 15 16 16 17 17 17 17 17 17 17 17 18 18 18 19 19 19 19 20 21 21 22 22 21 19 18 18 18 18 18

GFSSE_con_lsi_051.txt.gz
Lid_Strength_Index
0 -1 -2 -2 -2 -2 -2 -1 -1 -2 -2 -2 -2 -2 -2 -2 -2 -2 -2 -2 -2 -2 -2 -2 -2 -2 -2 -2 -2 -2 -2 -2 -2 -2 -2 -2 -2 -2 -2 -2 -2 -1 -2
-0 -1 -1 -2 -2 -2 -1 -1 -2 -2 -2 -2 -2 -2 -2 -2 -2 -2 -2 -2 -2 -2 -2 -2 -2 -2 -2 -2 -2 -2 -2 -2 -2 -2 -2 -2 -3 -2 -2 -2 -2 -2 -2
-0 -1 -1 -2 -2 -2 -2 -2 -2 -2 -2 -2 -2 -2 -2 -2 -2 -2 -1 -1 -1 -1 -2 -2 -2 -2 -2 -1 -2 -2 -2 -2 -2 -2 -2 -2 -2 -2 -2 -2 -2 -2 -2
-1 -1 -1 -1 -2 -2 -2 -2 -2 -2 -2 -2 -2 -2 -2 -2 -2 -2 -2 -2 -2 -2 -2 -2 -2 -2 -2 -2 -2 -2 -2 -2 -2 -2 -2 -1 -1 -2 -3 -3 -3 -3 -2
-1 -1 -1 -1 -1 -1 -1 -2 -2 -2 -2 -2 -2 -2 -2 -2 -2 -2 -2 -2 -3 -3 -2 -2 -2 -2 -2 -2 -2 -2 -2 -2 -2 -2 -2 -2 -2 -2 -3 -3 -2 -2 -3
-1 -1 -1 -1 -2 -2 -2 -2 -2 -2 -2 -2 -2 -2 -2 -2 -2 -2 -2 -2 -3 -3 -3 -2 -2 -2 -2 -2 -2 -2 -2 -2 -1 -1 -1 -2 -2 -3 -3 -3 -2 -2 -3
-0 -1 -1 -1 -1 -2 -2 -2 -2 -2 -2 -2 -2 -2 -2 -2 -2 -2 -2 -1 -2 -2 -3 -3 -3 -2 -1 -1 -1 -1 -1 -0 -0 -1 -1 -2 -2 -3 -3 -3 -3 -3 -3
-0 -1 -1 0 -0 -1 -1 -1 -2 -2 -2 -2 -2 -2 -2 -2 -2 -2 -2 -2 -2 -2 -2 -2 -1 -0 1 0 -0 -0 0 1 0 -1 -1 -2 -2 -2 -3 -3 -2 -2 -2
-1 -1 -1 -1 -0 1 -0 -0 -1 -1 -2 -2 -2 -2 -2 -2 -2 -2 -2 -2 -2 -2 -1 -0 0 1 1 1 0 0 1 1 0 -0 -0 -2 -2 -3 -3 -3 -2 -2 -2
1 0 -1 -1 -1 -1 -1 1 1 -0 -1 -1 -1 -1 -0 -1 -2 -2 -1 -1 -1 -1 -1 -0 0 1 1 2 1 1 2 1 0 -0 -0 -1 -2 -2 -2 -3 -2 -2 -3
5 3 1 0 -0 -0 -1 1 2 1 0 0 0 1 1 -1 -1 -1 -1 -1 -1 -0 0 1 1 1 2 2 2 2 2 2 1 -0 -1 -2 -2 -3 -2 -2 -2 -2 -2
5 7 5 4 2 1 -0 -1 -1 -1 -1 -1 -1 -1 -1 -1 -2 -1 0 -0 -0 0 1 1 3 4 5 5 4 3 3 3 3 1 -0 -2 -2 -3 -3 -3 -2 -2 -2
5 7 7 6 6 4 2 -0 -1 -1 -1 -1 -1 -1 -1 -1 -1 -1 0 1 3 3 4 4 4 5 5 5 5 4 5 5 5 3 2 -1 -1 -2 -2 -2 -2 -2 -2
8 8 8 7 6 5 5 3 -0 -1 -1 -1 -1 -1 -1 -1 -1 -0 1 2 3 4 4 4 4 5 6 6 5 6 7 6 6 5 4 2 0 -1 -1 -1 -1 -1 -0
8 8 8 7 6 5 5 3 0 -1 -0 -1 -0 -1 -1 -0 -0 0 1 1 3 3 4 4 4 5 6 6 7 8 9 9 8 8 6 4 2 1 1 0 0 0 0
9 8 7 7 6 6 5 4 1 -0 -1 0 0 -1 0 0 -0 1 1 2 3 4 3 4 5 5 7 8 9 10 11 11 11 10 9 7 5 4 3 1 1 1 1
7 6 6 6 5 4 5 3 2 0 0 1 0 0 -0 1 1 2 2 3 4 4 4 4 5 7 9 11 11 11 11 12 12 12 12 11 9 6 4 3 3 3 3
8 7 6 5 4 3 2 1 0 2 1 1 2 1 1 2 2 2 3 3 4 4 4 5 7 9 11 12 12 12 13 13 13 13 13 12 12 10 7 6 6 5 4
8 7 7 6 4 3 3 3 2 3 2 3 2 3 3 3 3 3 4 5 5 6 6 6 8 10 12 13 13 13 13 13 13 14 14 13 13 13 12 10 9 8 6
8 7 7 6 5 4 4 5 5 6 4 4 4 4 5 5 4 5 5 6 6 7 8 8 9 11 11 13 15 15 14 14 14 14 14 14 14 14 14 14 14 12 9
9 8 7 7 6 5 6 6 7 6 6 6 6 6 6 6 6 5 5 7 8 7 8 9 10 12 13 13 14 15 15 15 15 15 14 14 14 14 14 15 15 14 14
9 8 8 7 6 6 5 7 7 8 9 8 8 8 8 8 8 7 8 10 9 9 9 9 10 12 12 12 12 13 15 14 14 16 15 15 15 14 15 15 15 15 15
10 9 8 7 6 6 6 9 11 11 11 10 10 10 10 9 9 8 9 10 10 8 9 9 10 11 13 13 11 10 13 13 14 14 16 16 16 15 15 16 16 16 16
10 8 8 7 7 6 8 8 9 8 10 10 10 10 11 11 10 10 11 11 10 9 9 10 10 11 11 13 15 15 14 11 14 16 16 17 16 16 16 16 16 17 16
10 9 8 8 7 6 8 7 8 9 10 11 11 12 12 13 12 13 13 13 12 11 10 11 12 13 12 14 14 16 16 16 16 16 18 18 17 17 16 16 16 16 16
11 9 8 8 8 7 8 8 8 9 12 12 13 12 13 14 14 14 15 14 13 13 12 12 13 13 14 15 15 15 15 16 17 17 18 18 18 17 16 16 16 16 15

GFSSE_con_lsi_054.txt.gz
Lid_Strength_Index
0 -1 -2 -1 -1 -1 -2 -2 -2 -2 -2 -2 -2 -2 -2 -2 -2 -2 -2 -2 -2 -2 -2 -2 -2 -2 -2 -2 -2 -2 -2 -2 -2 -2 -2 -2 -2 -2 -2 -2 -2 -1 -2
-1 -1 -2 -2 -2 -2 -1 -1 -2 -2 -2 -2 -2 -2 -2 -2 -2 -2 -2 -2 -2 -2 -2 -2 -2 -2 -2 -2 -2 -2 -2 -2 -2 -3 -2 -2 -3 -2 -2 -2 -2 -2 -2
-1 -1 -1 -1 -2 -2 -1 -2 -2 -2 -2 -2 -2 -2 -2 -2 -1 -1 -1 -2 -2 -2 -2 -2 -2 -2 -2 -2 -2 -2 -2 -2 -3 -3 -3 -2 -2 -2 -3 -2 -2 -2 -2
-1 -1 -1 -1 -2 -2 -2 -1 -2 -2 -2 -2 -2 -2 -2 -2 -1 -1 -2 -2 -2 -2 -2 -2 -2 -2 -2 -2 -2 -2 -2 -2 -3 -3 -2 -2 -2 -2 -3 -3 -3 -2 -2
-1 -1 -1 -1 -2 -2 -2 -2 -2 -2 -2 -2 -2 -2 -2 -2 -2 -2 -2 -2 -2 -2 -2 -2 -2 -2 -2 -2 -2 -2 -2 -2 -3 -2 -2 -2 -2 -2 -3 -3 -2 -2 -3
-1 -1 -1 -1 -2 -2 -2 -2 -2 -2 -2 -2 -2 -2 -2 -2 -2 -2 -3 -2 -2 -2 -2 -2 -2 -2 -2 -2 -2 -2 -2 -2 -2 -2 -2 -2 -2 -3 -3 -3 -2 -2 -3
-1 -1 -1 -1 -1 -2 -2 -1 -2 -2 -2 -2 -2 -2 -2 -2 -2 -2 -2 -3 -2 -2 -2 -3 -2 -2 -2 -2 -2 -2 -1 -2 -2 -2 -2 -2 -2 -2 -3 -2 -2 -2 -2
-1 -1 -1 0 -0 -1 -1 -2 -2 -2 -2 -2 -2 -2 -2 -2 -2 -2 -1 -2 -2 -2 -2 -1 -1 -1 -1 -1 -1 -1 -1 -2 -1 -1 -1 -1 -2 -2 -3 -2 -2 -2 -2
-1 -1 -1 -1 -1 1 -0 -1 -1 -2 -2 -2 -2 -2 -2 -2 -2 -2 -2 -2 -2 -2 -1 -0 0 0 -1 -1 -1 -1 -1 -1 -1 -1 -1 -1 -3 -3 -3 -3 -3 -2 -3
-1 -1 -1 -1 -1 -1 -2 1 0 -1 -1 -1 -1 -1 -1 -1 -2 -2 -1 -1 -2 -1 -0 0 1 1 -0 -1 -0 -0 -1 -1 -1 -1 -1 -1 -2 -2 -2 -2 -2 -2 -2
0 -0 -1 -1 -1 -1 -1 -0 1 1 0 0 -0 1 -0 -2 -2 -1 -0 -0 -0 -1 0 1 1 1 1 1 1 0 -0 -1 -1 -1 -1 -2 -2 -3 -3 -3 -2 -3 -2
2 1 -0 -0 -1 -1 -1 -1 -2 -1 -2 -2 -2 -2 -2 -2 -2 -1 0 0 0 1 1 1 2 3 1 1 1 1 1 -0 -0 0 -1 -2 -2 -3 -3 -3 -2 -2 -1
1 3 3 -0 -1 -1 -1 -1 -1 -1 -2 -2 -2 -2 -2 -1 -2 -1 -0 1 2 2 3 3 3 2 2 2 2 2 2 2 1 1 1 -1 -2 -2 -2 -2 -1 -1 -0
1 2 4 2 -0 1 0 -0 -1 -1 -2 -1 -2 -2 -1 -1 -1 -1 0 1 3 3 3 2 3 3 3 3 3 4 4 3 2 2 2 1 -1 -1 -1 -1 -1 -0 0
1 1 4 4 1 0 0 1 0 -1 -1 -1 -1 -1 -2 -1 -1 -0 0 1 3 4 3 3 3 3 4 5 6 6 6 5 4 3 4 3 2 1 0 -0 -0 1 1
1 1 1 3 2 2 1 -0 -1 -1 -1 -1 -1 -1 -1 -1 -1 0 1 0 3 3 4 4 4 5 6 7 8 8 8 7 7 6 5 4 2 2 2 1 2 2 2
1 1 3 3 3 3 2 1 -1 -1 -1 -1 -1 -1 -1 -1 -0 1 1 2 3 4 5 5 6 8 9 9 9 9 9 9 9 9 8 6 5 4 4 3 3 3 3
1 3 3 5 4 3 2 2 1 -1 -1 -1 -1 -1 -1 -1 -0 1 2 3 3 4 6 7 8 10 10 10 10 10 10 10 10 10 10 8 7 7 6 5 5 5 4
3 3 3 3 3 2 2 1 -0 -0 -0 -1 -1 -1 -1 -1 -0 2 2 3 4 5 6 7 9 9 11 10 10 10 10 11 11 11 11 11 10 9 9 8 8 7 6
4 4 4 4 3 2 2 2 1 0 -0 -0 -1 -1 0 -0 1 2 3 4 4 5 6 8 10 10 11 11 12 12 11 11 11 11 11 12 11 12 12 11 10 9 8
5 5 4 4 3 3 2 3 3 2 3 3 1 1 1 2 3 3 4 5 5 6 6 9 10 12 12 11 12 13 13 12 12 12 11 12 12 12 12 12 12 12 11
6 5 5 4 4 3 3 3 2 2 4 3 3 3 4 4 4 5 5 6 6 8 7 10 10 12 12 11 11 12 14 14 13 13 12 12 12 12 13 13 13 13 12
6 6 6 5 4 3 3 3 4 5 7 7 6 6 6 6 7 6 6 6 6 7 9 9 10 10 11 11 9 8 12 12 13 14 14 13 13 13 13 14 14 14 13
6 6 6 5 5 4 3 4 5 4 6 6 5 6 7 7 7 7 9 8 8 8 8 8 9 9 9 11 10 10 10 9 11 15 14 14 13 13 13 14 14 14 14
6 6 6 5 5 4 3 4 4 4 3 6 5 5 6 8 8 8 8 9 9 8 8 8 9 8 8 9 10 12 12 12 11 12 15 15 15 14 13 14 14 14 15
7 7 6 6 5 4 4 4 4 4 4 6 5 6 7 8 8 8 10 10 9 8 7 7 7 8 8 9 9 11 12 13 13 13 14 15 15 15 14 14 14 14 14

GFSSE_con_lsi_057.txt.gz
Lid_Strength_Index
0 -1 -2 -1 -1 -2 -1 -2 -2 -2 -2 -2 -2 -2 -2 -2 -2 -2 -2 -2 -2 -2 -2 -2 -2 -2 -2 -2 -2 -2 -2 -2 -2 -2 -2 -2 -2 -2 -2 -2 -2 -1 -2
-1 -1 -2 -1 -1 -2 -2 -2 -2 -2 -2 -2 -2 -2 -2 -2 -2 -2 -2 -2 -2 -2 -2 -2 -2 -2 -2 -2 -2 -2 -2 -2 -2 -2 -2 -2 -3 -2 -2 -2 -2 -1 -2
-0 -1 -1 -2 -2 -2 -2 -2 -2 -2 -2 -2 -2 -2 -2 -2 -1 -2 -2 -2 -2 -2 -2 -2 -2 -2 -2 -2 -2 -2 -2 -2 -3 -3 -3 -1 -1 -2 -2 -2 -3 -2 -3
-1 -1 -1 -1 -2 -2 -2 -2 -2 -2 -2 -2 -2 -2 -2 -1 -1 -2 -2 -2 -2 -2 -2 -2 -2 -2 -2 -2 -2 -2 -2 -2 -3 -3 -1 -1 -1 -2 -3 -3 -2 -3 -2
-1 -1 -1 -1 -2 -1 -2 -2 -2 -2 -2 -2 -2 -2 -2 -2 -2 -2 -2 -2 -2 -2 -2 -2 -2 -2 -2 -2 -2 -2 -2 -3 -3 -2 -1 -1 -1 -2 -3 -3 -2 -2 -2
-1 -1 -1 -1 -2 -2 -1 -2 -1 -2 -2 -2 -2 -2 -2 -2 -2 -2 -2 -2 -2 -2 -2 -2 -2 -2 -2 -2 -2 -2 -2 -3 -2 -1 -1 -2 -1 -2 -2 -2 -2 -2 -2
-0 -1 -1 -1 -1 -2 -1 -2 -2 -2 -2 -2 -2 -2 -2 -2 -2 -2 -2 -2 -2 -2 -2 -2 -2 -2 -2 -2 -2 -2 -2 -2 -1 -1 -1 -1 -1 -2 -2 -2 -2 -2 -2
-0 -1 -1 0 -1 -1 -1 -2 -2 -2 -2 -2 -2 -2 -2 -2 -2 -2 -2 -2 -2 -2 -2 -2 -2 -2 -2 -2 -2 -2 -2 -2 -1 -1 -1 -1 -2 -2 -3 -3 -3 -3 -3
-1 -1 -1 -1 -1 0 -0 -1 -1 -2 -2 -2 -2 -2 -2 -2 -3 -2 -2 -2 -2 -1 -1 -1 -1 -2 -2 -2 -1 -2 -2 -1 -0 -1 -1 -1 -2 -3 -3 -3 -3 -2 -2
-0 -0 -0 -1 -1 -1 -1 1 -0 -1 -1 -1 -1 -1 -1 -2 -2 -2 -1 -2 -2 -1 -0 -0 -1 -1 -1 -1 -1 -1 -2 -1 -1 -1 -1 -2 -2 -3 -3 -3 -2 -2 -1
0 -0 -1 -0 -1 -1 -1 -0 1 1 0 0 -0 0 -0 -1 -1 -1 -0 -1 -1 -0 0 0 -1 -1 -0 0 -0 -1 -1 -1 -1 -1 -1 -2 -2 -3 -3 -2 -1 -1 -0
2 1 -0 -1 -0 -0 -0 -1 -1 -1 -1 -1 -1 -1 -1 -1 -1 -1 1 0 -0 0 0 0 0 0 0 1 1 -0 -0 0 -0 -1 -1 -2 -2 -3 -2 -2 -1 -0 0
1 1 0 -0 -1 -1 -1 -1 -1 -1 -1 -1 -1 -1 -1 -1 -1 -1 1 2 2 2 2 2 2 1 1 1 1 1 1 0 1 1 1 -1 -2 -2 -2 -1 -1 0 1
1 1 0 -0 -0 -1 -1 -1 -1 -1 -1 -1 -1 -1 -1 -1 -1 -1 0 1 1 1 2 1 1 1 2 2 2 2 2 1 1 2 3 1 -1 -1 -1 -1 0 1 1
1 1 0 0 -0 -0 -1 -1 -1 -1 -1 -1 -1 -1 -1 -1 -1 -1 -0 2 2 2 2 2 2 3 3 4 4 4 3 2 3 3 3 2 0 -1 -0 0 1 1 2
1 1 0 1 -0 -1 -0 -1 -0 -1 -1 -1 -1 -1 -1 -1 -1 -1 1 2 3 3 2 2 3 3 5 5 6 5 5 4 4 4 3 3 2 1 2 2 2 2 2
1 1 1 0 1 -0 -0 -1 -1 -1 -1 -1 -1 -1 -1 -1 -1 -0 1 2 2 3 4 5 6 6 6 7 8 8 8 7 6 6 5 4 5 3 3 3 3 3 3
1 1 0 0 -0 -0 -0 -0 -1 -1 -1 -1 -1 -1 -1 -1 -1 1 2 3 4 5 4 7 9 9 8 8 9 9 9 9 9 9 7 6 7 6 5 4 4 4 4
1 1 1 0 0 0 -0 -0 -1 -1 -0 -0 -1 -1 -1 -1 -0 1 2 3 4 4 6 8 9 9 9 9 9 9 10 10 10 10 10 8 8 8 7 6 6 6 5
1 1 1 0 0 1 0 0 -0 -0 -0 -0 -0 -0 -1 -1 -1 1 2 4 5 6 6 8 9 9 10 10 11 11 10 10 10 11 11 11 11 10 10 9 9 8 7
1 1 1 1 1 1 1 1 2 2 0 0 -0 -1 -1 -1 -1 1 2 4 5 6 6 8 9 10 10 11 12 12 12 12 12 11 11 11 12 12 11 11 11 10 10
3 2 2 3 3 3 2 2 2 2 1 1 1 1 -0 -0 0 1 2 4 5 6 7 9 10 11 11 11 11 12 14 14 13 12 12 12 12 12 13 13 12 11 11
4 3 3 3 3 3 2 2 2 2 2 3 2 2 2 2 2 3 3 4 5 6 8 9 11 11 12 11 10 10 13 13 14 13 13 13 13 13 13 13 13 13 12
4 3 3 3 3 3 2 3 3 3 4 4 3 3 4 4 4 4 4 6 6 6 9 9 9 9 11 12 10 9 9 10 13 17 14 14 13 13 13 13 14 13 13
3 3 3 4 4 3 3 3 3 4 3 2 2 4 4 5 5 6 6 5 6 6 7 8 9 9 9 11 10 11 10 10 10 12 16 16 15 14 13 14 13 14 14
3 3 3 4 4 4 4 3 3 4 3 3 3 4 5 6 7 7 7 7 7 7 8 9 9 9 10 10 10 10 11 12 13 13 14 16 16 15 14 14 14 14 14

GFSSE_con_lsi_060.txt.gz
Lid_Strength_Index
1 -0 -2 -1 -1 -1 -1 -1 -2 -2 -2 -2 -2 -2 -2 -2 -2 -2 -3 -2 -2 -2 -2 -2 -2 -2 -2 -2 -2 -2 -2 -2 -3 -2 -2 -2 -2 -2 -2 -2 -2 -1 -2
-0 -1 -1 -2 -1 -1 -1 -1 -2 -2 -2 -2 -2 -2 -2 -2 -2 -2 -2 -2 -2 -2 -2 -2 -2 -2 -2 -1 -1 -2 -2 -2 -2 -2 -2 -2 -3 -2 -2 -2 -2 -1 -2
-0 -1 -1 -1 -2 -2 -2 -2 -2 -2 -2 -2 -2 -2 -2 -2 -2 -2 -2 -2 -2 -2 -2 -2 -2 -2 -1 -1 -2 -2 -2 -3 -3 -3 -2 -1 -1 -2 -3 -2 -3 -3 -3
-0 -1 -1 -1 -2 -2 -2 -2 -2 -2 -2 -2 -2 -2 -2 -2 -2 -2 -2 -2 -2 -2 -2 -2 -1 -1 -1 -2 -2 -2 -3 -3 -3 -2 -1 -0 -1 -3 -3 -3 -2 -3 -3
-0 -0 -1 -1 -2 -2 -2 -2 -2 -2 -2 -2 -2 -2 -2 -2 -2 -2 -2 -2 -2 -2 -2 -2 -2 -2 -2 -2 -2 -2 -3 -3 -3 -1 0 0 -0 -2 -3 -2 -2 -2 -2
-0 -0 -1 -1 -2 -2 -2 -2 -2 -2 -2 -2 -2 -2 -2 -2 -2 -2 -2 -2 -2 -2 -2 -2 -2 -2 -2 -2 -2 -2 -3 -3 -2 0 -0 -1 -1 -2 -3 -2 -2 -2 -2
0 -0 -1 -1 -1 -2 -2 -2 -2 -2 -2 -2 -2 -2 -2 -2 -2 -2 -2 -2 -2 -2 -2 -2 -2 -2 -2 -2 -2 -2 -2 -2 -0 -0 -1 -1 -1 -2 -3 -3 -3 -2 -2
0 -0 -1 0 -0 -1 -1 -1 -2 -2 -2 -2 -2 -2 -2 -2 -2 -2 -2 -2 -2 -2 -2 -2 -2 -2 -2 -2 -2 -2 -2 -2 0 -0 -0 -1 -2 -3 -3 -3 -2 -2 -2
-0 -0 -0 -0 -0 0 -0 -1 -1 -1 -2 -2 -2 -2 -3 -3 -3 -2 -3 -2 -2 -2 -2 -2 -2 -2 -2 -2 -2 -2 -2 -2 1 1 0 0 -2 -3 -3 -2 -2 -1 -1
0 -0 0 -0 -0 -0 -0 1 0 -0 -1 -1 -1 -1 -2 -2 -2 -2 -1 -1 -1 -2 -2 -2 -2 -1 -2 -1 -2 -2 -1 -1 -0 -0 0 -1 -2 -3 -2 -1 -1 -1 -1
1 0 0 -0 0 -0 -0 1 1 0 0 0 -0 -0 -0 -0 0 -0 -0 -0 -1 -1 -1 -1 -1 -1 -1 -1 -1 -1 -1 -0 -1 -1 -0 -2 -2 -3 -2 -1 -1 -1 -0
2 1 0 0 0 -0 -0 -0 -0 -1 -1 -1 -1 -0 -0 0 0 0 1 0 -0 -1 -1 -1 -0 -1 1 2 2 0 1 1 2 1 -0 -2 -2 -2 -1 -1 -0 -0 0
3 1 1 0 0 -0 0 -0 -0 -0 -0 -0 -1 -0 -1 0 2 2 3 3 3 2 3 2 2 2 3 3 3 3 3 3 3 2 1 -2 -2 -1 -1 -1 -0 0 1
2 2 1 1 1 0 0 -0 0 -0 -0 -0 -1 -1 -1 0 2 2 3 4 4 3 4 3 3 4 4 4 4 4 3 3 3 3 3 1 -1 -1 -0 -0 0 1 1
2 1 1 0 1 0 0 1 0 -0 0 0 -0 -0 -1 0 1 2 2 4 3 3 2 3 4 5 5 5 5 5 5 4 4 4 5 2 -1 -0 0 0 1 1 1
2 1 1 1 0 -0 0 1 1 1 0 0 -0 -0 0 -0 1 1 2 2 3 3 3 3 4 6 7 7 7 6 6 6 6 5 6 6 2 1 1 1 1 1 2
2 2 2 1 1 1 1 1 1 1 1 1 1 0 -0 -0 1 1 3 3 4 3 3 4 5 7 9 8 9 9 9 8 8 7 7 8 7 3 2 2 2 2 2
2 2 1 1 1 1 2 1 1 1 0 1 1 0 0 -0 1 2 3 3 3 4 5 7 7 8 9 11 11 12 12 11 11 10 9 9 9 8 5 4 3 3 3
2 2 2 2 2 1 1 1 1 1 1 1 1 0 1 0 0 2 3 4 5 5 7 8 9 9 10 11 12 12 13 13 13 11 11 11 10 10 10 6 6 5 4
3 2 2 2 2 1 1 2 2 2 2 1 1 0 0 1 1 2 3 5 5 6 8 9 10 9 10 11 12 13 14 14 13 14 14 13 13 12 12 11 11 9 6
3 3 2 3 3 2 3 3 4 3 3 2 1 1 0 0 1 1 3 5 5 7 8 9 10 11 11 12 13 14 15 14 15 15 14 15 15 14 14 14 13 12 11
4 3 3 3 3 3 2 3 4 5 4 3 3 3 1 0 0 1 3 4 5 7 7 9 10 11 12 12 13 14 17 17 16 15 15 14 15 15 15 14 14 13 13
5 5 4 3 3 2 3 4 4 5 5 5 4 2 3 3 2 1 3 4 4 5 7 9 10 11 12 12 12 12 15 17 18 16 16 15 15 16 16 15 15 14 14
6 5 4 4 4 4 4 4 4 5 6 6 5 4 3 3 4 3 3 4 4 4 6 9 9 10 12 13 12 11 11 15 17 20 18 17 16 16 16 16 16 16 15
6 6 6 5 5 5 4 4 4 6 6 6 6 6 4 4 3 4 3 4 3 4 6 8 10 10 11 11 11 12 13 13 14 18 20 19 18 16 16 16 16 16 15
6 6 6 6 6 5 5 4 5 5 6 7 6 6 5 5 4 5 5 4 5 5 6 8 9 9 10 10 10 11 12 13 15 16 19 20 19 18 17 17 16 16 16

GFSSE_con_lsi_063.txt.gz
Lid_Strength_Index
1 -0 -2 -1 -1 -1 -1 -2 -2 -2 -2 -2 -2 -2 -2 -2 -2 -2 -2 -2 -2 -2 -2 -2 -2 -2 -2 -2 -2 -2 -2 -2 -2 -2 -2 -2 -2 -2 -2 -2 -2 -1 -2
-0 -1 -1 -2 -1 -1 -1 -2 -2 -2 -2 -1 -2 -2 -2 -2 -2 -2 -2 -2 -2 -2 -2 -2 -2 -2 -2 -2 -2 -2 -2 -2 -2 -2 -2 -2 -3 -2 -2 -2 -2 -1 -2
-0 -1 -1 -1 -2 -2 -1 -2 -2 -2 -2 -2 -2 -2 -2 -2 -2 -2 -2 -2 -2 -2 -2 -2 -1 -1 -2 -2 -2 -3 -2 -2 -3 -2 -2 -1 -1 -2 -2 -3 -2 -2 -2
-0 -1 -1 -1 -2 -2 -2 -2 -2 -2 -2 -1 -1 -2 -2 -2 -2 -2 -2 -2 -2 -2 -2 -2 -1 -1 -2 -2 -3 -3 -3 -3 -3 -2 -1 -1 -1 -2 -3 -2 -2 -2 -2
-0 -1 -1 -1 -2 -2 -2 -2 -2 -2 -2 -2 -2 -2 -2 -2 -2 -2 -2 -2 -2 -2 -2 -2 -2 -2 -2 -2 -2 -3 -3 -2 -3 -1 0 0 -1 -2 -3 -2 -2 -2 -3
0 -0 -1 -1 -2 -2 -2 -2 -2 -2 -2 -2 -2 -2 -2 -2 -2 -2 -2 -2 -2 -2 -2 -2 -2 -2 -2 -2 -3 -2 -2 -2 -1 -0 -1 -1 -1 -2 -3 -3 -2 -2 -2
-0 -0 -1 -1 -1 -2 -2 -2 -2 -2 -2 -2 -2 -2 -2 -2 -2 -2 -2 -2 -2 -2 -2 -2 -2 -2 -2 -2 -3 -2 -2 -1 0 -0 -1 -1 -1 -3 -3 -3 -2 -2 -2
0 -0 -1 0 -0 -1 -1 -1 -2 -2 -2 -2 -2 -2 -2 -2 -2 -2 -2 -2 -2 -2 -2 -2 -2 -2 -2 -2 -2 -2 -1 -1 0 0 -1 -1 -2 -3 -3 -3 -2 -2 -2
-0 -0 -0 -0 -0 0 -0 -1 -1 -1 -2 -2 -2 -2 -2 -2 -2 -2 -3 -2 -2 -2 -2 -2 -2 -2 -2 -2 -2 -2 -2 -1 2 1 0 -1 -2 -2 -2 -2 -1 -1 -1
0 -0 0 0 -0 -0 -0 1 0 -1 -1 -2 -2 -2 -2 -2 -2 -3 -1 -3 -2 -2 -2 -2 -2 -2 -2 -2 -2 -2 -1 -1 0 0 1 -1 -2 -2 -2 -1 -1 -1 -1
1 0 0 0 0 0 -0 1 1 1 -0 -0 -1 -0 0 0 0 0 -1 -1 -2 -2 -2 -2 -2 -1 -1 -1 -1 -1 -0 1 1 1 0 -2 -2 -1 -1 -1 -0 -0 0
2 1 0 -0 0 0 -0 0 0 -0 -0 -0 -0 1 1 1 1 1 1 -0 -1 -2 -1 -1 -1 -0 1 3 2 1 2 2 3 2 -1 -2 -1 -1 -1 -0 -0 0 0
3 1 0 0 -0 -0 0 -0 -0 -0 -0 -0 0 1 1 1 2 2 2 3 2 2 1 1 3 3 3 4 3 3 3 4 5 3 -0 -2 -1 -1 -0 -0 0 0 1
3 2 1 0 0 0 -0 -0 -0 -0 -0 -0 0 1 1 2 3 3 3 4 4 4 5 4 4 4 4 4 4 4 4 4 4 3 2 -1 -1 -1 -0 -0 0 1 1
3 2 2 1 1 0 -0 -0 -0 -0 -0 -0 -0 0 0 2 3 4 5 5 5 4 4 4 5 5 6 5 5 5 5 4 4 5 4 1 -1 -0 -0 0 1 1 1
2 2 2 2 1 1 0 -0 0 -0 -0 -0 -0 0 -1 1 2 4 4 4 4 3 3 3 5 6 5 7 6 6 6 5 5 6 6 5 1 1 1 1 1 1 2
3 2 1 2 1 1 1 0 0 1 0 0 0 0 -0 1 1 4 4 4 3 3 4 4 5 6 8 7 9 8 8 7 6 7 8 8 7 3 1 2 2 2 2
2 2 1 1 1 1 2 1 -0 1 2 1 0 0 0 0 1 3 4 5 4 4 4 5 7 8 9 10 10 11 11 11 10 9 9 9 9 9 5 3 3 3 3
2 2 2 1 1 1 2 2 2 2 2 2 2 1 1 1 1 2 4 5 5 5 5 6 8 8 10 11 12 12 13 14 13 12 12 11 10 10 10 6 5 4 4
3 2 2 2 2 2 1 3 3 3 3 2 1 1 1 1 1 2 3 6 6 6 7 7 8 9 10 12 12 14 13 14 14 15 14 13 12 12 13 12 11 9 5
3 3 3 2 2 2 2 2 4 3 4 4 3 2 1 0 1 2 3 5 6 7 8 8 9 10 12 12 13 15 14 14 15 15 15 15 15 15 14 13 13 12 11
3 3 2 3 3 2 2 2 2 4 5 4 4 3 3 1 1 2 3 4 6 7 8 9 9 11 11 12 13 14 16 15 16 15 16 16 16 16 15 15 15 14 13
5 3 3 2 3 2 3 5 7 6 7 6 6 4 4 3 1 1 2 3 4 6 8 9 10 10 12 12 12 12 16 16 18 15 16 16 17 17 17 16 16 14 14
5 4 3 3 3 3 5 5 5 4 4 4 4 5 5 5 4 2 2 3 5 5 7 9 10 9 10 12 12 12 11 14 16 18 16 17 17 17 18 18 17 16 15
7 6 5 5 5 4 4 4 5 4 6 7 6 6 6 6 6 4 2 3 4 4 5 7 9 8 9 10 11 12 12 14 14 16 19 18 17 18 17 17 17 17 16
8 8 7 6 6 6 5 6 5 4 7 7 7 7 7 6 6 5 4 2 3 3 4 6 8 8 8 9 10 9 11 13 13 16 18 18 18 18 18 17 17 17 17

GFSSE_con_lsi_066.txt.gz
Lid_Strength_Index
1 0 -2 -1 -1 -1 -2 -2 -2 -2 -2 -2 -2 -2 -2 -2 -2 -2 -2 -2 -2 -2 -2 -2 -2 -2 -2 -2 -2 -2 -2 -2 -2 -2 -2 -2 -2 -2 -2 -2 -2 -1 -2
-0 -0 -1 -2 -1 -1 -2 -2 -2 -2 -2 -2 -2 -2 -2 -2 -2 -2 -2 -2 -2 -2 -2 -2 -2 -2 -2 -2 -2 -2 -2 -2 -2 -2 -2 -2 -2 -2 -2 -2 -2 -1 -2
-0 -1 -1 -1 -1 -1 -2 -2 -2 -2 -2 -2 -1 -2 -2 -2 -2 -2 -2 -2 -2 -2 -2 -2 -2 -2 -2 -2 -2 -2 -2 -2 -2 -2 -2 -1 -1 -2 -2 -3 -2 -2 -2
-0 -1 -1 -1 -2 -2 -2 -2 -2 -2 -1 -2 -2 -2 -2 -2 -2 -2 -2 -2 -2 -2 -1 -2 -2 -2 -2 -2 -2 -2 -2 -2 -2 -2 -0 -1 -1 -2 -2 -2 -2 -2 -2
-0 -0 -1 -1 -2 -2 -2 -2 -2 -2 -2 -2 -2 -2 -2 -2 -2 -2 -2 -2 -2 -2 -2 -2 -2 -2 -2 -2 -2 -2 -2 -2 -2 -1 -0 -1 -1 -2 -3 -3 -2 -2 -2
-0 -0 -1 -1 -2 -2 -2 -2 -2 -2 -2 -2 -2 -2 -2 -2 -2 -2 -2 -2 -2 -2 -2 -2 -2 -2 -3 -2 -2 -2 -2 -2 -1 -1 -1 -1 -1 -2 -3 -3 -2 -2 -2
0 -0 -0 -1 -1 -1 -2 -2 -2 -2 -2 -2 -2 -2 -2 -2 -2 -2 -2 -2 -2 -2 -2 -2 -2 -2 -2 -2 -2 -2 -2 -1 -1 -1 -1 0 -1 -2 -3 -3 -2 -2 -2
0 -0 -0 0 -0 -1 -1 -2 -2 -2 -2 -2 -2 -2 -2 -2 -2 -2 -2 -2 -2 -2 -2 -2 -2 -2 -2 -2 -2 -1 -0 -1 -1 -1 -1 -0 -2 -2 -3 -2 -2 -1 -1
-0 -0 -0 -0 -0 0 -0 -1 -1 -2 -2 -2 -2 -2 -2 -2 -2 -2 -2 -2 -2 -2 -2 -2 -2 -2 -2 -2 -2 -1 -1 -0 0 -0 -0 -1 -2 -2 -2 -1 -1 -1 -1
0 0 0 0 -0 -0 -0 1 0 -1 -1 -2 -2 -2 -1 -2 -2 -2 -2 -2 -2 -2 -2 -2 -2 -2 -2 -2 -2 -1 -1 -1 1 1 -0 -0 -2 -2 -2 -1 -1 -1 -0
1 0 0 0 0 0 0 1 1 0 -0 -1 -1 -0 0 -0 0 0 -1 -2 -2 -2 -2 -2 -2 -2 -1 -1 -1 -1 0 2 1 0 -0 -2 -2 -2 -1 -1 -0 -0 -0
2 1 0 0 0 0 -0 1 0 -0 -0 -0 0 1 1 1 1 1 1 -1 -2 -2 -2 -2 -1 0 2 3 2 1 3 3 3 -0 -1 -2 -1 -1 -1 -0 -0 0 0
2 1 0 0 0 0 0 0 0 -0 0 1 1 2 2 2 2 2 2 2 1 1 1 2 3 3 3 3 3 4 3 4 3 1 -1 -1 -1 -1 -1 0 0 0 1
3 2 0 0 0 0 -0 0 -0 0 -0 1 1 1 2 3 3 4 4 4 3 3 3 4 4 4 4 4 4 4 4 3 3 3 1 -0 -1 -0 -0 0 0 1 1
3 3 1 1 0 0 -0 -0 -0 -0 0 1 1 1 2 3 3 4 5 5 5 5 4 5 5 5 5 5 4 5 5 5 4 4 3 1 -0 -0 -0 0 1 1 1
3 2 2 2 1 0 0 -0 -0 -0 -0 0 0 1 1 2 3 4 5 4 5 5 4 5 5 5 6 6 6 6 6 6 5 5 5 3 0 -0 0 1 1 1 2
2 2 2 2 1 1 1 0 -0 -0 -0 -0 0 1 0 1 2 4 5 5 4 4 3 5 5 6 6 7 7 7 7 7 7 7 7 7 5 2 1 1 2 2 3
3 2 2 1 1 1 1 1 1 -0 -0 0 -0 0 0 1 2 3 4 5 5 4 4 5 7 7 8 8 10 10 9 9 9 8 8 8 9 8 5 2 3 3 3
2 2 2 2 2 2 2 1 2 1 0 0 0 0 1 1 1 3 4 5 5 5 5 6 7 7 9 10 11 11 12 11 11 10 10 9 8 10 10 6 5 3 4
2 2 1 1 1 1 2 3 3 2 1 0 1 0 0 1 1 2 4 5 5 6 7 7 8 9 10 11 12 13 13 13 13 11 11 10 10 11 11 11 11 9 4
3 2 2 2 1 1 1 2 3 3 2 2 2 2 1 1 1 2 3 5 5 6 7 8 9 10 13 12 13 13 14 14 14 14 13 12 13 13 13 13 12 12 10
4 2 2 1 1 2 1 1 2 3 4 3 4 4 2 1 1 1 3 5 5 6 7 9 9 11 12 12 12 14 15 14 14 15 15 14 15 14 14 13 14 13 13
6 3 2 2 2 2 2 3 7 7 7 6 6 4 4 2 1 1 2 4 5 5 8 8 9 10 12 14 12 12 15 15 16 16 16 16 16 16 15 14 15 14 14
8 5 3 2 2 2 2 3 4 3 3 3 3 5 5 5 2 1 2 3 5 4 6 8 8 8 9 12 14 11 11 13 15 18 16 15 16 16 15 15 15 15 15
9 7 5 4 3 3 3 3 4 4 5 8 8 7 6 6 5 2 2 3 4 4 4 6 7 8 8 9 11 13 12 14 14 16 17 18 17 15 16 16 15 15 15
9 8 6 5 5 5 5 6 5 5 8 9 9 8 7 6 6 6 4 3 3 3 4 5 7 8 7 8 9 9 11 11 14 15 17 18 18 16 15 16 16 16 15

GFSSE_con_lsi_069.txt.gz
Lid_Strength_Index
2 1 -2 -1 -1 -2 -2 -2 -2 -2 -2 -2 -2 -2 -1 -2 -2 -2 -2 -2 -2 -2 -2 -2 -2 -2 -2 -2 -2 -2 -2 -2 -2 -2 -2 -2 -2 -2 -2 -3 -2 -1 -2
1 -0 -1 -2 -2 -2 -2 -2 -2 -2 -2 -2 -2 -2 -2 -2 -2 -2 -2 -2 -2 -2 -2 -2 -2 -2 -2 -2 -2 -2 -2 -2 -2 -2 -2 -2 -2 -2 -2 -2 -2 -1 -2
0 -0 -1 -1 -1 -2 -2 -2 -2 -2 -2 -2 -2 -2 -2 -2 -2 -2 -2 -2 -1 -2 -2 -2 -2 -2 -2 -2 -1 -2 -2 -2 -3 -3 -2 -1 -1 -2 -2 -2 -2 -2 -2
-0 -0 -0 -1 -2 -2 -2 -2 -2 -2 -2 -2 -2 -2 -2 -2 -2 -2 -2 -2 -2 -2 -2 -2 -2 -2 -2 -1 -2 -2 -2 -2 -2 -2 -1 -1 -1 -2 -2 -2 -2 -2 -2
-0 -0 -0 -1 -1 -2 -2 -2 -2 -2 -2 -2 -2 -2 -2 -2 -2 -2 -2 -2 -2 -2 -2 -2 -2 -2 -2 -2 -2 -2 -2 -2 -2 -1 -1 -1 -1 -2 -2 -2 -2 -2 -2
-0 -0 -0 -1 -1 -2 -2 -2 -2 -2 -2 -2 -2 -2 -2 -2 -2 -2 -2 -2 -2 -2 -2 -2 -2 -2 -2 -2 -2 -2 -2 -2 -1 0 -0 -1 -0 -2 -2 -2 -2 -2 -2
0 -0 -0 -1 -1 -2 -2 -2 -2 -2 -2 -2 -2 -2 -2 -2 -2 -2 -2 -2 -2 -2 -2 -2 -2 -2 -2 -2 -2 -2 -2 -2 0 1 1 -0 -1 -2 -2 -2 -2 -2 -2
0 -0 -0 1 -0 -1 -1 -2 -2 -2 -2 -2 -2 -2 -2 -2 -2 -2 -2 -2 -2 -2 -2 -2 -2 -2 -2 -2 -2 -2 -1 -1 -1 -0 0 -1 -2 -2 -3 -2 -2 -2 -1
-0 -0 0 -0 0 1 -0 -1 -1 -2 -2 -2 -2 -2 -2 -2 -2 -2 -2 -2 -2 -2 -2 -2 -2 -2 -2 -2 -1 -1 -1 -1 -1 -0 -0 -1 -2 -2 -2 -1 -1 -1 -1
0 0 0 0 0 0 0 1 0 -1 -2 -2 -2 -1 -1 -1 -2 -2 -1 -2 -2 -2 -2 -2 -2 -2 -2 -2 -1 -1 -1 -1 0 1 1 -1 -2 -2 -1 -1 -1 -1 -0
1 1 0 0 0 0 0 1 1 0 -1 -1 -0 0 1 0 0 0 -1 -2 -2 -2 -2 -2 -2 -2 -1 -1 -0 -0 0 1 1 1 0 -2 -2 -2 -1 -1 -0 -0 0
2 2 1 0 0 0 -0 0 0 0 0 0 0 1 1 1 1 1 0 -1 -1 -2 -2 -2 -2 -0 1 3 3 1 2 2 0 0 -0 -2 -1 -1 -0 0 0 0 0
3 2 1 1 0 0 0 0 0 1 1 1 1 2 2 2 2 2 2 1 1 1 1 2 2 3 3 3 4 3 3 3 1 0 -1 -1 -1 -0 -0 0 0 1 1
3 2 1 1 0 0 1 0 -0 -0 1 2 2 2 2 3 3 4 3 3 3 4 4 4 4 4 4 4 4 4 4 2 2 1 0 -0 -1 -1 -0 0 1 1 1
3 2 1 1 1 0 1 0 1 1 0 1 2 2 2 3 4 4 4 4 4 5 5 5 5 5 4 4 4 4 4 3 3 3 1 1 -1 -1 -0 0 1 1 2
3 2 1 1 1 0 0 0 0 1 0 1 2 2 2 3 4 4 5 5 4 4 5 5 5 6 5 5 6 5 5 5 4 4 3 2 -0 -0 0 1 2 2 2
3 3 2 1 1 1 1 0 0 -0 0 1 1 2 3 3 3 4 4 4 4 4 4 5 5 6 7 6 6 6 6 7 7 5 5 5 3 1 1 1 2 2 2
3 3 2 1 2 1 1 0 0 -0 -0 -0 -0 1 1 2 2 3 4 5 5 5 5 6 6 7 7 7 8 7 7 7 7 7 7 7 6 6 4 1 1 2 2
2 3 2 2 2 2 1 1 1 1 1 -0 -0 -0 1 1 2 3 4 5 5 5 5 7 8 7 8 9 9 10 10 9 9 9 8 8 7 7 8 4 2 2 3
3 2 2 2 2 2 1 2 2 2 2 1 0 -0 0 1 2 3 4 4 5 5 6 7 8 9 9 10 10 12 12 12 11 11 10 9 9 8 8 9 9 7 3
3 3 2 2 2 2 2 2 2 2 3 2 1 1 0 0 1 3 3 4 5 6 6 7 9 10 12 12 13 13 14 13 13 13 11 10 10 10 10 11 11 10 8
5 2 2 2 1 1 1 1 1 2 3 3 4 3 1 1 1 2 3 4 5 6 6 7 9 11 12 12 12 13 14 14 14 13 14 13 11 11 12 11 12 11 11
9 5 2 2 1 1 1 3 6 6 7 7 7 5 4 1 1 1 2 4 5 6 7 8 8 8 11 12 11 12 15 13 16 15 15 14 13 14 13 12 13 12 11
10 8 4 2 1 1 1 3 3 3 3 3 3 5 5 3 3 1 2 3 4 4 5 8 8 7 8 12 12 11 11 13 14 15 17 15 15 14 14 14 12 12 12
10 9 6 3 3 3 2 2 3 4 4 6 7 6 6 6 3 2 1 2 3 4 4 6 7 7 6 8 10 12 11 12 13 14 14 17 16 16 14 13 13 13 13
10 9 7 4 4 4 4 4 4 4 6 8 9 8 8 7 6 4 2 2 2 3 4 5 6 7 7 7 8 8 10 11 12 14 15 16 17 15 15 14 14 13 13

GFSSE_con_lsi_072.txt.gz
Lid_Strength_Index
2 0 -2 -1 -1 -2 -2 -2 -2 -2 -2 -2 -2 -2 -2 -2 -2 -2 -2 -2 -2 -2 -2 -2 -2 -2 -2 -2 -2 -2 -2 -2 -2 -2 -2 -2 -2 -2 -2 -2 -2 -1 -2
1 -0 -1 -2 -2 -2 -2 -2 -2 -2 -2 -2 -1 -2 -2 -2 -2 -2 -2 -2 -2 -2 -2 -2 -2 -2 -2 -2 -2 -2 -2 -2 -2 -3 -3 -2 -2 -2 -2 -3 -3 -1 -2
1 -0 -1 -1 -2 -2 -2 -2 -2 -2 -2 -2 -1 -2 -2 -2 -2 -2 -2 -2 -2 -2 -2 -2 -2 -2 -2 -2 -1 -1 -1 -2 -3 -3 -2 -1 -1 -2 -2 -2 -2 -2 -2
-0 -0 -0 -1 -2 -2 -2 -2 -2 -2 -2 -2 -2 -2 -2 -2 -2 -2 -2 -2 -2 -2 -2 -2 -2 -2 -1 -1 -1 -1 -2 -3 -2 -2 -0 -0 -1 -2 -2 -2 -2 -2 -2
-0 -0 -0 -1 -2 -2 -2 -2 -2 -2 -2 -2 -1 -2 -2 -2 -2 -2 -2 -2 -2 -2 -2 -2 -2 -2 -2 -2 -2 -2 -2 -2 -1 -1 -1 -1 -1 -2 -2 -2 -2 -2 -2
0 -0 -0 -1 -2 -2 -2 -2 -2 -2 -2 -2 -2 -2 -2 -2 -2 -2 -2 -2 -2 -2 -2 -2 -2 -2 -2 -2 -2 -2 -2 -2 -1 -0 0 -1 -1 -2 -2 -2 -2 -2 -2
0 0 -0 -1 -1 -2 -2 -2 -2 -2 -2 -2 -2 -2 -2 -2 -2 -2 -2 -2 -2 -2 -2 -2 -2 -2 -2 -2 -2 -2 -2 -1 0 0 0 0 -1 -2 -2 -2 -2 -2 -2
0 0 -0 1 -0 -1 -2 -2 -2 -2 -2 -2 -2 -2 -2 -2 -2 -2 -2 -2 -2 -2 -2 -2 -2 -2 -2 -2 -2 -2 -2 -2 -0 0 0 -1 -2 -2 -2 -2 -2 -2 -1
0 0 0 0 0 0 -0 -1 -2 -2 -2 -2 -2 -2 -2 -2 -2 -2 -2 -2 -2 -2 -2 -2 -2 -2 -2 -2 -2 -1 -1 -2 0 0 -0 -1 -2 -2 -2 -2 -1 -1 -1
0 0 0 0 0 0 0 1 -0 -1 -1 -2 -1 -1 -1 -1 -2 -2 -1 -2 -2 -2 -2 -2 -2 -2 -2 -2 -2 -1 -1 -1 1 1 1 -1 -2 -2 -2 -1 -1 -1 -1
1 1 1 0 1 0 0 1 1 -0 -0 -0 -0 0 1 1 0 0 -1 -2 -2 -2 -1 -2 -2 -2 -1 -1 -1 -1 -0 1 1 1 0 -2 -2 -2 -1 -1 -0 -0 -0
2 1 1 1 0 1 -0 0 0 0 0 1 1 1 1 1 1 0 1 -1 -1 -1 -2 -2 -2 -1 1 3 2 1 2 2 1 1 -1 -2 -1 -1 -0 -0 0 0 0
2 2 1 0 0 0 -0 -0 1 1 1 1 1 1 2 2 2 1 1 1 1 1 1 1 2 3 3 3 3 3 2 2 2 0 -1 -2 -1 -1 -1 0 1 1 1
3 2 2 1 0 0 0 0 -0 0 2 2 2 2 3 3 3 3 3 3 3 4 4 4 4 4 4 4 3 3 3 1 2 1 -0 -1 -1 -1 -0 0 1 1 1
3 3 3 1 0 1 1 1 0 0 1 2 3 3 3 4 4 4 4 4 4 5 5 5 5 5 4 4 4 4 4 2 1 2 1 1 -1 -1 -0 0 1 1 2
3 3 3 2 1 0 1 1 1 1 -0 2 3 3 3 4 4 4 5 5 5 5 5 5 5 5 5 5 5 5 4 4 3 3 3 2 -0 -1 -0 0 1 1 2
3 3 3 2 1 1 0 1 0 1 1 1 2 3 3 3 4 5 5 4 4 4 4 4 5 5 6 6 6 6 6 5 5 4 4 3 2 0 -0 0 1 1 1
4 4 3 1 1 1 1 1 0 0 1 1 1 2 2 2 3 3 3 5 4 4 4 6 6 6 6 6 6 6 6 7 6 6 6 6 5 4 1 -0 1 1 1
4 3 3 2 2 2 1 1 1 1 0 1 1 1 1 2 2 3 4 4 4 5 5 6 7 7 8 8 8 8 8 8 7 7 7 7 7 6 6 2 1 1 1
3 3 2 2 2 2 1 2 2 2 1 1 0 0 1 1 2 3 3 4 5 5 5 6 7 9 8 9 10 11 11 10 10 9 8 8 8 7 6 6 6 5 1
3 3 2 2 2 2 2 2 2 2 1 2 2 1 0 1 1 2 4 4 5 6 6 6 8 9 10 11 11 11 12 12 13 12 10 10 10 9 9 8 7 7 6
5 2 2 2 2 2 1 2 2 1 1 2 2 2 1 0 1 2 2 4 5 5 6 7 8 10 11 11 10 12 11 11 12 12 13 12 10 11 10 10 9 9 8
10 6 3 2 2 1 1 4 6 5 5 5 5 3 2 1 0 1 2 2 4 5 6 7 7 8 10 12 11 9 13 12 14 14 13 12 12 11 10 11 11 10 9
11 10 5 3 2 2 2 3 3 2 3 2 2 4 5 3 2 1 1 2 4 4 4 6 6 7 7 11 11 11 11 11 13 12 15 15 13 13 11 11 11 11 10
10 11 9 5 3 3 2 2 3 3 4 5 6 5 6 6 3 2 1 1 3 4 3 4 6 7 6 8 10 12 11 11 12 13 9 11 15 15 12 12 11 11 11
10 9 8 6 4 3 3 4 4 4 5 7 7 7 7 7 6 5 2 1 2 3 3 4 5 6 6 6 7 8 9 11 11 12 12 11 11 14 14 13 13 11 11

GFSSE_con_lsi_075.txt.gz
Lid_Strength_Index
0 -1 -2 -2 -2 -2 -2 -2 -2 -2 -2 -2 -2 -2 -2 -2 -2 -3 -2 -3 -3 -2 -2 -2 -2 -2 -2 -2 -2 -2 -2 -2 -3 -2 -2 -3 -2 -2 -2 -2 -2 -1 -2
-1 -1 -1 -2 -2 -2 -2 -2 -2 -2 -2 -2 -2 -2 -2 -2 -2 -2 -2 -3 -2 -2 -2 -2 -2 -2 -2 -2 -2 -2 -2 -2 -2 -2 -2 -3 -3 -2 -2 -2 -2 -1 -2
-0 -1 -1 -2 -2 -2 -2 -2 -2 -2 -2 -2 -2 -2 -2 -2 -2 -2 -2 -3 -2 -2 -2 -2 -2 -2 -2 -2 -2 -2 -2 -2 -2 -2 -2 -2 -2 -2 -2 -2 -2 -2 -2
-1 -1 -1 -1 -2 -2 -2 -2 -2 -2 -2 -2 -2 -2 -2 -2 -2 -2 -2 -3 -2 -2 -2 -2 -2 -2 -1 -1 -1 -1 -2 -2 -1 -1 -1 -1 -1 -2 -2 -2 -2 -2 -2
-1 -1 -1 -1 -2 -2 -2 -2 -2 -2 -2 -2 -2 -2 -2 -2 -2 -2 -2 -3 -2 -2 -2 -2 -2 -2 -2 -2 -2 -2 -2 -2 -2 -2 -1 -2 -2 -2 -2 -2 -2 -2 -2
-1 -1 -1 -1 -2 -2 -2 -2 -2 -2 -2 -2 -2 -2 -2 -2 -2 -2 -2 -2 -2 -2 -2 -2 -2 -2 -2 -2 -2 -2 -2 -2 -2 -1 -1 -2 -2 -2 -2 -2 -2 -2 -2
-0 -1 -1 -1 -2 -2 -2 -2 -2 -2 -2 -2 -2 -2 -2 -2 -2 -2 -2 -2 -2 -2 -2 -2 -2 -2 -2 -2 -2 -2 -2 -2 -2 -2 -2 -2 -2 -2 -2 -2 -2 -2 -2
-0 -1 -1 -0 -1 -2 -2 -2 -2 -2 -2 -2 -2 -2 -2 -2 -2 -2 -2 -2 -2 -2 -2 -2 -2 -2 -2 -2 -2 -2 -2 -2 -1 -2 -2 -1 -2 -2 -2 -2 -2 -2 -1
-1 -1 -1 -1 -1 -0 -1 -1 -2 -2 -2 -2 -2 -2 -2 -2 -2 -2 -2 -2 -2 -2 -2 -2 -2 -2 -2 -2 -2 -2 -2 -2 -2 -2 -1 -2 -2 -2 -2 -2 -2 -1 -1
-0 -1 -1 -1 -1 -1 -1 0 -0 -1 -1 -1 -1 -1 -1 -1 -2 -2 -1 -2 -2 -2 -2 -2 -2 -2 -2 -2 -2 -2 -1 -1 -1 -2 -2 -2 -2 -2 -2 -1 -1 -1 -0
0 -0 -1 -1 -1 -1 -1 -0 0 -0 -0 -0 -0 0 0 -1 -1 -1 -1 -2 -2 -2 -2 -2 -2 -2 -1 -2 -1 -1 -0 -1 -1 -2 -2 -2 -2 -2 -1 -1 -0 -0 0
2 1 -0 -0 -1 -1 -1 -1 -1 -1 -1 -1 -1 -1 -1 -1 -1 -1 -0 -0 -1 -1 -2 -2 -2 -0 0 -1 -1 -0 -1 -1 -1 -1 -1 -2 -1 -1 -1 -0 -0 0 0
1 1 1 -0 -0 -0 -1 -1 -1 -1 -1 -1 -1 -1 -1 -0 -1 -1 -1 -1 -2 0 -1 -1 0 0 0 -0 -1 -1 -1 -1 -1 -1 -1 -2 -1 -1 -0 0 1 1 1
2 2 1 0 1 0 -1 -0 -1 -1 -1 -0 -0 -0 0 1 0 -0 -1 -1 -1 0 1 1 1 1 1 1 -0 -0 -0 -1 -1 -1 -1 -1 -2 -1 -0 0 1 1 1
2 2 2 1 1 1 1 -0 -1 -1 0 0 1 1 1 1 1 1 0 0 1 2 2 2 2 2 2 2 1 0 0 -0 -1 -1 -1 1 -1 -1 -1 -0 0 1 1
2 2 1 1 0 0 1 1 0 -1 -1 1 1 1 2 2 2 2 1 1 1 1 2 2 2 2 2 2 2 2 1 1 0 -0 -0 -0 -0 -1 -1 -0 -0 0 1
2 2 2 1 1 1 1 1 0 0 -0 -0 1 2 2 2 3 3 2 2 2 2 2 3 4 4 3 4 4 3 3 2 1 1 1 1 -0 0 -1 -0 -0 -0 0
3 2 2 1 1 1 0 1 1 1 0 -0 1 1 2 2 3 3 3 2 2 2 3 3 4 4 5 5 5 5 5 5 3 3 3 2 1 0 -0 -1 -1 -0 -0
3 2 2 1 1 1 1 0 0 1 1 0 0 2 2 2 2 2 3 3 3 3 4 4 4 5 6 5 4 6 5 6 6 6 5 4 4 2 1 0 -0 0 -0
2 2 2 2 1 1 1 1 1 1 1 1 1 1 1 1 1 1 2 3 4 4 4 5 5 5 5 5 7 8 7 7 8 6 6 7 6 5 4 4 2 1 1
1 2 2 2 1 1 1 2 2 2 1 1 1 1 1 1 2 2 3 3 4 5 5 5 5 8 8 8 10 8 8 8 8 7 6 6 6 7 7 6 5 4 3
4 1 1 1 1 1 1 1 1 1 1 1 1 2 1 1 1 2 3 3 3 3 5 6 7 8 7 10 8 10 8 7 8 7 7 8 6 6 6 6 7 6 6
9 5 2 1 1 0 0 1 3 3 3 3 3 2 2 1 1 1 2 2 3 3 4 5 6 6 7 10 10 8 11 10 9 9 9 9 8 7 6 6 6 7 7
9 10 5 2 1 1 1 1 1 2 2 1 1 1 1 1 1 1 2 2 3 4 4 4 5 6 6 9 10 9 9 9 10 10 11 11 10 10 8 7 7 8 8
8 8 9 5 2 1 1 1 1 2 2 3 3 3 3 3 1 1 1 1 2 3 3 3 5 6 6 5 8 10 9 9 11 11 9 8 13 12 10 9 7 8 8
8 7 5 5 3 2 1 2 2 2 3 4 4 4 4 4 4 3 2 1 1 2 3 3 4 5 5 6 5 7 8 10 10 10 11 9 9 7 10 11 10 9 8

GFSSE_con_lsi_078.txt.gz
Lid_Strength_Index
0 -1 -2 -2 -2 -2 -2 -2 -1 -2 -2 -2 -2 -2 -2 -2 -2 -2 -3 -3 -2 -2 -2 -2 -2 -2 -2 -2 -2 -2 -2 -2 -2 -2 -2 -2 -2 -2 -2 -2 -2 -2 -2
-1 -1 -1 -2 -2 -2 -2 -2 -2 -1 -2 -2 -2 -2 -2 -2 -2 -2 -3 -3 -2 -2 -2 -2 -2 -2 -2 -2 -2 -2 -2 -2 -2 -2 -2 -2 -2 -2 -2 -2 -2 -2 -2
-1 -1 -1 -2 -2 -2 -2 -2 -2 -1 -2 -2 -2 -2 -2 -2 -2 -2 -2 -3 -2 -2 -2 -2 -2 -2 -2 -2 -2 -2 -2 -2 -2 -2 -2 -1 -2 -2 -2 -2 -2 -2 -2
-1 -1 -1 -1 -2 -2 -2 -2 -2 -1 -2 -2 -2 -2 -2 -2 -2 -2 -2 -2 -2 -2 -2 -2 -2 -1 -1 -2 -2 -2 -2 -2 -2 -2 -1 -1 -1 -2 -2 -2 -2 -2 -2
-1 -1 -1 -1 -2 -2 -2 -2 -2 -1 -2 -2 -2 -2 -2 -2 -2 -2 -2 -2 -2 -2 -2 -2 -2 -2 -2 -2 -2 -2 -2 -2 -2 -2 -1 -1 -2 -2 -2 -2 -2 -2 -2
-1 -1 -1 -1 -2 -2 -2 -2 -2 -1 -2 -2 -2 -2 -2 -2 -2 -2 -3 -3 -2 -2 -2 -2 -2 -2 -2 -2 -2 -2 -2 -3 -2 -2 -2 -2 -2 -2 -2 -2 -2 -2 -3
-1 -1 -1 -1 -2 -2 -2 -2 -2 -2 -2 -2 -2 -2 -2 -2 -2 -2 -2 -3 -2 -2 -2 -2 -2 -2 -2 -2 -2 -2 -2 -3 -2 -2 -2 -2 -2 -2 -2 -2 -2 -2 -2
-1 -1 -1 -0 -1 -2 -2 -2 -2 -2 -2 -2 -2 -2 -2 -2 -2 -2 -2 -2 -2 -2 -2 -2 -2 -2 -2 -2 -2 -2 -2 -2 -1 -2 -2 -2 -2 -2 -2 -2 -2 -2 -1
-1 -1 -1 -1 -1 -0 -1 -1 -2 -2 -2 -2 -2 -2 -2 -2 -2 -2 -3 -2 -2 -2 -2 -2 -2 -2 -2 -2 -2 -2 -2 -2 -2 -2 -1 -2 -2 -2 -2 -2 -1 -1 -1
-1 -1 -1 -1 -1 -2 -2 0 -0 -1 -1 -1 -2 -1 -1 -1 -2 -2 -1 -2 -2 -2 -2 -2 -1 -2 -2 -2 -2 -2 -1 -2 -2 -2 -2 -2 -2 -2 -1 -1 -1 -0 -0
0 -0 -1 -1 -1 -1 -1 -0 0 0 -0 -0 -1 0 -0 -2 -2 -1 -1 -2 -2 -2 -2 -2 -1 -1 -1 -1 -1 -1 -1 -2 -2 -2 -1 -2 -2 -2 -1 -0 0 0 0
1 0 -1 -1 -1 -1 -1 -2 -2 -1 -2 -2 -2 -2 -2 -2 -2 -1 -0 -1 -1 -2 -2 -1 -1 -0 -1 -2 -2 -0 -2 -2 -2 -2 -1 -2 -1 -1 -0 0 0 1 1
1 0 -0 -1 -1 -1 -1 -1 -1 -2 -2 -2 -2 -2 -2 -2 -2 -2 -2 -2 -2 -1 -2 -2 -1 -2 -1 -2 -2 -2 -2 -2 -2 -2 -1 -2 -1 -1 -1 0 1 1 1
1 0 -0 -0 -0 -1 -1 -1 -1 -1 -1 -1 -2 -2 -2 -1 -1 -1 -1 -2 -2 -2 -2 -2 -1 -1 -1 -1 -1 -1 -1 -1 -1 -1 -1 -0 -1 -1 -1 -0 0 1 1
1 1 0 -0 -0 0 -0 -1 -1 -1 -1 -1 -1 -2 -1 -1 -1 -1 -1 -1 -1 -1 -1 -1 -1 -1 -1 -0 -1 -1 -1 -1 -1 -1 -1 1 -1 -1 -1 -1 -0 0 1
1 1 0 1 -0 -1 -0 -0 -1 -1 -1 -1 -1 -1 -1 -0 -0 -1 -1 -1 -0 -0 -0 -0 -0 -0 -0 -1 -1 -1 -1 -1 -1 -1 -1 -1 -0 -1 -1 -1 -1 -1 -0
1 0 0 0 -0 -0 -0 -0 -1 -1 -1 -1 -1 -1 -1 -0 0 1 -0 -0 -0 -0 0 0 0 0 0 0 0 0 -0 -1 -1 -1 -1 -1 -1 1 -1 -1 -1 -1 -1
1 1 0 -0 0 -0 -0 -0 -1 -0 -0 -0 -1 -1 -1 -0 0 1 1 0 0 1 -0 0 1 1 1 1 1 1 1 1 0 0 -0 -0 -1 -0 -0 -1 -1 -1 -1
1 1 1 -0 0 1 0 0 -0 0 0 -0 -0 -1 -1 -0 0 1 1 1 1 1 2 2 2 2 2 2 3 2 1 2 1 1 1 0 0 0 -0 -0 -0 -0 -1
1 0 0 0 -0 -0 1 1 0 1 1 0 -0 -0 -0 -0 -0 0 -0 -0 2 2 2 3 3 3 3 4 5 4 3 3 2 2 2 1 0 1 1 0 0 1 1
1 1 1 1 0 0 1 2 2 2 2 1 0 -0 -0 0 -0 -0 1 2 2 2 2 2 4 4 5 4 5 5 4 3 3 3 3 3 2 2 1 2 1 1 1
3 1 1 1 0 0 0 0 0 1 1 1 0 1 1 1 1 1 2 2 2 3 3 2 3 4 5 6 6 7 7 3 5 4 3 3 3 2 3 2 2 2 1
6 3 1 1 0 0 -0 0 1 1 1 1 0 1 0 -0 1 1 1 2 2 3 3 3 4 5 4 4 7 7 10 9 5 3 4 4 4 5 3 4 4 3 3
5 6 3 0 0 0 -0 1 1 2 2 1 1 0 0 1 -0 0 1 1 1 2 3 3 4 4 5 5 5 7 5 6 7 6 4 6 6 6 5 5 5 5 4
4 5 5 2 0 0 0 0 1 2 1 0 0 0 -0 -0 -0 -0 0 1 2 2 2 3 4 4 4 4 7 7 8 8 8 9 8 5 6 7 7 6 6 4 4
3 2 3 3 1 0 0 0 1 1 1 1 1 1 1 0 0 0 1 1 1 1 2 2 2 3 4 4 4 5 7 9 9 10 10 7 7 4 5 6 5 6 5

GFSSE_con_lsi_081.txt.gz
Lid_Strength_Index
0 -1 -2 -2 -1 -1 -1 -1 -1 -1 -1 -2 -2 -2 -2 -2 -2 -2 -2 -2 -2 -2 -2 -2 -2 -2 -2 -2 -2 -2 -2 -2 -2 -2 -2 -2 -2 -2 -2 -2 -2 -1 -2
-1 -1 -1 -2 -1 -1 -1 -1 -1 -1 -1 -2 -2 -2 -2 -2 -2 -2 -2 -2 -2 -2 -2 -2 -2 -2 -2 -2 -2 -2 -2 -2 -2 -2 -2 -2 -2 -2 -2 -2 -2 -1 -2
-0 -1 -1 -2 -2 -1 -1 -2 -1 -1 -1 -2 -2 -2 -2 -2 -2 -2 -2 -2 -2 -2 -2 -2 -2 -2 -2 -2 -2 -2 -2 -2 -2 -2 -2 -1 -1 -2 -2 -2 -2 -2 -2
-1 -1 -1 -1 -2 -2 -2 -2 -2 -1 -2 -2 -2 -2 -2 -2 -2 -2 -2 -2 -2 -2 -2 -2 -2 -2 -2 -2 -2 -2 -2 -2 -2 -2 -1 -1 -1 -2 -2 -2 -2 -2 -2
-1 -1 -1 -1 -2 -2 -2 -2 -1 -1 -2 -2 -2 -2 -2 -2 -2 -2 -2 -2 -2 -2 -2 -2 -2 -2 -2 -2 -2 -2 -2 -3 -2 -2 -1 -1 -1 -2 -2 -2 -2 -2 -2
-1 -1 -1 -1 -2 -2 -2 -2 -1 -1 -2 -2 -2 -2 -1 -2 -2 -2 -2 -2 -3 -2 -2 -2 -2 -2 -2 -2 -2 -2 -3 -3 -2 -1 -1 -2 -1 -2 -2 -2 -2 -2 -2
-0 -1 -1 -1 -1 -2 -2 -2 -1 -2 -2 -2 -2 -2 -2 -2 -2 -3 -3 -2 -3 -2 -2 -2 -2 -2 -2 -2 -2 -2 -3 -2 -1 -1 -1 -1 -1 -2 -2 -2 -2 -2 -2
-0 -1 -1 0 -1 -1 -2 -2 -2 -2 -2 -2 -2 -2 -2 -2 -2 -2 -2 -2 -2 -2 -2 -2 -2 -2 -2 -2 -2 -2 -2 -2 -1 -1 -1 -1 -2 -2 -2 -2 -2 -1 -1
-1 -0 -1 -1 -1 -0 -1 -1 -1 -2 -2 -2 -2 -2 -2 -2 -2 -2 -2 -2 -2 -2 -2 -2 -2 -2 -2 -2 -2 -2 -2 -2 -1 -1 -1 -1 -2 -2 -2 -1 -1 -1 -1
-0 -0 -0 -1 -1 -1 -1 0 -0 -1 -1 -1 -2 -1 -1 -2 -2 -2 -2 -2 -2 -2 -2 -2 -2 -2 -2 -2 -2 -2 -2 -1 -1 -1 -1 -1 -2 -2 -2 -1 -1 -0 -0
0 0 -0 -1 -1 -1 -1 -0 0 0 0 -0 -1 -0 -0 -2 -1 -1 -1 -2 -3 -2 -2 -1 -1 -1 -2 -2 -1 -1 -1 -1 -1 -1 -1 -2 -2 -2 -1 -0 -0 0 0
1 1 0 0 -1 -1 -1 -1 -1 -1 -1 -1 -1 -1 -1 -1 -1 -1 -0 -1 -1 -2 -2 -1 -1 -1 -1 -1 -1 -0 -1 -1 -1 -1 -1 -2 -1 -1 -1 -0 0 1 1
1 0 -0 -0 -1 -0 -1 -1 -1 -1 -1 -1 -1 -1 -1 -1 -1 -1 -1 -1 -2 -0 -1 -1 -1 -1 -1 -1 -1 -1 -1 -1 -1 -1 -0 -2 -1 -1 -0 0 1 1 1
1 1 -0 -0 -0 -1 -1 -1 -1 -1 -1 -1 -1 -1 -1 -1 -1 -1 -1 -1 -2 -1 -1 -1 -1 -1 -1 -1 -1 -1 -1 -1 -1 -1 -0 -0 -1 -1 -1 -1 -0 0 0
1 1 0 -0 -0 -0 -0 -1 -1 -1 -1 -1 -1 -1 -1 -1 -1 -1 -1 -1 -1 -1 -1 -1 -1 -1 -1 -1 -1 -1 -1 -1 -1 -1 -1 1 -1 -1 -1 -1 -1 -1 -0
1 1 0 -0 -1 -1 -0 -0 -1 -1 -1 -1 -1 -1 -1 -1 -1 -1 -1 -1 -1 -1 -0 -1 -1 -1 -1 -1 -1 -1 -1 -1 -1 -1 -1 -1 -0 -1 -2 -2 -2 -1 -1
1 0 0 0 -0 -0 -0 0 0 -1 -1 -1 -1 -1 -1 -1 -0 -0 -0 -1 -1 -1 -1 0 -0 -1 -0 -0 -1 -1 -1 -1 -1 -1 -1 -1 -1 0 -1 -2 -2 -2 -2
1 1 0 -0 1 0 1 1 1 0 -0 -0 -1 -1 -1 -1 -0 -0 0 -0 -1 -0 -0 -0 0 0 0 0 1 0 0 -0 -0 -1 -1 -1 -1 -1 -0 -1 -2 -2 -2
1 1 1 0 0 1 0 1 1 0 1 -0 -0 -0 -1 -1 -1 -0 0 0 -0 -1 -0 -0 0 1 1 1 1 1 1 1 0 1 1 0 -0 -0 -1 -1 -0 -1 -2
1 0 0 0 0 -0 1 1 1 0 0 -0 -0 0 1 -1 -1 -1 -1 -1 -0 1 2 2 2 2 3 3 3 3 3 2 2 2 1 1 1 0 0 0 -0 0 1
1 1 1 1 0 0 1 1 1 1 0 -0 -0 0 0 0 0 0 -1 -0 0 2 2 2 3 3 3 2 5 4 3 3 2 2 2 2 2 1 0 0 1 1 0
1 1 1 1 0 0 0 0 1 0 0 0 -0 -0 -1 -0 0 1 1 1 1 2 2 2 3 4 3 2 5 7 7 5 1 2 2 2 2 2 2 1 1 2 1
5 2 1 1 0 0 0 0 0 1 0 1 1 0 -0 -1 0 1 0 1 1 2 3 3 3 3 5 3 6 6 9 8 5 2 2 3 3 3 2 3 3 2 2
4 4 2 0 0 0 -0 1 1 2 2 1 1 0 -0 -0 -0 -1 -1 -0 1 1 2 2 2 3 4 5 5 5 5 4 6 6 2 3 3 4 3 4 4 3 3
3 4 4 1 0 0 0 0 1 2 1 1 1 1 1 -0 -0 -0 -0 -0 0 1 1 2 2 3 3 4 4 5 6 6 7 7 7 5 4 5 4 4 4 4 3
2 3 4 2 1 0 0 0 1 1 2 2 1 1 1 1 1 0 0 0 1 2 2 1 1 2 3 3 3 3 5 6 7 8 8 6 5 4 3 4 4 4 4

GFSSE_con_lsi_084.txt.gz
Lid_Strength_Index
1 -0 -2 -2 -1 -1 -1 -1 -1 -2 -2 -2 -2 -2 -2 -2 -2 -2 -2 -2 -2 -2 -2 -2 -2 -2 -2 -2 -2 -2 -2 -2 -2 -2 -2 -2 -2 -2 -2 -2 -2 -1 -2
-0 -1 -1 -2 -2 -1 -1 -1 -2 -2 -2 -2 -2 -2 -2 -2 -2 -2 -2 -2 -2 -2 -2 -2 -2 -2 -2 -2 -2 -2 -2 -2 -2 -2 -2 -2 -2 -2 -2 -2 -2 -1 -2
0 -1 -1 -2 -2 -2 -2 -1 -2 -2 -2 -2 -2 -2 -2 -2 -2 -2 -2 -3 -2 -2 -2 -2 -2 -2 -2 -2 -2 -2 -2 -2 -2 -2 -2 -1 -1 -2 -2 -2 -2 -2 -2
-0 -0 -1 -1 -2 -2 -2 -2 -2 -2 -2 -2 -2 -2 -2 -2 -2 -2 -2 -3 -2 -2 -2 -2 -2 -2 -2 -2 -2 -2 -2 -3 -3 -2 -1 -1 -1 -2 -2 -2 -2 -2 -2
0 -0 -1 -1 -2 -2 -2 -2 -2 -2 -2 -2 -2 -2 -2 -2 -2 -2 -2 -2 -2 -2 -2 -2 -2 -2 -2 -2 -2 -2 -2 -3 -2 -1 -1 -0 -0 -2 -2 -2 -2 -2 -2
0 -0 -1 -1 -2 -2 -2 -2 -2 -2 -2 -2 -2 -2 -2 -2 -2 -2 -2 -3 -2 -2 -2 -2 -2 -2 -2 -2 -2 -2 -3 -3 -2 -1 -1 -1 -1 -2 -2 -2 -2 -2 -3
0 -0 -1 -1 -2 -2 -2 -2 -2 -2 -2 -2 -2 -2 -2 -2 -2 -2 -3 -2 -2 -2 -2 -2 -2 -2 -2 -2 -2 -2 -3 -2 -0 -0 -1 -1 -0 -2 -2 -2 -2 -2 -2
0 -0 -1 0 -1 -1 -1 -1 -2 -2 -2 -2 -2 -2 -2 -2 -2 -2 -2 -2 -2 -2 -2 -2 -2 -2 -2 -2 -2 -3 -2 -2 -0 -0 0 -0 -2 -2 -2 -2 -1 -1 -1
-0 -0 -0 -1 -0 -0 -1 -1 -1 -2 -2 -2 -2 -2 -2 -2 -2 -2 -2 -2 -2 -2 -2 -2 -2 -2 -2 -2 -2 -2 -2 -2 1 -0 -1 -0 -2 -2 -1 -1 -1 -1 -1
-0 -0 0 0 -0 -0 -0 0 0 -1 -1 -2 -2 -1 -1 -1 -2 -2 -1 -2 -2 -2 -2 -2 -2 -2 -2 -2 -2 -1 -1 -1 1 -0 -0 -0 -2 -2 -1 -1 -1 -1 -1
1 0 -0 0 0 -0 -0 1 1 0 -0 -1 -1 -0 -0 -0 -0 -0 -1 -2 -2 -2 -2 -1 -1 -2 -2 -2 -1 -1 -0 0 1 1 1 -1 -1 -1 -0 0 0 0 0
2 1 0 -0 0 0 -1 -0 -0 -0 -0 -0 -0 0 -0 -0 0 -0 0 -1 -1 -1 -2 -1 -1 -1 -1 0 1 -0 1 0 1 1 1 -2 -1 -1 -0 0 0 1 1
1 1 0 0 -0 0 0 0 0 -0 0 0 0 0 0 0 0 0 0 0 0 1 0 -0 0 0 0 1 1 1 1 1 1 1 0 -2 -2 -1 -1 -1 -0 0 0
2 1 0 -0 0 -0 0 0 0 0 0 0 0 0 0 1 1 1 1 1 1 1 1 1 1 1 1 0 1 1 1 1 1 1 1 -0 -2 -1 -2 -1 -1 -1 -0
2 2 1 0 1 -0 -0 1 0 0 0 0 0 0 0 1 1 1 1 1 1 1 1 1 1 1 1 1 1 0 1 1 1 1 1 1 -1 -2 -2 -2 -2 -2 -1
2 2 1 1 0 0 0 1 1 0 0 0 0 0 0 1 1 1 1 1 1 1 1 1 2 1 1 1 1 1 1 1 1 1 1 1 0 -1 -2 -2 -2 -2 -2
2 2 1 1 0 0 0 -0 0 1 0 0 0 0 0 0 1 2 1 1 1 1 2 2 2 2 2 1 1 1 1 1 1 1 1 1 1 0 -1 -2 -2 -2 -2
2 2 1 1 1 0 0 0 0 -0 0 0 0 -0 0 0 1 2 2 2 2 2 2 2 2 3 3 3 3 3 2 2 2 2 1 1 1 1 1 -1 -2 -2 -2
2 2 2 1 1 1 0 0 -0 0 -0 -0 0 -0 -0 0 0 1 2 3 2 2 2 2 2 3 3 3 2 3 3 3 3 2 3 2 2 2 2 1 1 -0 -2
2 2 1 1 1 0 0 0 0 0 0 0 0 1 -0 -0 -0 1 1 2 2 3 3 3 2 3 3 3 4 4 5 4 4 4 3 3 2 3 2 2 2 2 1
2 2 2 2 1 1 1 1 1 1 1 0 0 0 -0 0 1 1 1 2 1 3 2 2 3 4 4 4 5 6 5 5 4 5 4 3 3 3 3 3 2 1 1
4 3 2 2 2 1 2 1 1 1 0 0 0 -0 -0 0 1 2 1 1 2 3 3 3 4 4 4 4 6 7 8 6 4 4 4 3 3 4 3 3 3 2 2
8 6 3 2 2 1 1 2 1 1 1 1 1 1 0 -0 0 1 1 1 2 2 3 3 4 4 4 4 5 5 8 8 6 3 4 4 3 4 3 3 3 2 2
7 7 6 3 2 2 1 2 2 2 3 1 1 1 0 0 0 0 0 0 1 1 2 2 2 3 3 4 5 5 4 5 6 6 3 3 4 4 4 4 4 3 3
5 7 7 4 3 2 2 2 2 3 2 1 1 1 1 1 1 0 1 1 1 1 1 2 3 3 3 3 4 5 6 5 5 6 6 4 4 4 5 5 4 3 3
6 7 6 4 3 2 2 2 2 2 2 2 2 2 2 2 1 1 1 1 1 1 1 1 1 2 2 2 2 2 4 4 5 6 6 5 5 4 4 3 4 5 5

GFSSE_con_lsi_087.txt.gz
Lid_Strength_Index
1 -0 -2 -2 -2 -2 -1 -1 -2 -2 -2 -2 -2 -2 -2 -2 -2 -2 -2 -2 -2 -2 -2 -2 -2 -2 -2 -2 -2 -2 -2 -2 -2 -2 -2 -2 -2 -2 -2 -2 -2 -1 -2
-0 -1 -1 -2 -2 -2 -1 -2 -2 -2 -2 -2 -2 -2 -2 -2 -2 -2 -2 -2 -2 -2 -2 -2 -2 -2 -2 -2 -2 -2 -2 -2 -2 -2 -2 -2 -2 -2 -2 -2 -2 -1 -2
-0 -1 -1 -1 -2 -1 -1 -2 -2 -2 -2 -2 -2 -2 -2 -2 -2 -2 -2 -2 -2 -2 -2 -2 -2 -2 -2 -2 -2 -2 -2 -3 -2 -2 -2 -0 -1 -2 -2 -2 -2 -2 -2
-0 -1 -1 -1 -2 -2 -2 -2 -2 -2 -2 -2 -2 -2 -2 -2 -2 -2 -2 -2 -2 -2 -2 -2 -2 -2 -2 -2 -2 -2 -3 -3 -2 -2 -1 -1 -1 -2 -2 -2 -2 -2 -2
-0 -1 -1 -1 -2 -2 -2 -2 -2 -2 -2 -2 -2 -2 -2 -2 -2 -2 -2 -2 -2 -2 -2 -2 -2 -2 -2 -2 -2 -3 -2 -3 -2 -1 -0 0 -0 -2 -2 -2 -2 -2 -3
-0 -1 -1 -1 -2 -2 -2 -2 -2 -2 -2 -2 -2 -2 -2 -2 -2 -2 -2 -2 -3 -2 -2 -2 -2 -2 -2 -2 -2 -2 -3 -2 -2 -0 -0 -1 -1 -2 -2 -2 -2 -2 -2
-0 -0 -1 -1 -2 -2 -2 -2 -2 -2 -2 -2 -2 -2 -2 -2 -2 -2 -2 -2 -2 -2 -2 -2 -2 -2 -2 -2 -2 -2 -3 -3 0 0 -0 0 -1 -2 -2 -2 -2 -2 -2
-0 -0 -1 0 -1 -1 -1 -2 -2 -2 -2 -2 -2 -2 -2 -2 -2 -2 -2 -2 -2 -2 -2 -2 -2 -2 -2 -2 -2 -3 -2 -2 -0 0 0 -0 -2 -2 -2 -1 -1 -1 -1
-0 -0 -0 -0 -0 0 -0 -1 -1 -2 -2 -2 -2 -2 -2 -2 -2 -2 -2 -2 -2 -2 -2 -2 -2 -2 -2 -2 -2 -2 -2 -1 1 0 -1 0 -3 -1 -1 -1 -1 -1 -1
0 0 0 0 -0 0 0 1 -0 -1 -1 -2 -2 -1 -1 -2 -2 -1 -0 -2 -2 -2 -2 -2 -2 -2 -2 -2 -2 -1 -1 -1 1 0 0 -0 -2 -1 -1 -0 0 0 0
1 0 0 0 0 -0 0 1 1 -0 -1 -1 -1 -0 0 -0 -0 -0 -1 -1 -2 -2 -2 -1 -1 -2 -2 -1 -1 -1 -0 1 1 1 1 -2 -1 -1 -0 0 0 0 1
2 1 1 1 0 -0 -1 0 0 0 -0 -0 -0 0 -0 0 0 -0 0 -1 -1 -2 -2 -2 -1 -2 -0 1 1 0 1 1 1 1 1 -2 -1 -1 -1 -0 0 0 0
1 1 0 0 1 1 0 0 0 0 1 0 0 1 1 0 1 0 1 1 1 1 0 -0 1 1 1 1 1 1 1 1 1 1 0 -2 -2 -2 -1 -1 -1 -0 -0
2 1 1 0 0 1 1 1 0 0 1 1 1 1 1 1 1 1 1 1 1 2 1 1 1 1 1 1 1 1 1 1 1 1 1 -0 -2 -2 -2 -2 -2 -2 -1
2 1 1 0 0 0 1 1 1 1 1 1 1 1 1 1 1 1 1 1 1 1 1 2 2 1 1 1 1 1 1 1 1 1 2 2 -1 -2 -2 -2 -2 -2 -2
2 2 1 1 0 1 0 1 0 0 1 1 1 1 1 1 1 1 2 2 2 2 2 2 2 2 2 2 1 1 1 1 1 1 1 1 0 -1 -2 -2 -2 -2 -2
2 2 1 1 1 0 1 1 1 0 -0 0 1 1 1 1 2 2 2 2 2 2 2 3 3 2 3 2 2 2 2 1 1 1 1 1 1 1 -0 -2 -2 -2 -2
3 2 1 1 1 0 0 0 1 1 1 1 0 0 1 1 1 2 2 2 2 2 2 3 3 3 3 3 3 3 3 3 3 3 2 2 2 2 1 -0 -1 -1 -2
3 2 2 2 2 1 0 -0 -0 -0 1 1 0 0 0 0 1 2 2 3 3 3 3 3 3 3 4 3 3 2 3 4 4 3 3 3 3 2 2 1 1 0 -1
3 2 2 2 2 2 0 0 0 0 -0 -0 -0 -0 -0 -0 -0 1 2 2 3 3 2 4 3 2 3 3 3 4 4 4 4 5 4 3 3 3 2 2 2 1 1
3 2 2 2 2 2 1 1 1 1 0 0 -0 -0 -0 -0 1 1 1 2 2 2 3 3 3 3 4 4 5 6 5 4 5 4 4 4 4 3 3 3 2 1 1
4 3 2 1 2 2 1 0 0 1 0 0 0 0 0 1 1 0 1 1 1 2 3 3 4 4 4 5 5 7 6 5 4 3 3 4 4 3 3 3 3 2 2
10 7 4 3 1 2 2 2 1 1 1 1 2 1 1 1 0 1 1 1 1 2 3 3 3 3 4 4 4 4 6 7 5 2 3 3 3 4 3 3 3 2 2
8 9 9 5 2 2 2 2 2 2 2 2 1 1 1 0 0 0 1 1 1 1 2 2 2 3 3 4 3 4 4 4 5 6 3 4 4 3 3 5 4 4 3
6 8 8 7 4 2 2 2 2 2 2 1 1 1 1 1 0 0 1 1 1 1 1 2 2 2 2 3 3 4 4 4 4 6 6 6 4 4 4 5 3 3 3
7 9 8 4 4 3 2 1 2 2 2 2 2 2 2 2 2 2 1 1 1 0 0 0 1 1 1 1 2 2 3 4 4 6 6 6 6 5 4 3 4 3 3

GFSSE_con_lsi_090.txt.gz
Lid_Strength_Index
1 -0 -1 -2 -2 -1 -2 -2 -2 -2 -2 -2 -2 -2 -2 -2 -2 -2 -2 -2 -2 -2 -2 -2 -2 -2 -2 -2 -2 -2 -2 -2 -2 -2 -2 -2 -2 -2 -2 -2 -2 -1 -2
-0 -0 -1 -2 -2 -1 -1 -2 -2 -2 -2 -2 -2 -2 -2 -2 -3 -2 -2 -3 -2 -2 -2 -2 -2 -2 -2 -2 -2 -2 -2 -2 -2 -2 -2 -2 -2 -2 -2 -2 -2 -1 -2
-0 -1 -1 -1 -1 -1 -2 -2 -2 -2 -2 -2 -2 -2 -2 -2 -2 -2 -2 -2 -2 -2 -2 -2 -2 -2 -2 -2 -2 -2 -2 -2 -2 -2 -2 0 -1 -2 -2 -2 -2 -2 -2
-0 -1 -1 -1 -1 -2 -2 -2 -2 -2 -2 -2 -2 -2 -2 -2 -2 -2 -2 -2 -2 -2 -2 -2 -2 -2 -2 -2 -2 -2 -2 -2 -2 -2 -0 -1 -1 -2 -2 -2 -2 -2 -2
-0 -1 -1 -1 -2 -2 -2 -2 -2 -2 -2 -3 -2 -2 -2 -2 -2 -2 -2 -2 -2 -2 -2 -2 -2 -2 -2 -2 -2 -2 -2 -2 -2 -1 -0 0 0 -2 -2 -2 -2 -2 -2
-0 -0 -1 -1 -2 -2 -2 -2 -2 -2 -2 -2 -2 -2 -2 -2 -2 -2 -2 -2 -2 -2 -2 -2 -2 -2 -2 -2 -2 -2 -2 -2 -2 0 0 -1 -0 -2 -2 -2 -2 -2 -2
0 -0 -1 -1 -2 -2 -2 -2 -2 -2 -2 -2 -2 -2 -2 -2 -2 -2 -2 -2 -2 -2 -2 -2 -2 -2 -2 -2 -2 -2 -2 -2 0 0 0 0 -0 -2 -2 -2 -2 -1 -1
0 -0 -0 0 -0 -1 -1 -2 -2 -2 -2 -2 -2 -2 -2 -2 -2 -2 -2 -2 -2 -2 -2 -2 -2 -2 -2 -2 -2 -2 -2 -2 -0 0 0 0 -2 -1 -1 -1 -1 -1 -1
-0 -0 0 0 0 0 -0 -1 -1 -2 -2 -2 -2 -2 -2 -2 -1 -2 -2 -2 -2 -2 -2 -2 -2 -2 -2 -2 -2 -2 -1 -1 1 0 -0 0 -2 -1 -1 -1 -0 -0 -0
0 0 0 0 0 1 -0 0 -0 -1 -2 -2 -2 -1 -1 -1 -1 -1 -1 -2 -2 -2 -2 -2 -2 -2 -2 -2 -2 -2 -1 -1 1 1 1 0 -2 -1 -1 -0 0 0 0
1 0 0 0 1 1 0 1 1 -0 -1 -1 -1 -0 -0 0 0 0 -0 -1 -2 -1 -1 -1 -2 -2 -1 -1 -1 -1 -0 2 1 1 1 -2 -1 -1 -1 -0 0 0 0
2 1 0 0 0 1 -1 0 0 0 0 -0 -0 0 0 1 0 -0 1 -0 -1 -1 -2 -1 -2 -1 -0 1 1 0 1 1 2 1 1 -2 -1 -1 -1 -1 -1 -0 -0
2 1 0 0 0 0 0 1 1 1 0 0 1 1 1 1 1 1 1 1 1 1 0 1 1 1 1 2 2 2 1 1 2 2 1 -1 -2 -2 -2 -2 -2 -1 -1
2 1 1 1 1 0 0 0 0 0 1 0 1 1 1 2 2 2 2 1 2 2 2 1 1 1 1 1 2 2 1 1 1 2 2 0 -2 -2 -2 -2 -2 -2 -2
2 1 1 1 1 1 1 0 0 1 1 1 1 1 1 2 2 2 2 2 2 2 2 2 2 2 2 2 2 2 1 1 1 1 1 2 -0 -2 -2 -2 -2 -2 -2
2 2 1 1 1 1 2 1 1 1 1 1 2 2 1 1 2 2 2 2 2 2 2 2 3 2 2 2 2 2 2 2 1 1 1 1 1 -0 -1 -2 -2 -2 -2
2 1 1 1 1 0 0 1 0 0 0 1 1 2 1 1 2 2 2 2 2 2 2 3 3 3 3 3 3 3 2 2 2 2 2 2 1 1 -0 -1 -2 -2 -2
2 2 1 1 1 1 0 0 0 0 1 0 0 1 2 2 2 3 3 2 2 3 3 3 3 3 4 4 4 3 3 2 2 3 3 3 3 2 1 0 -1 -2 -2
2 2 2 2 2 1 1 0 0 1 1 1 1 0 1 0 2 2 3 3 3 3 3 3 4 4 4 3 3 3 3 4 4 3 4 3 3 3 2 1 1 0 -1
3 2 2 2 2 2 2 0 1 1 1 1 1 0 1 -0 -0 1 2 3 3 3 2 3 3 3 3 3 3 4 4 4 4 4 4 4 3 3 3 3 2 2 1
3 2 2 2 2 2 2 1 2 2 1 1 1 0 1 0 0 1 1 1 2 2 3 3 3 4 4 4 4 5 4 4 4 4 4 4 4 3 4 3 3 2 1
3 2 2 2 2 2 2 2 0 1 1 1 1 1 1 0 -0 0 1 1 1 2 3 3 4 4 5 4 4 5 6 4 5 3 3 3 3 3 3 3 3 3 2
4 4 2 2 2 2 2 2 1 1 2 1 1 1 0 0 0 1 1 1 1 2 2 2 3 3 4 3 3 3 5 6 4 3 3 3 4 4 4 4 4 3 3
11 10 6 3 2 2 2 2 2 2 2 1 1 0 0 0 0 0 0 1 1 1 2 2 2 2 3 4 3 3 3 3 5 6 5 4 5 5 5 4 5 4 4
8 9 11 6 2 2 2 2 2 2 2 1 1 1 1 1 0 0 0 1 1 1 1 1 1 1 1 2 2 3 4 4 5 6 7 6 5 6 6 6 5 4 3
8 9 9 8 4 2 2 2 1 2 3 2 2 2 2 2 4 4 4 3 4 4 4 4 3 4 4 3 3 3 4 5 5 6 7 7 8 7 7 5 5 4 4

GFSSE_con_lsi_093.txt.gz
Lid_Strength_Index
1 0 -1 -1 -1 -1 -2 -2 -2 -2 -2 -2 -2 -2 -2 -2 -2 -2 -2 -2 -2 -2 -2 -2 -2 -2 -2 -2 -2 -2 -2 -2 -2 -2 -2 -2 -2 -2 -2 -2 -2 -1 -2
0 -0 -1 -2 -1 -1 -2 -2 -2 -2 -2 -2 -2 -2 -2 -2 -2 -2 -2 -3 -2 -2 -2 -2 -2 -2 -2 -2 -2 -2 -2 -2 -2 -2 -2 -2 -2 -2 -2 -2 -3 -1 -2
0 -0 -1 -1 -1 -1 -2 -2 -2 -2 -2 -2 -2 -2 -2 -2 -2 -2 -2 -2 -2 -2 -2 -2 -2 -2 -2 -2 -2 -2 -2 -2 -2 -2 -2 -0 -0 -2 -2 -2 -2 -2 -2
-0 -0 -1 -1 -1 -2 -2 -2 -2 -2 -2 -2 -2 -2 -2 -2 -1 -1 -2 -2 -2 -2 -2 -2 -2 -2 -2 -2 -2 -2 -2 -2 -2 -2 0 -0 -1 -2 -2 -2 -2 -2 -2
-0 -0 -0 -1 -2 -2 -2 -2 -2 -2 -2 -2 -2 -2 -2 -2 -2 -2 -2 -2 -2 -2 -2 -2 -2 -2 -2 -2 -2 -2 -2 -2 -2 -1 0 0 0 -2 -2 -2 -2 -2 -2
0 -0 -1 -1 -2 -2 -2 -2 -2 -2 -2 -2 -2 -2 -2 -1 -2 -3 -2 -2 -2 -2 -2 -2 -2 -2 -2 -2 -2 -2 -2 -2 -1 0 0 -0 -1 -2 -2 -2 -1 -1 -1
0 0 -0 -1 -1 -2 -2 -2 -2 -2 -2 -2 -2 -2 -2 -2 -2 -2 -2 -2 -2 -2 -2 -2 -2 -2 -2 -2 -2 -2 -2 -2 1 1 1 1 1 -2 -1 -2 -1 -1 -1
0 0 -0 0 -1 -1 -1 -2 -2 -2 -2 -2 -2 -2 -2 -2 -2 -2 -2 -2 -2 -2 -2 -2 -2 -2 -2 -2 -2 -2 -2 -1 0 1 1 1 -2 -2 -1 -1 -1 -1 -1
0 0 1 0 0 0 -1 -1 -1 -2 -2 -2 -2 -2 -2 -2 -2 -2 -2 -2 -2 -2 -2 -2 -2 -2 -2 -2 -2 -2 -2 -1 1 1 0 1 -2 -1 -1 -1 -1 -1 -0
1 1 1 1 0 0 0 0 -0 -1 -1 -2 -2 -1 -1 -1 -1 -1 -0 -2 -2 -2 -2 -2 -2 -2 -2 -2 -2 -1 -1 -1 1 1 1 1 -2 -1 -1 -1 -0 -0 -0
1 2 2 2 1 0 0 1 1 -0 -1 -1 -1 -0 1 1 1 0 -0 -1 -1 -1 -1 -1 -2 -2 -1 -1 -1 -1 0 2 2 2 2 -1 -1 -1 -1 -1 -0 -0 -0
2 2 2 3 2 1 -0 1 0 0 0 0 0 0 0 1 1 0 1 -0 -1 -1 -1 -1 -2 -1 0 1 1 0 2 2 2 2 2 -1 -2 -2 -2 -2 -1 -1 -1
2 1 1 2 2 1 1 1 1 1 1 0 1 1 1 1 1 1 1 1 2 1 1 1 2 1 1 2 2 2 2 2 2 2 1 -1 -2 -2 -2 -2 -2 -2 -2
2 2 1 1 2 2 1 1 1 0 1 1 1 1 1 2 2 2 2 2 2 2 2 2 2 2 2 2 2 2 2 2 1 2 2 1 -1 -2 -2 -2 -2 -2 -2
2 1 1 1 1 1 1 1 1 1 0 1 1 1 1 2 2 2 2 2 2 2 2 2 2 2 2 2 2 2 2 2 2 1 2 2 0 -1 -2 -2 -2 -2 -2
2 1 1 1 1 0 1 1 1 1 1 1 2 2 1 2 2 2 2 2 2 2 2 3 3 3 3 3 3 2 2 2 2 2 2 2 1 -0 -1 -2 -2 -2 -2
2 1 2 1 1 2 2 1 1 1 1 2 2 2 2 2 2 2 3 3 3 3 3 3 3 3 3 3 3 3 3 3 3 3 3 3 3 1 1 -1 -1 -2 -2
2 2 1 1 2 1 1 1 1 1 1 2 2 2 2 2 2 3 3 3 3 3 3 4 4 4 4 4 4 3 3 3 4 4 4 3 3 3 2 1 -0 -1 -2
2 2 2 2 2 2 1 0 -0 0 1 1 1 1 1 1 2 3 3 3 3 3 4 3 4 4 4 4 3 4 4 4 4 3 3 3 3 2 2 1 1 0 -0
2 2 2 2 2 2 2 1 0 1 1 0 1 0 1 1 0 1 2 3 3 3 2 3 4 3 3 4 4 3 4 4 4 4 4 3 3 3 3 3 3 2 1
3 2 2 2 2 2 3 2 2 1 1 1 1 0 0 0 -0 0 1 1 2 2 2 3 3 4 4 4 5 3 4 3 4 4 4 4 3 3 3 3 3 3 3
4 2 2 2 2 2 2 3 2 1 1 1 0 0 0 0 0 0 1 1 1 2 2 3 3 3 4 4 4 4 6 4 4 3 3 3 4 4 4 4 4 4 4
5 3 2 2 2 2 2 3 2 1 1 1 1 1 0 0 0 0 1 1 1 2 2 2 2 3 3 3 3 3 5 6 5 4 4 5 5 5 5 5 5 4 4
5 4 2 2 2 2 2 2 4 3 3 1 1 0 0 0 0 0 0 1 1 1 2 2 2 2 2 3 3 4 3 3 6 8 6 5 6 6 5 5 5 4 4
10 8 5 3 2 2 2 2 3 3 2 1 1 1 1 1 1 1 1 1 2 2 2 1 2 3 2 3 3 3 5 5 7 7 9 9 7 7 7 7 6 5 4
9 10 11 6 2 2 2 2 2 2 2 2 2 2 2 4 5 5 5 5 4 5 5 6 6 6 6 5 6 5 6 7 8 8 9 10 10 10 9 7 7 6 6

GFSSE_con_lsi_099.txt.gz
Lid_Strength_Index
0 -1 -2 -2 -2 -2 -2 -2 -2 -2 -2 -2 -2 -2 -2 -2 -2 -2 -2 -3 -3 -3 -2 -2 -2 -2 -2 -2 -2 -2 -2 -2 -2 -2 -2 -2 -2 -2 -2 -2 -3 -2 -2
-1 -1 -1 -2 -2 -2 -2 -2 -2 -2 -2 -2 -2 -2 -2 -2 -2 -3 -2 -3 -3 -2 -2 -2 -2 -2 -2 -2 -2 -2 -2 -2 -2 -2 -2 -3 -3 -2 -3 -2 -3 -2 -2
-0 -1 -1 -1 -2 -2 -2 -2 -2 -2 -2 -2 -2 -2 -2 -2 -3 -3 -3 -2 -2 -2 -2 -2 -2 -2 -2 -2 -2 -2 -2 -2 -2 -2 -2 -2 -2 -2 -2 -2 -2 -2 -2
-1 -1 -1 -1 -2 -2 -2 -2 -2 -2 -2 -2 -2 -2 -2 -2 -2 -2 -2 -3 -2 -2 -2 -2 -2 -2 -2 -2 -2 -2 -2 -2 -2 -2 -1 -1 -1 -2 -2 -2 -2 -2 -2
-1 -1 -1 -1 -2 -2 -2 -2 -2 -2 -2 -2 -2 -2 -2 -2 -2 -2 -2 -2 -2 -2 -2 -2 -2 -2 -2 -2 -2 -2 -2 -2 -2 -2 -2 -2 -2 -2 -2 -2 -2 -2 -2
-1 -1 -1 -1 -2 -2 -2 -2 -2 -2 -2 -2 -2 -2 -2 -1 -2 -2 -3 -2 -2 -2 -2 -2 -2 -2 -2 -2 -2 -2 -2 -2 -1 -1 -1 -2 -2 -2 -2 -2 -2 -2 -2
-0 -1 -1 -1 -2 -2 -2 -2 -2 -2 -2 -2 -2 -2 -1 -2 -2 -2 -2 -2 -2 -2 -2 -2 -2 -2 -2 -2 -2 -2 -2 -2 -1 -1 -1 -2 -2 -2 -2 -2 -2 -2 -2
-0 -1 -1 0 -1 -1 -2 -2 -2 -2 -2 -2 -2 -2 -2 -2 -2 -2 -2 -2 -2 -2 -2 -2 -2 -2 -2 -2 -2 -2 -2 -1 -1 -1 -1 -2 -2 -2 -2 -2 -1 -1 -1
-1 -1 -1 -1 -1 0 -1 -1 -2 -2 -2 -2 -2 -2 -2 -2 -2 -2 -2 -2 -2 -2 -2 -2 -2 -2 -2 -2 -2 -2 -2 -1 -1 -1 -1 -1 -2 -2 -2 -2 -1 -1 -1
-0 -0 -0 -1 -1 -1 -1 0 -1 -1 -1 -2 -1 -1 -1 -1 -1 -1 -1 -2 -2 -2 -2 -2 -2 -2 -2 -2 -2 -1 -1 -0 -1 -1 -1 -1 -2 -2 -2 -2 -2 -2 -2
1 0 -0 -0 -0 -1 -1 0 0 -0 -1 -1 -0 1 0 -1 -1 -1 -0 -1 -2 -2 -2 -2 -2 -2 -1 -1 -1 -0 0 -1 -1 -1 -1 -1 -2 -2 -2 -2 -2 -2 -2
2 1 1 0 0 -1 -1 -1 -1 -1 -1 -1 -1 -0 -0 -0 -1 -1 0 -0 -1 -1 -2 -2 -2 -0 -0 -1 -0 -0 -1 -1 -1 -1 -1 -1 -2 -2 -2 -2 -2 -2 -2
2 1 -0 0 0 -1 -0 -1 -1 -1 -1 -1 -1 -1 -1 -0 -1 -1 -1 -0 -1 1 -0 -0 -0 -1 -0 -0 -0 -0 -0 -1 -1 -1 -1 -0 -2 -2 -2 -2 -2 -2 -2
2 2 1 0 0 -0 -1 -1 -1 -1 -1 -1 -1 -1 -1 -0 0 0 0 0 -1 -1 -1 -1 -1 -0 -0 0 0 -0 -0 -0 -0 -1 -0 1 0 -1 -2 -2 -2 -2 -2
2 1 1 1 0 0 -0 -1 -1 -1 -1 -1 -1 -1 -1 -0 0 0 -0 -0 -1 -1 -1 -1 -0 0 0 0 0 0 0 0 0 0 0 2 1 -1 -2 -2 -2 -2 -2
1 1 1 1 1 0 -0 -0 -1 -1 -1 -1 -1 -1 -0 -1 -0 -0 -0 -0 -0 -0 -0 -0 0 1 1 1 1 1 0 0 1 0 -0 -0 1 0 -1 -2 -2 -2 -2
1 1 1 1 1 0 0 0 -0 -1 -1 -1 -0 -0 -0 0 0 0 -0 0 -0 0 0 1 1 1 1 1 0 1 1 0 0 0 0 0 0 1 0 -1 -1 -1 -1
1 1 0 -0 0 1 0 -0 -0 -0 -1 -1 -0 0 1 1 1 0 0 0 0 0 1 1 1 0 1 1 1 0 -0 -0 0 0 0 1 0 0 1 1 1 1 -0
2 2 1 0 0 -0 -0 -0 -0 -1 -1 -0 0 0 1 1 1 1 1 1 1 1 1 1 1 2 1 1 1 -0 -0 0 1 1 1 1 1 1 1 2 2 2 1
2 2 2 1 0 -0 1 1 0 0 0 -0 -0 -1 0 0 0 1 1 2 1 2 1 1 2 2 1 1 1 1 0 1 1 1 2 2 1 2 2 3 3 3 3
2 2 2 2 1 1 1 2 1 1 0 0 -0 -0 0 0 0 0 0 0 1 1 2 2 2 3 1 0 1 1 1 2 2 2 1 2 3 3 4 4 4 4 4
2 2 2 2 2 1 1 1 1 0 -0 -0 -0 0 0 0 0 0 0 0 1 1 2 2 2 2 2 1 2 2 4 3 2 2 3 2 4 5 6 5 5 5 4
3 2 2 2 2 1 1 2 2 1 1 1 1 1 1 0 0 0 0 0 0 1 1 1 1 2 2 2 2 3 5 6 5 3 4 4 6 8 7 6 6 6 5
3 3 2 2 2 2 1 2 2 2 2 1 1 -0 -0 0 0 0 -0 0 1 1 1 1 1 1 1 3 2 3 3 4 7 8 6 6 8 9 8 7 7 6 7
3 3 3 2 2 1 1 1 2 2 2 1 1 1 1 1 0 0 0 1 2 2 2 2 3 3 2 3 4 4 5 6 6 9 11 10 10 10 9 9 7 8 9
4 4 3 2 2 1 1 1 2 2 3 3 2 2 2 3 3 3 4 4 4 4 4 5 5 5 6 6 7 7 8 9 10 10 11 12 13 11 10 9 9 10 10

GFSSE_con_lsi_102.txt.gz
Lid_Strength_Index
0 -1 -2 -2 -2 -2 -2 -2 -1 -1 -2 -2 -2 -2 -2 -2 -2 -2 -2 -3 -2 -2 -2 -2 -2 -2 -2 -2 -2 -2 -2 -2 -2 -2 -2 -2 -2 -2 -2 -2 -3 -2 -2
-1 -1 -1 -2 -2 -2 -2 -2 -2 -2 -2 -2 -2 -2 -2 -2 -2 -2 -2 -2 -2 -2 -2 -2 -2 -2 -2 -2 -2 -2 -2 -2 -2 -2 -3 -3 -2 -2 -2 -2 -3 -2 -2
-1 -1 -1 -2 -2 -2 -2 -2 -2 -2 -2 -2 -2 -2 -2 -2 -2 -2 -2 -2 -3 -2 -2 -2 -2 -2 -2 -2 -2 -2 -2 -2 -2 -3 -3 -2 -2 -2 -2 -2 -2 -2 -2
-1 -1 -1 -1 -2 -2 -2 -2 -2 -2 -2 -2 -2 -2 -2 -2 -3 -2 -2 -2 -2 -2 -2 -2 -2 -2 -2 -2 -2 -2 -2 -2 -2 -3 -2 -2 -2 -2 -2 -2 -2 -2 -2
-1 -1 -1 -1 -2 -2 -2 -2 -2 -2 -2 -2 -2 -2 -2 -3 -2 -2 -2 -2 -2 -2 -2 -2 -2 -2 -2 -2 -2 -2 -2 -2 -2 -2 -2 -2 -2 -2 -2 -2 -2 -2 -2
-1 -1 -1 -1 -2 -2 -2 -1 -2 -2 -2 -3 -2 -2 -2 -2 -2 -3 -2 -2 -2 -2 -2 -2 -2 -2 -2 -2 -2 -2 -2 -2 -2 -1 -2 -2 -2 -2 -2 -2 -2 -2 -2
-1 -1 -1 -1 -2 -2 -2 -2 -2 -2 -2 -2 -3 -2 -2 -2 -2 -2 -2 -2 -2 -2 -2 -2 -2 -2 -2 -2 -2 -2 -2 -1 -1 -1 -2 -2 -2 -2 -2 -2 -2 -2 -2
-1 -1 -1 -0 -1 -1 -2 -2 -2 -2 -2 -2 -2 -2 -2 -2 -2 -2 -2 -2 -2 -2 -2 -2 -2 -2 -2 -2 -2 -2 -1 -1 -1 -1 -2 -2 -2 -2 -2 -2 -2 -2 -2
-1 -1 -1 -1 -1 -0 -1 -1 -1 -2 -2 -2 -2 -2 -2 -2 -2 -2 -2 -2 -2 -2 -2 -2 -2 -2 -2 -2 -2 -2 -1 -1 -2 -2 -1 -2 -2 -2 -2 -2 -2 -2 -2
-1 -1 -1 -1 -1 -2 -2 0 -0 -1 -1 -1 -1 -1 -1 -1 -1 -1 -1 -2 -2 -2 -2 -2 -2 -2 -2 -2 -1 -1 -0 -1 -2 -2 -2 -2 -2 -2 -2 -2 -2 -2 -2
0 -0 -1 -1 -1 -1 -1 -0 0 0 0 -0 -0 0 -0 -2 -2 -2 -0 -1 -2 -2 -2 -2 -2 -1 -1 -1 -1 -0 -1 -2 -2 -2 -2 -1 -2 -2 -2 -2 -2 -2 -2
1 0 -1 -0 -1 -1 -1 -2 -1 -1 -2 -2 -2 -2 -2 -2 -2 -1 -0 -1 -1 -1 -2 -2 -1 -1 -1 -2 -2 -1 -2 -2 -2 -2 -2 -1 -2 -2 -2 -2 -2 -2 -2
1 0 -0 -0 -1 -1 -1 -1 -2 -2 -2 -2 -2 -2 -2 -2 -2 -2 -2 -2 -2 -0 -2 -2 -2 -2 -2 -2 -2 -2 -2 -2 -2 -2 -1 -0 -1 -2 -2 -2 -2 -2 -2
1 1 -0 -1 -1 -1 -1 -1 -1 -1 -2 -2 -2 -2 -2 -2 -2 -1 -1 -2 -2 -2 -2 -2 -2 -2 -2 -2 -1 -1 -1 -2 -2 -2 -1 1 0 -2 -2 -2 -2 -2 -2
2 1 0 -1 -1 -1 -1 -1 -1 -1 -1 -2 -2 -2 -2 -1 -1 -2 -1 -2 -2 -2 -2 -2 -2 -2 -1 -1 -1 -1 -1 -1 -1 -2 -2 1 1 -1 -2 -2 -2 -3 -2
1 1 0 -0 -1 -1 -1 -1 -1 -1 -2 -2 -2 -2 -2 -2 -1 -1 -1 -2 -2 -2 -2 -2 -1 -1 -1 -1 -1 -1 -1 -1 -1 -1 -1 -1 1 1 -1 -1 -0 -1 -1
1 0 1 0 -0 -1 -1 -1 -1 -1 -1 -1 -1 -2 -2 -2 -1 -1 -1 -1 -2 -2 -2 -2 -2 -1 -1 -1 -1 -1 -1 -1 -1 -1 -0 -0 -0 1 0 1 1 1 1
0 1 -0 -0 1 1 -1 -1 -1 -1 -1 -1 -1 -1 -2 -2 -1 -1 -1 -1 -2 -2 -2 -1 -1 -1 -1 -0 -0 -1 -1 -1 -1 -0 0 -0 0 1 1 3 3 2 2
0 0 0 -0 -0 -0 -1 -1 -1 -1 -1 -1 -1 -1 -1 -1 -0 -1 -1 -1 -1 -1 -1 -1 -1 -0 0 -0 -0 -0 -1 -1 -0 1 0 1 2 2 5 4 3 3 3
0 0 0 -0 -0 -0 -1 -1 -1 -1 -1 -1 -1 -1 -1 -0 -0 -0 -0 -0 -1 0 0 -0 -0 -0 -0 0 0 0 -0 -1 -0 1 1 2 3 5 5 5 5 5 4
1 1 1 1 0 -0 0 1 0 1 -0 -0 -1 -1 -1 -1 -0 -0 -1 -1 -0 0 -0 1 0 0 0 -0 1 1 -0 0 0 1 2 4 3 7 6 6 6 5 4
1 1 1 1 1 0 0 0 -0 0 -0 -0 -1 -1 -1 -1 -0 -0 -0 -1 -1 -0 1 1 1 1 1 -0 2 2 3 2 1 2 1 4 6 7 7 7 6 5 5
2 1 1 1 1 1 -0 -0 -0 -0 -0 0 0 -0 -1 -0 -0 -0 -0 -0 -1 -0 0 0 1 1 2 0 0 2 4 5 5 2 4 5 8 8 7 7 6 7 7
2 1 1 1 0 0 -0 0 1 1 2 1 0 -0 -0 -1 -0 -0 -0 -0 -1 -0 -0 0 0 0 1 2 1 2 2 3 6 7 6 6 8 9 8 8 6 7 8
1 1 1 1 1 0 0 0 1 1 1 0 0 0 0 -0 -1 -1 -0 -0 -0 0 1 1 1 1 0 1 2 2 3 4 4 7 10 10 9 9 8 7 7 8 9
1 1 1 1 1 0 0 0 1 1 1 1 1 1 1 0 0 -0 1 1 1 2 2 3 2 2 2 2 4 5 7 7 8 9 10 11 11 10 8 8 9 9 10

GFSSE_con_lsi_105.txt.gz
Lid_Strength_Index
0 -1 -1 -1 -1 -1 -1 -1 -1 -1 -1 -2 -2 -2 -2 -2 -2 -2 -2 -2 -2 -2 -2 -2 -2 -2 -2 -2 -2 -2 -2 -2 -2 -2 -2 -2 -2 -2 -2 -2 -3 -1 -2
-0 -1 -1 -2 -1 -1 -1 -1 -1 -1 -2 -2 -2 -2 -2 -2 -2 -2 -2 -2 -2 -2 -2 -2 -2 -2 -2 -2 -2 -2 -2 -2 -2 -3 -3 -3 -2 -2 -2 -2 -3 -2 -2
-0 -1 -1 -2 -2 -2 -2 -2 -2 -2 -2 -2 -2 -2 -2 -2 -2 -2 -2 -2 -2 -2 -2 -2 -2 -2 -2 -2 -2 -2 -2 -2 -2 -3 -3 -1 -1 -2 -2 -2 -2 -2 -2
-0 -1 -1 -1 -2 -2 -2 -2 -2 -2 -2 -2 -2 -2 -2 -2 -2 -2 -2 -2 -2 -2 -2 -2 -2 -2 -2 -2 -2 -2 -2 -2 -3 -3 -1 -1 -1 -2 -2 -2 -2 -2 -2
-0 -1 -1 -1 -2 -2 -2 -2 -2 -2 -2 -2 -2 -2 -2 -2 -2 -2 -2 -2 -2 -2 -2 -2 -2 -2 -2 -2 -2 -2 -2 -2 -3 -2 -1 -2 -2 -2 -2 -2 -2 -2 -2
-0 -1 -1 -2 -2 -2 -1 -2 -2 -2 -2 -2 -2 -2 -2 -2 -2 -2 -2 -2 -2 -2 -2 -2 -2 -2 -2 -2 -2 -2 -2 -2 -3 -1 -1 -2 -1 -2 -2 -2 -2 -2 -2
-1 -1 -1 -1 -1 -2 -1 -2 -2 -2 -2 -2 -2 -2 -2 -2 -2 -2 -2 -2 -2 -2 -2 -2 -2 -2 -2 -2 -2 -2 -2 -2 -1 -1 -1 -1 -1 -2 -2 -2 -2 -2 -2
-0 -1 -1 -0 -1 -1 -1 -2 -2 -2 -2 -2 -2 -2 -2 -2 -2 -2 -2 -2 -2 -2 -2 -2 -2 -2 -2 -2 -2 -2 -2 -2 -1 -1 -1 -1 -2 -2 -2 -2 -2 -2 -2
-1 -1 -1 -1 -1 -0 -1 -1 -2 -2 -2 -2 -2 -2 -2 -2 -2 -2 -2 -2 -2 -2 -2 -2 -2 -2 -2 -2 -2 -1 -1 -1 -1 -1 -1 -1 -2 -2 -2 -2 -2 -2 -2
-1 -1 -0 -1 -1 -1 -1 1 -0 -1 -1 -2 -1 -1 -1 -1 -2 -2 -1 -2 -2 -2 -2 -2 -2 -2 -2 -2 -1 -1 -1 -1 -1 -1 -1 -1 -2 -2 -2 -2 -2 -2 -2
0 -0 -0 -1 -1 -1 -1 -0 0 0 -0 -0 -1 0 -0 -1 -1 -1 -0 -1 -2 -2 -2 -2 -2 -1 -1 -1 -1 -1 -1 -1 -1 -1 -1 -1 -2 -2 -2 -2 -2 -2 -2
2 0 -0 -0 -1 -1 -1 -1 -1 -1 -1 -1 -1 -1 -1 -1 -1 -1 -0 -1 -1 -2 -2 -2 -1 -1 -1 -1 -1 -1 -1 -1 -1 -1 -1 -1 -2 -2 -2 -2 -2 -2 -2
1 1 -0 -0 -1 -1 -1 -1 -0 -0 -1 -1 -1 -1 -1 -1 -1 -1 -1 -1 -2 -1 -1 -1 -1 -1 -1 -1 -1 -1 -1 -1 -1 -1 0 -0 -1 -2 -2 -2 -2 -2 -2
1 1 -0 -1 -1 -1 -1 -0 -0 -0 -1 -1 -1 -1 -1 -1 -1 -1 -1 -1 -1 -1 -1 -1 -1 -1 -1 -1 -1 -1 -1 -1 -1 -1 1 1 -0 -2 -2 -2 -1 -1 -1
2 1 0 -0 0 -1 -0 0 -1 -1 -1 -1 -1 -1 -1 -1 -1 -1 -1 -1 -1 -1 -1 -1 -1 -1 -1 -1 -1 -1 -1 -1 -1 -1 -1 2 -0 -1 -0 1 0 0 0
1 1 0 0 0 -1 -0 0 -1 -1 -1 -1 -1 -1 -1 -1 -1 -1 -1 -1 -1 -1 -1 -1 -1 -1 -1 -1 -1 -1 -1 -1 -1 -1 -1 1 1 0 2 2 1 1 0
1 1 1 1 1 -0 -0 -1 -1 -1 -1 -1 -1 -1 -1 -1 -1 -1 -1 -1 -1 -1 -1 -1 -1 -1 -1 -1 -1 -1 -1 -1 -1 -1 -0 -0 1 1 2 3 2 2 1
1 1 0 0 0 -0 -1 -1 -1 -1 -1 -1 -1 -1 -1 -1 -1 -1 -1 -1 -1 -1 -1 -1 -1 -0 -0 -0 -0 -0 -1 -1 -0 1 1 1 2 4 3 4 3 2 1
1 1 1 0 0 0 -1 -1 -1 -1 -1 -1 -1 -1 -1 -1 -1 -1 -1 -1 -1 -1 -1 -1 -0 -0 0 0 0 -0 -1 -1 0 1 1 3 4 5 5 4 4 3 3
0 0 0 0 0 -0 -0 -1 -1 -1 -1 -1 -1 -1 -1 -1 -1 -1 -1 -1 -1 -1 -0 -0 0 -0 0 0 1 0 -0 -0 0 1 2 4 6 6 5 5 4 4 5
1 1 1 1 0 0 0 1 1 1 0 -0 -1 -1 -1 -1 -1 -1 -1 -1 -1 -0 -0 -0 0 1 1 -0 1 1 1 0 1 2 2 4 7 6 6 6 5 5 7
1 1 1 1 0 0 0 0 0 0 0 -0 -1 -1 -1 -1 -1 -1 -1 -0 -1 -0 0 0 0 1 1 0 2 2 4 2 1 3 3 5 7 6 6 6 6 8 8
2 1 1 1 0 0 0 0 0 0 0 1 0 0 -1 -1 -1 -1 -0 -1 -0 -0 0 0 0 1 2 1 0 2 4 5 5 3 5 6 7 7 7 6 7 8 9
2 1 1 1 1 0 0 1 1 2 2 1 1 0 -0 -1 -1 -1 -0 -0 -0 -1 0 0 -0 0 1 2 1 2 2 3 7 7 5 6 7 8 8 7 8 9 10
2 1 1 1 1 0 0 1 1 2 1 1 1 1 0 -0 -1 -1 -1 -1 -0 -0 -0 1 1 1 0 1 1 2 3 5 5 7 9 8 8 8 8 8 9 10 10
1 1 1 1 1 1 1 1 1 1 1 1 1 1 1 0 -0 -0 -0 -0 -0 0 1 2 2 2 1 1 2 3 5 7 7 9 9 9 10 9 8 8 9 10 10

GFSSE_con_lsi_108.txt.gz
Lid_Strength_Index
1 -0 -1 -2 -1 -1 -1 -1 -1 -2 -2 -2 -2 -2 -2 -2 -2 -2 -2 -2 -2 -2 -2 -2 -2 -2 -2 -2 -2 -2 -2 -2 -2 -2 -2 -2 -2 -2 -2 -2 -3 -1 -2
-0 -1 -1 -2 -2 -1 -1 -1 -1 -2 -2 -2 -2 -2 -2 -2 -2 -2 -2 -2 -3 -2 -2 -2 -2 -2 -2 -2 -2 -2 -2 -2 -2 -2 -3 -2 -2 -2 -2 -2 -2 -1 -2
-0 -1 -1 -2 -2 -2 -1 -2 -2 -2 -2 -2 -2 -2 -2 -2 -2 -2 -2 -2 -2 -2 -2 -2 -2 -2 -2 -2 -2 -2 -2 -2 -3 -3 -3 -0 -0 -2 -2 -2 -2 -2 -2
-0 -1 -1 -1 -2 -2 -2 -2 -2 -2 -2 -2 -2 -2 -2 -2 -2 -2 -2 -2 -3 -2 -2 -2 -2 -2 -2 -2 -2 -2 -2 -2 -3 -3 -1 -1 -1 -2 -2 -2 -2 -2 -2
-0 -1 -1 -1 -2 -2 -2 -2 -2 -2 -2 -2 -2 -2 -2 -2 -2 -2 -2 -2 -2 -2 -2 -2 -2 -2 -2 -2 -2 -2 -2 -2 -3 -1 -0 -0 0 -2 -2 -2 -2 -2 -2
-0 -1 -1 -2 -2 -2 -2 -2 -2 -2 -2 -2 -3 -2 -2 -2 -2 -2 -2 -2 -2 -2 -2 -2 -2 -2 -2 -2 -2 -2 -2 -2 -2 0 0 -1 -0 -2 -2 -2 -2 -2 -2
-0 -1 -1 -1 -2 -2 -2 -2 -2 -3 -2 -3 -2 -2 -2 -2 -2 -2 -2 -2 -2 -2 -2 -2 -2 -2 -2 -2 -2 -2 -2 -3 0 0 -0 0 -0 -2 -2 -2 -2 -2 -2
0 -0 -1 0 -1 -1 -2 -2 -2 -3 -3 -3 -2 -2 -2 -2 -2 -2 -2 -2 -2 -2 -2 -2 -2 -2 -2 -2 -2 -2 -2 -2 -0 1 0 -0 -2 -2 -2 -2 -2 -2 -2
-0 -0 -0 -0 -0 -0 -1 -1 -2 -2 -2 -2 -2 -2 -2 -2 -2 -2 -2 -2 -2 -2 -2 -2 -2 -2 -2 -2 -2 -1 -1 -1 1 0 -0 -0 -2 -2 -2 -2 -2 -2 -2
0 -0 -0 -0 -0 -1 -1 -0 -1 -1 -1 -2 -2 -1 -1 -1 -2 -2 -1 -2 -2 -2 -2 -2 -2 -2 -2 -2 -1 -1 -1 -1 1 0 1 -0 -2 -2 -2 -2 -2 -2 -2
1 0 -0 -0 -0 -0 -1 1 0 0 -0 -0 -1 -0 -0 -1 -1 -1 -1 -1 -2 -2 -2 -2 -1 -1 -2 -1 -1 -1 -1 0 1 1 1 -1 -2 -2 -2 -2 -2 -2 -2
3 1 -0 -0 -0 -0 -1 -0 -0 -0 -0 -0 -0 -0 -1 0 0 -1 0 -1 -2 -2 -2 -2 -1 -1 -0 1 1 -0 0 1 1 1 1 -1 -2 -2 -2 -2 -2 -2 -2
2 1 0 0 -0 1 0 0 1 0 0 -0 0 0 0 0 0 0 1 1 1 1 0 -0 0 0 0 0 0 1 1 1 1 1 1 -1 -2 -2 -2 -1 -1 -1 -1
2 1 0 0 0 1 1 1 1 2 1 1 0 0 1 1 1 1 1 1 1 0 1 1 1 1 1 0 0 1 1 1 1 2 2 0 -1 0 0 0 -0 -0 -0
3 1 1 1 0 2 1 1 2 2 1 1 1 0 0 1 1 1 1 1 1 1 1 1 1 1 1 1 0 1 1 1 1 1 2 2 1 2 1 0 -0 -1 -1
2 2 1 0 0 1 1 2 2 2 1 1 0 0 0 0 1 1 1 1 1 1 1 1 1 1 1 1 1 1 1 1 1 1 2 2 2 2 2 1 0 -0 -0
2 2 1 1 0 0 1 2 2 1 0 1 0 0 0 0 0 1 1 1 1 1 1 1 1 1 1 0 1 1 -0 1 1 2 2 2 4 3 3 2 1 1 2
2 2 1 0 0 0 1 1 2 1 1 0 0 0 0 -0 0 1 1 1 1 1 1 1 1 1 1 1 1 1 1 1 2 3 5 6 8 6 3 3 3 3 3
3 1 1 1 0 0 1 1 1 1 1 1 0 0 0 -0 0 1 1 0 0 1 1 1 2 1 2 1 1 2 1 2 3 4 6 8 8 7 7 3 4 5 5
4 1 1 1 1 1 1 1 1 1 1 0 1 0 0 0 0 1 1 1 1 1 1 1 1 1 1 1 1 1 2 3 4 5 7 9 8 8 8 7 7 7 6
4 3 1 1 1 1 1 1 2 2 1 1 0 0 0 0 0 1 1 0 1 1 1 1 1 1 1 0 2 2 3 2 4 5 7 10 9 9 8 8 9 10 9
3 4 2 1 1 1 1 1 1 1 1 1 1 0 0 1 1 1 1 1 1 1 1 1 1 1 1 1 3 4 5 4 5 6 8 10 10 9 8 9 10 10 11
3 4 2 1 1 1 1 1 1 2 2 2 1 0 0 0 1 1 1 1 1 0 0 1 1 1 2 1 2 4 6 7 7 7 9 11 11 11 9 9 10 10 11
2 2 2 1 1 1 1 1 2 2 3 1 1 1 0 0 1 1 1 1 0 0 0 1 1 1 1 2 2 3 4 6 10 10 10 12 11 10 10 9 11 11 11
2 2 1 1 1 1 1 1 1 2 1 1 1 1 1 1 1 0 0 1 1 1 0 1 1 1 1 2 2 4 5 8 8 11 13 12 12 11 10 10 11 12 11
2 2 2 2 1 1 1 1 1 2 2 2 2 2 1 1 1 0 0 1 1 1 1 2 2 2 2 2 3 4 6 9 9 12 13 13 13 12 10 10 12 12 12

GFSSE_con_lsi_111.txt.gz
Lid_Strength_Index
1 -0 -1 -2 -1 -1 -1 -1 -2 -2 -2 -2 -2 -2 -2 -2 -2 -2 -3 -3 -2 -2 -2 -2 -2 -2 -2 -2 -2 -2 -2 -2 -2 -2 -2 -2 -2 -3 -2 -2 -2 -1 -2
-0 -1 -1 -2 -1 -1 -1 -1 -2 -2 -2 -2 -2 -2 -2 -2 -2 -2 -3 -3 -2 -2 -2 -2 -2 -2 -2 -2 -2 -2 -2 -2 -2 -3 -2 -2 -2 -2 -2 -2 -2 -1 -2
-0 -1 -1 -2 -2 -1 -2 -2 -2 -2 -2 -2 -2 -2 -2 -2 -2 -2 -2 -3 -2 -2 -2 -2 -2 -2 -2 -2 -2 -2 -2 -3 -3 -3 -2 0 -0 -2 -2 -2 -2 -2 -2
-0 -1 -1 -1 -2 -2 -2 -2 -2 -2 -3 -2 -2 -2 -2 -2 -2 -2 -2 -2 -2 -2 -2 -2 -2 -2 -2 -2 -2 -2 -2 -2 -3 -2 -0 -0 -1 -2 -2 -2 -2 -2 -2
-0 -1 -1 -1 -2 -2 -2 -2 -2 -2 -3 -2 -2 -2 -2 -2 -2 -2 -2 -2 -2 -2 -2 -2 -2 -2 -2 -2 -2 -2 -2 -3 -3 -1 0 0 0 -2 -2 -2 -2 -2 -2
-0 -1 -1 -2 -2 -2 -2 -2 -3 -3 -2 -2 -2 -2 -2 -2 -2 -2 -2 -2 -2 -2 -2 -2 -2 -2 -2 -2 -2 -2 -2 -2 -1 1 0 -0 -0 -2 -2 -2 -2 -2 -2
-0 -0 -1 -1 -2 -2 -2 -3 -2 -2 -3 -3 -2 -2 -2 -2 -2 -2 -2 -2 -2 -2 -2 -2 -2 -2 -2 -2 -2 -2 -3 -2 0 1 0 0 -1 -2 -2 -2 -2 -2 -2
-0 -0 -1 0 -1 -1 -2 -2 -3 -3 -3 -2 -3 -2 -2 -2 -2 -2 -2 -2 -2 -2 -2 -2 -2 -2 -2 -2 -2 -2 -2 -2 1 2 1 0 -2 -2 -2 -2 -2 -2 -2
-0 -0 -0 -0 -0 0 -1 -2 -2 -3 -3 -2 -3 -3 -2 -2 -2 -2 -2 -2 -2 -2 -2 -2 -2 -2 -2 -2 -2 -2 -1 -1 2 1 0 0 -2 -2 -2 -2 -2 -2 -2
-0 -0 0 0 -0 0 -0 -0 -1 -1 -1 -2 -2 -2 -1 -1 -2 -2 -1 -2 -2 -2 -2 -2 -2 -2 -2 -1 -1 -1 -1 -0 2 2 1 -0 -2 -2 -2 -2 -2 -2 -2
0 0 -0 1 0 0 -0 1 0 0 -0 -0 -0 -1 -0 -0 -0 -1 -1 -2 -2 -2 -2 -2 -2 -1 -1 -0 -0 -0 -0 1 2 2 1 -2 -2 -2 -2 -2 -2 -2 -2
2 1 0 0 0 -0 -1 0 0 1 1 0 -0 -1 -0 -0 -0 -1 0 -1 -2 -2 -2 -1 -1 -1 -0 1 1 0 1 1 2 2 0 -2 -2 -2 -1 -1 -1 -1 -1
2 1 0 0 -0 0 0 1 1 1 1 1 0 -0 0 1 1 1 2 1 2 1 1 0 0 1 1 1 1 1 1 1 2 2 0 -1 -0 -0 -0 -0 -1 -1 -1
3 1 0 -0 0 1 0 1 1 1 1 2 1 1 1 2 2 1 2 1 2 2 2 1 1 1 1 1 1 1 1 1 2 2 2 2 1 1 -0 -1 -1 -1 0
3 2 0 0 1 1 1 2 2 2 2 1 1 1 1 1 2 2 1 1 1 1 1 2 2 1 1 1 1 1 1 1 2 3 3 3 1 1 0 -0 -1 0 1
2 2 0 0 1 1 2 2 2 3 2 1 2 2 1 1 1 1 1 1 1 1 1 1 1 1 1 1 1 0 0 1 2 3 3 4 2 2 1 -0 1 1 1
2 2 2 1 1 1 3 2 2 2 2 1 1 1 0 1 1 1 1 1 1 1 1 1 1 2 1 -0 1 1 -0 1 2 2 4 5 5 2 2 2 3 2 2
2 2 2 1 1 1 3 2 2 2 2 1 1 1 0 0 1 1 1 2 1 1 1 2 2 2 1 1 1 2 1 2 4 6 7 7 7 6 4 4 4 4 3
2 2 2 1 1 1 1 2 2 3 2 1 1 1 1 0 1 1 1 1 1 1 2 2 2 2 2 2 1 2 1 4 5 7 9 8 7 7 6 6 6 6 5
3 2 1 1 1 1 0 1 2 2 1 1 0 0 1 0 1 1 2 2 1 2 2 2 2 2 2 2 1 1 2 4 6 9 9 8 9 8 8 9 10 9 6
4 3 2 2 1 1 2 2 2 2 2 1 1 0 0 0 0 1 1 2 2 2 2 2 2 2 2 1 3 2 3 4 6 9 10 10 9 9 10 11 11 11 10
4 3 3 1 1 1 1 1 2 2 2 1 1 1 0 1 1 1 1 2 1 2 2 2 2 3 2 1 4 3 5 4 7 9 11 10 10 9 10 11 12 11 12
3 5 3 2 1 1 1 1 2 2 2 2 2 1 0 0 1 1 1 1 1 1 1 2 2 2 2 1 2 4 7 7 7 9 12 11 11 10 12 12 11 11 12
2 5 4 2 1 1 1 1 1 2 3 1 1 1 1 0 1 1 1 1 1 1 1 1 1 2 2 2 2 3 4 7 9 11 11 12 11 10 11 12 12 11 12
2 4 5 3 2 1 1 1 1 2 1 1 1 2 1 0 1 1 1 1 1 1 1 1 1 1 1 2 3 4 5 8 8 11 13 14 12 11 12 13 13 13 12
2 2 4 4 2 2 1 1 1 2 2 2 2 1 1 0 1 1 1 2 1 1 1 1 1 1 2 2 3 4 6 8 9 12 13 14 14 12 12 12 13 13 12

GFSSE_con_lsi_117.txt.gz
Lid_Strength_Index
1 0 -1 -1 -1 -1 -2 -2 -2 -2 -2 -2 -2 -2 -2 -2 -2 -2 -2 -2 -2 -2 -2 -2 -2 -2 -2 -2 -2 -2 -2 -2 -2 -2 -2 -2 -2 -2 -2 -2 -2 -1 -2
1 -0 -1 -1 -1 -1 -1 -2 -2 -2 -2 -2 -2 -2 -2 -2 -2 -2 -2 -2 -2 -2 -2 -2 -2 -2 -2 -2 -2 -2 -2 -2 -2 -2 -2 -2 -2 -2 -2 -2 -2 -1 -2
0 -0 -1 -1 -1 -1 -2 -2 -2 -2 -2 -2 -2 -2 -2 -2 -2 -2 -2 -2 -2 -2 -2 -2 -2 -2 -2 -2 -2 -2 -2 -2 -2 -2 -2 -1 -1 -2 -2 -2 -2 -2 -2
-0 -0 -0 -1 -1 -1 -2 -2 -2 -2 -2 -2 -2 -2 -2 -2 -2 -2 -2 -2 -2 -2 -2 -2 -2 -2 -2 -2 -2 -2 -2 -2 -2 -2 0 -1 -1 -2 -2 -2 -2 -2 -2
-0 -0 -0 -1 -1 -2 -2 -2 -2 -2 -2 -2 -2 -2 -2 -2 -2 -2 -2 -2 -2 -2 -2 -2 -2 -2 -2 -2 -2 -2 -2 -2 -2 -0 1 0 0 -1 -2 -1 -1 -1 -2
0 -0 -0 -1 -1 -2 -2 -2 -2 -2 -2 -2 -2 -2 -2 -2 -2 -2 -2 -2 -2 -2 -2 -2 -2 -2 -2 -2 -2 -2 -2 -2 -0 1 1 1 -0 -2 -2 -2 -2 -2 -2
0 0 -0 -1 -1 -2 -2 -2 -2 -2 -2 -2 -2 -2 -2 -2 -2 -2 -2 -2 -2 -2 -2 -2 -2 -2 -2 -2 -2 -2 -1 -1 2 2 1 1 0 -2 -2 -2 -2 -2 -2
0 0 -0 0 -1 -2 -2 -2 -2 -2 -2 -2 -2 -2 -2 -2 -2 -2 -2 -2 -2 -2 -2 -2 -2 -2 -2 -2 -2 -2 -1 0 2 2 1 1 -1 -2 -2 -2 -2 -2 -2
-0 0 0 0 -0 -0 -1 -1 -2 -2 -2 -2 -2 -2 -2 -2 -2 -2 -2 -2 -2 -2 -2 -2 -2 -2 -2 -2 -2 -2 -0 0 2 1 0 1 -2 -2 -2 -2 -1 -1 -1
0 0 0 0 -0 -0 0 -0 -0 -1 -1 -1 -1 -1 -1 -1 -2 -2 -1 -2 -2 -2 -2 -2 -2 -2 -1 -2 -2 -1 -0 0 2 1 1 -0 -2 -2 -2 -1 -1 -1 -1
1 1 1 1 0 0 0 1 1 0 -0 -0 -0 0 1 0 0 0 -0 -1 -2 -2 -2 -2 -1 -1 -1 -1 -1 -1 1 2 2 1 0 -2 -2 -1 -1 -1 -1 -0 0
2 1 1 2 1 0 -0 1 1 1 1 1 1 1 0 1 1 0 1 -1 -2 -2 -2 -1 -1 -1 0 2 2 1 2 2 1 1 1 -1 -1 -1 -1 -1 0 1 1
2 1 1 2 1 1 1 1 2 2 2 2 2 2 0 1 1 1 1 1 1 1 2 1 1 1 1 2 2 2 2 2 2 3 1 -0 -1 -1 -1 -0 1 1 1
2 1 1 1 1 2 1 1 2 2 2 2 2 2 1 2 2 2 2 3 3 2 2 2 2 2 2 1 2 2 3 2 3 5 3 1 -1 -0 -1 0 1 1 1
2 1 1 1 1 1 1 1 2 2 2 2 2 2 2 3 2 3 3 3 3 2 2 2 2 2 2 2 2 2 3 3 4 5 4 2 0 -1 -0 0 1 1 1
2 1 1 1 0 1 1 2 2 2 2 2 2 2 2 2 3 2 2 2 2 2 2 2 2 2 2 2 1 0 1 2 4 5 5 4 0 0 1 1 1 1 1
2 1 1 1 1 1 1 2 2 2 2 2 2 2 2 2 2 2 2 2 2 2 2 2 2 2 2 1 1 0 1 3 5 6 6 5 4 2 2 2 2 2 2
2 2 1 1 2 2 2 2 2 2 2 1 2 1 2 2 2 2 2 2 2 2 2 2 2 3 3 3 2 2 2 3 5 6 6 6 6 6 5 4 4 3 2
2 2 2 1 2 2 2 2 3 3 2 2 2 2 2 2 2 2 2 1 1 2 2 2 3 3 3 3 3 3 3 3 5 6 7 7 7 8 8 5 6 5 4
2 2 2 1 1 3 3 2 4 3 3 2 2 2 2 2 2 2 1 1 2 3 3 3 3 3 3 4 2 4 5 7 8 8 8 7 9 10 11 11 11 9 5
3 3 3 2 1 1 4 4 4 4 4 3 2 2 2 2 1 1 2 2 2 3 3 3 3 4 3 3 4 5 5 7 9 9 9 9 10 12 12 12 13 12 11
2 3 3 3 2 1 1 3 3 4 4 3 3 3 2 1 1 1 2 2 2 3 3 3 4 4 4 3 4 4 6 7 9 10 9 10 12 12 12 12 13 13 12
3 3 2 2 2 1 1 2 4 4 5 5 4 2 1 0 1 1 2 2 2 2 2 3 3 4 4 4 3 4 6 7 9 11 11 10 12 13 13 13 13 13 13
3 2 2 2 2 2 1 2 2 3 4 3 3 3 2 1 0 1 1 2 2 2 2 2 3 3 4 4 3 3 4 5 8 11 12 12 12 13 14 13 13 14 13
3 3 3 3 3 2 2 1 2 2 2 3 3 3 3 2 1 0 1 2 2 1 1 2 4 3 3 3 4 5 5 7 7 10 12 13 12 12 13 13 13 14 13
3 3 3 3 3 3 2 2 2 2 2 2 3 3 3 2 2 1 1 1 1 1 2 2 3 3 3 3 2 4 5 6 8 10 11 13 13 12 12 13 13 14 14

GFSSE_con_lsi_120.txt.gz
Lid_Strength_Index
1 0 -1 -1 -1 -1 -1 -2 -2 -2 -2 -2 -2 -2 -2 -2 -2 -2 -2 -2 -2 -2 -2 -2 -2 -2 -2 -2 -2 -2 -2 -2 -2 -2 -2 -2 -2 -2 -2 -2 -2 -1 -2
0 -0 -1 -1 -1 -1 -1 -2 -2 -2 -2 -2 -2 -2 -2 -2 -2 -2 -2 -2 -2 -2 -2 -2 -2 -2 -2 -2 -2 -2 -2 -2 -2 -2 -2 -2 -2 -2 -2 -2 -2 -1 -2
0 -0 -0 -1 -1 -1 -2 -2 -2 -2 -2 -2 -2 -2 -2 -2 -2 -2 -2 -2 -2 -2 -2 -2 -2 -2 -2 -2 -2 -2 -2 -2 -2 -2 -2 -1 -0 -2 -2 -2 -2 -2 -2
-0 -0 -0 -1 -1 -2 -2 -2 -2 -2 -2 -2 -2 -2 -2 -2 -2 -2 -2 -2 -2 -2 -2 -2 -2 -2 -2 -2 -2 -2 -2 -2 -2 -2 0 -0 0 -2 -2 -2 -2 -2 -2
0 0 -0 -1 -1 -2 -2 -2 -2 -2 -2 -2 -2 -2 -2 -2 -2 -2 -2 -2 -2 -2 -2 -2 -2 -2 -2 -2 -2 -2 -2 -2 -1 1 1 0 0 -1 -2 -2 -2 -2 -2
0 0 -0 -1 -2 -2 -2 -2 -1 -1 -2 -2 -2 -2 -2 -2 -2 -2 -2 -2 -2 -2 -2 -2 -2 -2 -2 -2 -2 -2 -2 -2 -0 1 2 1 1 -2 -2 -2 -2 -2 -2
0 0 0 -1 -1 -2 -2 -2 -2 -2 -2 -2 -2 -2 -2 -2 -2 -2 -2 -2 -2 -2 -2 -2 -2 -2 -2 -2 -2 -2 -1 -1 2 2 2 1 0 -2 -2 -2 -2 -2 -1
0 0 0 0 -1 -1 -2 -2 -2 -2 -2 -2 -2 -2 -2 -2 -2 -2 -2 -2 -2 -2 -2 -2 -2 -2 -2 -2 -2 -1 -1 -0 1 1 2 1 -2 -2 -2 -2 -2 -1 -1
0 0 1 0 -0 0 -0 -1 -1 -1 -1 -2 -2 -2 -2 -2 -2 -2 -2 -2 -2 -2 -2 -2 -2 -2 -2 -2 -2 -1 -1 -0 2 2 0 -0 -2 -2 -2 -2 -1 -1 -0
1 0 1 1 0 0 0 0 0 -0 -1 -1 -1 -1 -1 -1 -2 -2 -1 -2 -2 -2 -2 -2 -2 -2 -2 -2 -2 -1 -0 0 2 1 1 -1 -2 -2 -1 -1 -0 -0 0
1 1 1 1 0 0 0 1 1 0 0 -0 -0 0 1 1 0 0 -0 -1 -2 -2 -2 -2 -1 -1 -1 -1 -1 -0 1 2 1 1 1 -2 -2 -1 -1 -1 -0 0 0
2 1 1 1 1 1 0 1 1 1 1 1 1 1 1 1 1 0 1 -0 -1 -1 -2 -1 -1 -1 1 2 2 1 2 2 2 2 2 -1 -1 -1 -1 0 0 0 1
2 2 1 2 1 1 1 2 1 2 2 2 2 2 2 1 1 1 1 2 2 2 2 2 2 2 2 2 2 2 2 2 4 4 2 -1 -1 -1 -0 0 0 1 1
3 2 1 2 2 2 1 2 2 2 3 3 3 2 2 2 2 3 3 3 3 3 3 3 2 2 2 2 2 2 3 3 5 5 3 1 -1 -1 -0 0 1 1 1
3 3 1 1 2 2 2 2 2 2 3 3 3 2 2 2 3 3 3 3 3 3 3 3 3 2 2 2 2 2 2 3 4 5 4 2 -1 -0 0 1 1 1 1
2 3 1 1 1 2 2 2 2 3 3 3 2 2 2 2 3 3 3 3 3 3 2 2 2 2 2 2 2 1 2 3 4 5 5 3 1 0 1 1 1 1 1
2 2 1 1 1 1 2 2 3 2 2 3 3 2 2 2 3 3 3 3 2 2 2 2 2 2 2 2 2 1 2 4 5 5 4 6 5 2 2 2 2 2 2
2 2 1 1 1 1 1 2 2 3 2 2 2 2 2 2 2 3 3 3 2 2 2 3 3 3 3 3 3 3 3 4 5 5 5 7 7 7 5 4 4 3 3
3 2 2 1 2 2 2 2 2 3 3 2 2 2 2 2 2 3 3 2 2 2 3 3 3 3 4 4 3 4 3 5 6 6 6 7 8 9 9 6 6 5 4
3 3 2 1 1 1 2 2 2 3 3 3 2 2 2 2 2 3 3 2 2 2 3 3 3 4 4 4 3 5 7 6 7 7 7 7 10 10 11 11 11 10 5
3 3 2 2 1 2 2 3 3 3 3 4 3 2 2 2 3 3 3 2 2 2 2 3 4 4 4 4 5 6 7 9 8 8 7 8 10 12 12 12 13 12 11
3 2 2 2 2 2 2 3 3 3 3 3 4 3 2 2 2 2 2 2 2 2 3 4 4 5 5 4 5 6 7 8 10 10 8 8 11 12 13 13 13 13 12
4 3 2 2 2 1 1 2 5 5 5 5 5 5 3 2 2 2 2 1 2 2 2 3 4 4 5 5 4 5 6 8 10 11 11 9 11 13 13 13 13 13 12
3 3 3 2 2 2 1 2 3 3 4 4 4 4 4 3 2 1 1 1 2 2 2 2 3 3 4 4 5 4 5 6 9 11 12 11 10 11 12 13 13 14 13
3 3 3 3 3 2 1 1 2 3 2 3 4 5 4 4 2 2 1 1 2 2 2 2 3 3 3 3 4 6 6 7 8 9 10 13 11 10 11 13 12 13 13
3 3 2 3 3 3 2 2 2 2 2 3 4 4 5 4 3 2 2 1 1 1 1 2 2 2 2 3 3 4 5 8 8 10 11 12 12 12 12 13 14 14 16

GFSSE_con_lsi_123.txt.gz
Lid_Strength_Index
0 -1 -1 -1 -2 -2 -2 -2 -2 -2 -2 -2 -2 -2 -2 -2 -2 -2 -2 -3 -2 -2 -2 -2 -2 -2 -2 -2 -2 -2 -2 -2 -2 -2 -2 -2 -2 -2 -2 -2 -2 -1 -2
-1 -1 -1 -1 -1 -2 -2 -2 -2 -2 -2 -2 -2 -2 -2 -2 -2 -2 -2 -2 -2 -2 -2 -2 -2 -2 -2 -2 -2 -2 -2 -2 -2 -3 -2 -2 -2 -2 -2 -2 -2 -2 -2
-0 -1 -1 -1 -2 -2 -2 -2 -2 -2 -2 -2 -2 -2 -2 -2 -2 -2 -2 -3 -2 -2 -2 -2 -2 -2 -2 -2 -2 -2 -2 -2 -2 -2 -2 -1 -1 -2 -2 -2 -2 -2 -2
-1 -1 -1 -1 -2 -2 -2 -2 -2 -2 -2 -2 -2 -2 -2 -2 -2 -2 -2 -2 -2 -2 -2 -2 -2 -2 -2 -2 -2 -2 -2 -2 -2 -2 -2 -1 -1 -2 -2 -2 -2 -2 -2
-1 -1 -1 -1 -2 -2 -2 -2 -2 -2 -2 -2 -2 -2 -2 -2 -2 -2 -2 -2 -2 -2 -2 -2 -2 -2 -2 -2 -2 -2 -2 -2 -1 -1 -1 -1 -2 -2 -2 -2 -2 -2 -2
-1 -1 -1 -1 -2 -2 -2 -2 -2 -2 -2 -2 -2 -2 -2 -2 -2 -2 -2 -2 -2 -2 -2 -2 -2 -2 -2 -2 -2 -2 -2 -2 -1 -1 -1 -1 -1 -2 -2 -2 -2 -2 -1
-0 -1 -1 -1 -2 -2 -2 -2 -2 -2 -2 -2 -2 -2 -2 -2 -2 -2 -2 -2 -2 -2 -2 -2 -2 -2 -2 -2 -2 -2 -2 -1 -1 -1 -1 -2 -2 -2 -2 -2 -1 -1 -1
-0 -1 -1 0 -1 -1 -2 -2 -2 -2 -2 -2 -2 -2 -2 -2 -2 -2 -2 -2 -2 -2 -2 -2 -2 -2 -2 -2 -2 -2 -1 -1 -1 -1 -1 -1 -2 -2 -2 -1 -1 -0 -0
-1 -1 -1 -1 -1 0 -1 -1 -1 -1 -2 -2 -2 -2 -2 -2 -2 -2 -2 -2 -2 -2 -2 -2 -2 -2 -2 -2 -2 -1 -1 -1 -1 -1 -1 -1 -2 -2 -2 -1 -0 0 0
-0 -1 -1 -1 -1 -1 -1 1 0 -1 -1 -1 -1 -1 -1 -1 -1 -2 -1 -2 -2 -2 -2 -2 -2 -2 -2 -2 -1 -1 -0 -1 -1 -1 -1 -1 -2 -2 -1 -1 0 0 0
1 -0 -1 -1 -1 -1 -0 0 1 1 0 0 -0 0 0 -1 -1 -1 -0 -2 -2 -2 -2 -2 -1 -1 -1 -2 -1 0 0 -1 -1 -1 -1 -2 -2 -2 -1 -0 -0 0 0
2 1 -0 -1 -1 -1 -0 -1 -1 -1 -1 -1 -1 -1 -1 -1 -1 -1 -0 -0 -1 -1 -2 -2 -1 -0 0 -0 -0 0 -1 -0 0 0 -1 -2 -2 -1 -0 -0 0 0 0
2 1 -0 -0 -1 -1 -0 -1 -1 -1 -0 -0 -0 -0 -0 0 -1 -1 -1 -1 -1 1 -0 -0 -0 -0 0 -0 -0 -0 -0 1 1 1 0 -1 -2 -1 -0 0 0 0 1
2 2 1 0 -0 -0 -0 -0 -1 0 1 1 1 1 1 0 0 -0 -0 -0 0 0 0 -0 -0 0 0 -0 -0 0 0 2 2 2 1 1 -2 -1 -0 0 1 1 1
2 2 1 1 1 0 0 0 -0 -0 1 1 1 1 1 1 0 1 1 1 1 1 0 0 0 0 0 0 -0 0 1 3 3 2 1 1 -1 -0 0 1 1 1 2
2 2 1 1 0 1 1 1 0 0 0 1 1 1 0 1 1 1 1 1 1 1 0 0 0 0 0 0 0 0 0 3 3 2 2 1 0 0 1 2 2 2 2
1 1 2 1 0 1 1 1 1 0 1 1 1 1 0 1 1 1 1 2 1 0 -0 -0 0 0 0 -0 -0 -0 0 3 3 3 3 3 2 2 2 2 3 2 2
1 2 2 1 0 1 1 1 1 1 1 1 1 1 0 1 1 1 1 1 0 0 -0 0 0 0 0 0 0 0 1 3 3 4 4 5 4 3 3 4 4 3 3
1 1 2 1 1 1 0 1 1 1 1 1 1 1 1 0 1 1 1 1 0 0 -0 0 1 1 1 1 1 1 1 3 4 4 5 5 5 5 4 4 5 5 3
2 1 1 1 1 1 0 1 1 2 2 2 2 1 1 1 0 1 1 1 1 1 0 1 1 1 1 1 2 3 2 3 4 4 4 5 6 6 6 6 6 6 5
3 2 2 1 1 1 1 2 2 2 2 2 2 2 1 1 1 1 1 2 2 2 1 1 1 1 2 2 4 4 5 5 5 5 5 5 6 7 7 8 8 7 6
3 2 2 1 1 1 1 1 1 1 2 2 2 2 2 2 1 1 1 2 2 2 2 1 1 2 2 3 4 4 5 5 7 6 6 6 6 8 9 9 9 9 7
3 3 3 2 1 1 1 1 3 3 4 3 3 3 3 2 2 1 1 1 2 2 1 0 1 2 2 3 3 3 6 6 7 8 8 7 7 8 9 10 11 11 10
3 3 2 2 2 1 0 1 2 2 3 3 3 3 3 3 3 2 2 1 1 1 0 0 1 1 1 2 3 3 3 4 6 7 9 9 8 8 9 10 11 11 12
3 2 2 2 2 2 2 1 2 2 1 1 2 3 3 3 3 3 2 2 1 0 0 -0 1 1 1 1 2 3 3 4 6 6 5 8 10 8 8 10 10 12 13
6 2 2 2 2 2 2 2 2 2 2 2 2 3 3 3 3 3 3 2 2 1 0 0 0 1 1 1 1 1 3 5 6 6 8 5 8 9 10 10 11 12 12

GFSSE_con_lsi_126.txt.gz
Lid_Strength_Index
0 -1 -1 -1 -1 -2 -1 -2 -1 -2 -2 -2 -2 -2 -2 -2 -2 -3 -3 -3 -2 -2 -2 -2 -2 -2 -2 -2 -2 -2 -2 -2 -2 -2 -2 -2 -2 -2 -2 -2 -2 -1 -2
-1 -1 -1 -2 -1 -2 -1 -2 -2 -2 -2 -2 -2 -2 -2 -2 -2 -2 -3 -2 -2 -2 -2 -2 -2 -2 -2 -2 -2 -2 -2 -2 -2 -2 -2 -2 -2 -2 -2 -2 -2 -1 -2
-1 -1 -1 -1 -2 -1 -2 -2 -2 -2 -2 -2 -2 -2 -2 -2 -2 -2 -2 -2 -2 -2 -2 -2 -2 -2 -2 -2 -2 -2 -2 -2 -2 -1 -1 -1 -1 -2 -2 -2 -2 -2 -2
-1 -1 -1 -1 -2 -2 -2 -2 -2 -2 -2 -2 -2 -2 -2 -2 -2 -2 -2 -2 -2 -2 -2 -2 -2 -2 -2 -2 -2 -2 -2 -2 -1 -2 -1 -1 -1 -2 -2 -2 -2 -2 -2
-1 -1 -1 -1 -2 -1 -2 -2 -2 -2 -2 -2 -2 -2 -2 -2 -2 -2 -2 -2 -2 -2 -2 -2 -2 -2 -2 -2 -2 -2 -2 -2 -1 -2 -1 -1 -1 -2 -2 -2 -2 -2 -1
-1 -1 -1 -1 -2 -1 -1 -1 -1 -2 -2 -2 -2 -2 -2 -2 -2 -2 -2 -2 -2 -2 -2 -2 -2 -2 -2 -2 -2 -2 -2 -2 -2 -2 -2 -1 -1 -2 -2 -2 -1 -1 -1
-1 -1 -1 -1 -1 -2 -1 -1 -1 -2 -2 -2 -2 -2 -2 -2 -2 -2 -2 -2 -2 -2 -2 -2 -2 -2 -2 -2 -2 -2 -2 -1 -1 -1 -1 -1 -2 -2 -2 -1 -1 -0 -0
-1 -1 -1 -0 -1 -1 -2 -2 -1 -2 -2 -2 -2 -2 -2 -2 -2 -2 -2 -2 -2 -2 -2 -2 -2 -2 -2 -2 -2 -1 -1 -1 -1 -1 -1 -1 -2 -2 -1 -1 -0 -0 -0
-1 -1 -1 -1 -1 -0 -1 -1 -1 -1 -2 -2 -2 -2 -2 -2 -2 -2 -2 -2 -2 -2 -2 -2 -2 -2 -2 -2 -2 -1 -1 -1 -1 -1 -1 -1 -2 -2 -1 -1 -0 -0 -0
-1 -1 -1 -1 -1 -1 -1 0 0 -0 -1 -2 -2 -1 -1 -1 -2 -2 -1 -2 -2 -2 -2 -2 -2 -2 -2 -2 -1 -1 -1 -1 -2 -1 -2 -1 -2 -1 -1 -0 -0 -0 0
0 -0 -1 -1 -1 -1 -1 -0 1 1 -0 -0 -0 0 -0 -2 -2 -1 -1 -2 -2 -2 -2 -2 -2 -2 -2 -1 -0 0 -1 -2 -1 -2 -1 -2 -2 -1 -0 -0 -0 0 0
1 0 -1 -1 -1 -1 -1 -1 -1 -1 -2 -2 -2 -2 -1 -1 -2 -1 -0 -1 -1 -2 -2 -1 -1 -0 -0 -2 -1 -0 -2 -1 -1 -1 -1 -2 -1 -1 -0 0 0 0 1
1 0 -0 -1 -1 -1 -1 -1 -1 -1 -1 -2 -2 -2 -1 -1 -1 -2 -2 -2 -2 0 -1 -1 -1 -1 -1 -2 -2 -2 -2 -1 -1 -1 -0 -1 -1 -0 -0 0 1 1 1
1 1 0 -1 -1 -1 -1 -1 -1 -1 -1 -1 -1 -1 -1 -1 -1 -1 -1 -1 -1 -1 -1 -2 -2 -2 -1 -1 -1 -1 -1 -1 -0 -0 0 1 -1 -0 0 1 1 1 1
2 1 0 -0 -1 -1 -1 -1 -1 -1 -1 -1 -1 -1 -1 -0 -0 -1 -1 -1 -1 -1 -1 -1 -1 -1 -1 -1 -1 -1 -1 -0 0 -0 -0 1 -1 -0 1 1 1 2 2
1 1 -0 0 -0 -1 -1 -1 -1 -1 -1 -1 -1 -1 -1 -0 0 0 -0 -1 -1 -1 -1 -1 -1 -1 -1 -1 -1 -1 -1 0 1 0 -0 -0 0 -0 1 2 2 2 2
1 0 0 -0 0 -1 -1 -1 -1 -1 -1 -1 -1 -1 -0 -0 -1 0 1 0 -0 -1 -1 -1 -1 -1 -1 -1 -1 -1 -1 -0 1 1 0 0 1 1 1 2 2 2 2
1 1 0 -0 0 -0 -1 -1 -1 -1 -1 -1 -1 -1 -0 -0 -1 -1 0 1 0 -0 -1 -1 -1 -0 -0 -0 -0 -0 -1 -1 1 1 1 1 0 1 2 2 3 2 2
1 1 1 0 0 -0 -1 -1 -1 -1 -1 -1 -1 -1 -1 -1 -1 -1 -1 -1 -0 -0 -1 -1 -0 -0 0 0 0 -0 -1 -1 0 1 1 2 1 1 1 3 3 3 3
1 1 0 0 0 -0 -0 -0 -0 -0 -1 -1 -0 -0 -1 -1 -1 -1 -1 -1 -1 -0 -0 -0 -0 -0 0 0 1 1 -0 -1 0 1 1 2 2 2 2 3 4 5 4
1 1 1 1 0 0 1 1 1 1 0 -0 -0 -0 0 -0 -1 -1 -1 -1 -1 -0 -0 0 0 0 1 -0 1 1 2 1 1 1 1 2 2 3 3 4 5 5 5
2 1 1 1 1 0 0 0 0 0 0 -0 -0 -0 -0 0 0 -0 -1 -0 -1 -0 0 0 1 1 1 0 2 2 4 3 3 2 2 3 2 3 4 5 5 6 6
2 2 1 1 1 0 0 0 0 0 0 1 0 0 -0 -0 -0 0 0 -1 -0 -0 0 0 0 1 2 1 0 2 5 6 3 3 4 4 3 3 4 5 7 7 9
2 1 1 1 1 0 0 1 1 2 2 1 1 0 -0 0 0 0 0 0 -0 -0 0 0 -0 0 1 2 1 1 1 2 5 5 6 6 5 5 4 6 8 9 10
3 2 1 1 1 1 0 1 1 2 1 1 1 1 0 0 0 1 1 1 1 0 -0 -0 0 0 0 1 2 2 2 2 3 4 5 3 7 6 7 7 7 8 9
4 4 1 1 1 1 1 1 1 2 2 2 1 1 1 0 0 1 1 1 1 1 0 -0 -0 0 0 1 1 1 2 3 3 4 6 4 3 3 6 7 8 8 8

GFSSE_con_lsi_129.txt.gz
Lid_Strength_Index
0 -1 -1 -1 -1 -1 -1 -1 -1 -1 -1 -1 -1 -1 -2 -2 -2 -2 -2 -2 -2 -2 -2 -2 -2 -2 -2 -2 -2 -2 -2 -2 -2 -2 -2 -2 -2 -2 -2 -2 -2 -1 -2
-1 -1 -1 -1 -1 -1 -1 -1 -2 -2 -2 -1 -1 -2 -2 -2 -2 -2 -2 -2 -2 -2 -2 -2 -2 -2 -2 -2 -2 -2 -2 -2 -2 -2 -2 -1 -2 -2 -2 -2 -2 -1 -2
-0 -1 -1 -1 -1 -1 -1 -2 -2 -2 -2 -2 -2 -2 -2 -2 -2 -2 -2 -2 -2 -2 -2 -2 -2 -2 -2 -2 -2 -2 -2 -1 -1 -1 -1 -1 -1 -2 -2 -2 -2 -2 -2
-1 -1 -1 -1 -2 -1 -1 -2 -2 -2 -2 -2 -2 -2 -2 -2 -2 -2 -2 -2 -2 -2 -2 -2 -2 -2 -2 -2 -2 -2 -2 -1 -1 -1 -1 -1 -1 -2 -2 -2 -2 -2 -2
-1 -1 -1 -1 -1 -1 -1 -1 -2 -2 -2 -2 -2 -2 -2 -2 -2 -2 -2 -2 -2 -2 -2 -2 -2 -2 -2 -2 -2 -2 -2 -2 -2 -1 -1 -1 -1 -2 -2 -2 -1 -1 -1
-1 -1 -1 -1 -2 -1 -1 -1 -1 -2 -2 -2 -2 -2 -2 -2 -2 -2 -2 -2 -2 -2 -2 -2 -2 -2 -2 -2 -2 -2 -1 -2 -2 -1 -1 -1 -1 -2 -2 -1 -1 -0 -0
-0 -1 -1 -1 -1 -2 -1 -1 -1 -2 -2 -2 -2 -2 -2 -2 -2 -2 -2 -2 -2 -2 -2 -2 -2 -2 -2 -2 -2 -2 -1 -1 -1 -1 -1 -0 -1 -2 -2 -1 -1 -0 -0
-0 -1 -1 0 -1 -1 -1 -1 -2 -2 -2 -2 -2 -2 -2 -2 -2 -1 -1 -2 -2 -1 -2 -1 -2 -2 -2 -2 -2 -1 -2 -1 -1 -1 -1 -1 -2 -1 -1 -1 -1 -0 -0
-1 -1 -1 -1 -1 -0 -1 -1 -1 -2 -2 -2 -2 -2 -2 -2 -2 -2 -2 -2 -2 -2 -2 -1 -1 -1 -1 -1 -1 -1 -1 -2 -1 -1 -1 -1 -2 -2 -1 -1 -1 -0 -0
-0 -1 -1 -1 -1 -1 -1 0 -0 -1 -1 -1 -2 -1 -1 -2 -2 -2 -2 -2 -2 -2 -1 -1 -1 -1 -1 -1 -1 -1 -1 -2 -1 -1 -1 -1 -2 -1 -1 -1 -0 -0 -0
0 -0 -1 -1 -1 -1 -1 -0 1 1 0 -0 -1 -0 0 -1 -1 -1 -1 -1 -2 -2 -1 -1 -1 -1 -2 -1 -0 -1 -1 -1 -1 -1 -1 -2 -1 -1 -1 -0 0 0 0
1 0 -0 -1 -1 -1 -1 -1 -1 -1 -1 -1 -1 -1 -1 -1 -1 -1 -0 -1 -1 -2 -2 -1 -1 -1 -0 -1 -1 -0 -1 -1 -1 -1 -1 -2 -1 -0 -0 0 1 1 1
1 0 -0 -1 -1 -1 -1 -1 -1 -1 -1 -1 -1 -1 -1 -1 -1 -1 -1 -1 -1 -0 -1 -1 -1 -1 -1 -1 -1 -1 -1 -1 -1 -1 0 -1 -1 -0 0 1 1 1 1
1 1 0 -0 -1 -1 -1 -1 -1 -1 -1 -1 -1 -1 -1 -0 -1 -1 -1 -1 -2 -1 -1 -1 -1 -1 -1 -1 -1 -1 -1 -1 -0 -0 1 0 -1 -0 0 1 1 1 1
2 1 0 -0 -0 -1 -1 -1 -1 -1 -1 -1 -1 -1 -1 -0 -0 -0 -1 -1 -1 -1 -1 -1 -1 -1 -1 -1 -1 -1 -1 -0 0 0 -0 1 -1 -1 0 1 1 1 2
1 1 0 0 -0 -0 -0 -1 -1 -1 -1 -1 -1 -1 -1 -1 0 0 0 -0 -1 -1 -1 -1 -1 -1 -1 -1 -1 -1 -1 -1 -0 -0 -0 0 -0 -1 0 1 1 1 1
1 1 1 0 -0 -0 -0 -1 -1 -1 -1 -1 -1 -1 -1 -1 0 1 1 0 0 -0 -1 -1 -1 -1 -1 -1 -0 -1 -1 -1 -0 0 -0 -1 0 0 -0 0 1 1 1
1 1 0 0 -0 -0 -0 -0 -1 -1 -1 -1 -1 -1 -1 -1 0 0 1 0 0 0 0 -0 -0 0 0 0 0 0 -0 -0 -1 0 0 -0 -0 0 1 1 1 2 1
1 1 1 0 0 0 -0 -0 -1 -1 -1 -1 -1 -1 -1 -1 -0 -0 -0 -0 0 0 1 0 -0 0 1 1 0 0 -0 0 -0 0 0 1 0 0 0 1 2 2 2
1 1 1 0 0 0 -0 -0 -0 -0 -0 -1 -1 -1 -1 -1 -1 -1 -1 -1 -1 -0 0 0 0 -0 0 1 2 1 0 -0 -0 -0 1 1 1 1 1 1 3 4 3
1 1 1 1 1 0 1 1 1 1 1 0 -1 -1 -1 -1 -0 -1 -0 -0 -1 0 0 0 0 1 1 0 2 2 1 0 0 0 0 1 1 2 2 2 3 3 5
2 1 1 1 1 1 1 1 1 1 0 0 -0 -0 -1 -1 -0 0 -0 -0 -0 0 0 0 1 1 1 1 2 3 5 3 1 1 0 1 2 2 3 3 4 4 5
2 2 1 1 1 1 0 0 0 0 0 1 1 0 -0 -1 -0 0 0 0 -0 -0 1 0 0 1 2 1 1 3 5 6 3 1 2 1 2 2 2 4 5 6 6
3 1 1 1 1 1 0 1 1 2 3 2 1 0 0 -0 -0 -0 0 0 0 0 0 0 0 1 1 2 1 1 1 2 5 5 4 3 3 3 4 4 5 6 6
3 2 2 1 1 1 1 1 1 2 1 1 1 1 1 0 -0 -0 -0 0 1 1 1 1 0 1 1 1 2 2 2 2 2 4 5 4 5 5 5 5 5 6 7
3 2 2 2 1 1 1 1 1 2 2 2 2 2 1 1 0 0 -0 0 0 1 1 1 1 1 1 1 1 1 2 3 3 4 4 4 4 4 6 5 5 6 7